GFSSW_500_spd_003.txt.gz
Wind_Speed
40 41 41 40 38 39 39 40 41 44 49 50 48 55 56 55 54 60 60 46 51 52 57 52 40 40 41 44 46 45 48 42 36 31 31 32 37 37 38 32 28 36 40 46 47
33 36 37 39 41 41 40 42 43 43 46 51 52 54 55 57 61 64 55 56 61 62 58 57 57 56 56 46 50 51 51 44 35 32 35 38 40 39 40 34 28 41 46 47 47
32 34 37 40 41 42 43 45 46 46 47 47 51 55 55 56 58 63 63 63 63 67 64 66 65 64 65 59 49 50 49 43 40 35 41 41 39 41 39 26 32 41 42 43 41
33 36 38 40 41 42 45 46 47 48 49 50 51 51 51 55 56 57 62 71 71 72 69 69 70 71 64 59 50 50 50 53 46 41 47 43 40 36 40 23 35 40 43 41 34
34 35 37 39 42 44 46 47 48 49 49 50 53 54 56 56 52 56 54 57 60 66 67 70 71 70 63 55 57 58 53 52 55 49 47 47 38 38 28 24 38 39 39 40 33
39 41 43 45 46 48 49 50 51 52 52 53 54 54 56 55 54 56 58 57 56 58 64 68 68 67 62 61 58 54 55 55 58 58 46 47 38 42 23 31 39 38 40 40 38
44 46 48 49 52 53 55 57 57 57 56 56 58 58 55 52 54 54 59 58 56 52 55 65 66 67 66 66 59 57 59 60 58 54 50 46 31 38 32 36 38 38 44 41 38
47 49 51 53 54 56 58 59 59 60 62 63 62 61 56 58 59 56 57 58 58 57 53 57 68 71 71 68 63 60 61 65 61 55 52 51 39 40 36 37 37 37 44 38 31
53 56 58 59 60 60 60 61 61 62 65 68 68 68 63 63 62 62 62 59 61 60 59 56 57 61 65 64 65 67 66 65 60 56 56 56 49 41 40 39 37 34 41 35 31
56 58 60 63 65 67 69 70 71 71 70 69 68 68 69 71 69 65 66 64 61 59 63 61 58 57 57 60 61 60 59 58 56 56 63 60 57 54 45 40 41 33 38 33 31
56 58 60 63 66 68 69 72 75 76 76 76 76 77 74 78 76 73 69 68 66 61 58 57 64 59 51 56 56 58 58 58 55 53 56 54 54 53 43 36 41 34 33 32 28
60 62 67 70 73 76 78 78 78 80 78 75 77 81 80 80 78 81 79 72 70 66 59 59 55 45 51 52 51 52 53 53 49 46 50 47 49 47 41 37 39 31 29 28 26
68 71 73 71 69 68 64 57 61 60 72 55 62 71 75 81 83 85 85 77 71 69 66 59 42 42 44 44 47 47 46 42 41 35 42 44 49 45 38 37 34 27 28 22 24
71 67 60 50 49 49 47 47 49 49 52 45 48 51 57 69 77 84 86 82 76 70 67 61 51 46 40 43 40 44 27 27 25 31 39 42 52 39 34 34 29 22 26 21 25
58 51 46 47 43 43 43 42 42 41 44 38 44 38 42 51 63 71 81 82 75 73 70 62 62 55 46 39 27 25 22 23 26 33 40 38 44 32 26 18 19 23 25 24 26
48 45 44 43 42 42 43 42 39 40 39 34 38 32 32 36 42 54 69 75 71 68 69 63 60 54 46 40 33 34 31 31 32 35 38 34 39 26 12 15 17 20 26 23 22
45 43 42 42 43 41 39 38 35 38 34 35 32 31 31 30 32 38 55 68 75 74 70 68 66 60 56 53 47 46 41 40 35 35 33 25 35 12 5 9 11 19 20 20 19
44 41 41 40 37 34 31 28 28 27 27 29 31 28 28 29 21 24 43 56 66 70 70 69 69 65 59 55 52 45 37 40 32 31 22 23 28 16 10 12 17 15 18 19 17
38 35 33 36 29 19 16 18 17 16 17 20 20 26 25 29 26 17 36 54 62 69 73 71 67 62 58 53 46 42 42 27 33 34 20 28 15 9 13 20 17 12 17 14 14
27 28 35 31 18 13 13 15 13 10 11 14 15 17 23 27 25 20 27 49 64 73 74 71 70 63 57 52 47 44 40 41 39 35 27 22 11 7 16 16 18 19 16 14 13
23 30 33 28 16 10 11 15 13 14 13 16 14 13 17 26 30 18 30 25 55 70 71 73 72 65 61 58 51 50 49 46 40 37 32 18 8 8 15 16 15 19 19 13 8
23 29 31 24 19 17 18 17 16 17 16 12 11 9 15 26 37 27 33 21 35 66 71 71 71 64 57 53 49 44 40 41 42 35 26 15 8 11 18 20 16 19 19 10 5
26 30 27 22 15 14 15 13 17 18 13 11 12 8 11 21 33 30 28 35 35 52 72 70 69 65 58 55 52 53 42 43 45 38 29 20 14 17 25 20 18 18 15 10 5
29 31 27 24 18 16 15 17 17 16 10 7 7 8 8 13 21 29 32 27 35 48 63 70 69 63 55 51 52 47 45 43 40 37 25 19 21 23 26 24 19 19 15 10 3
29 29 30 26 23 21 14 15 12 13 18 10 5 7 8 10 16 19 17 26 36 43 60 65 64 60 53 52 50 49 39 42 40 29 22 21 27 28 27 24 19 19 13 8 3
29 28 30 28 25 21 23 18 16 13 10 9 6 7 9 10 12 24 16 27 26 41 58 62 62 57 55 51 49 45 43 42 37 27 25 33 31 30 28 22 24 18 13 10 5
26 28 29 26 27 28 30 30 20 12 10 11 7 6 10 10 10 15 33 29 18 39 45 59 60 56 57 51 45 44 44 42 34 29 33 38 30 29 27 26 24 18 13 11 7

GFSSW_500_spd_009.txt.gz
Wind_Speed
28 31 37 42 44 44 45 44 43 42 43 45 46 48 52 65 61 65 62 52 53 55 52 52 52 46 48 51 45 46 47 47 40 34 32 26 26 30 39 44 38 38 43 38 42
30 31 31 33 36 40 43 47 48 48 46 47 47 47 49 51 64 68 57 54 53 56 54 54 53 55 55 51 51 53 52 51 45 38 31 28 28 29 29 34 40 41 38 39 38
29 31 32 34 35 36 38 40 41 42 44 46 47 48 49 50 52 59 62 63 64 61 59 62 54 54 55 50 50 50 53 46 47 40 40 38 40 36 38 46 44 48 38 42 43
30 31 33 34 35 37 39 40 42 43 43 44 44 45 46 48 52 53 53 59 66 66 67 63 59 59 63 61 55 57 55 52 50 48 46 47 42 44 45 51 51 48 43 45 47
34 35 37 39 40 41 42 42 43 44 46 47 47 48 48 50 47 50 51 54 60 64 71 73 71 69 65 67 63 65 61 61 55 53 54 56 61 61 58 54 44 52 47 51 47
34 36 37 39 42 44 45 47 48 49 49 50 50 50 50 48 50 52 50 51 55 62 62 72 70 65 63 66 67 58 60 62 61 61 61 63 64 57 59 56 46 51 53 56 51
38 40 42 43 44 45 45 47 49 52 54 55 55 56 54 50 53 53 53 54 54 57 60 62 73 74 67 71 69 65 71 71 67 64 59 55 61 58 52 49 52 48 52 49 51
41 43 45 46 48 49 50 52 53 54 54 55 56 57 55 59 60 59 58 56 57 55 58 60 65 68 69 66 69 69 69 64 51 53 57 52 58 47 50 48 48 45 47 47 47
45 48 50 51 53 56 57 57 58 59 60 60 61 61 59 59 64 64 64 62 61 59 58 63 63 61 65 64 63 62 58 51 52 51 53 46 53 45 44 44 48 45 46 54 47
46 48 49 51 54 55 58 61 63 64 63 64 63 62 65 64 65 66 68 68 67 65 62 61 65 67 67 65 58 51 58 61 53 46 50 47 47 41 40 47 42 45 46 52 49
51 54 56 58 60 62 63 65 65 66 66 68 69 67 66 66 65 65 66 68 71 70 68 66 70 62 48 55 54 56 62 58 50 45 40 43 41 44 49 53 46 43 43 47 46
57 61 62 64 67 69 71 71 72 70 70 67 67 69 69 67 69 67 69 68 69 70 73 74 69 43 57 54 55 56 54 51 46 45 40 40 49 48 49 49 43 39 42 46 42
63 66 69 72 71 69 64 61 62 62 74 64 63 65 65 68 68 67 69 69 70 71 72 78 54 59 56 56 55 55 53 45 44 46 38 44 54 49 47 37 44 44 43 40 35
67 70 68 57 56 47 47 45 46 46 61 55 60 58 58 61 61 66 68 69 69 71 69 71 64 66 62 57 55 52 46 43 49 48 44 38 50 47 40 39 38 33 31 30 31
66 54 44 36 32 34 36 36 36 37 42 31 40 41 35 43 46 53 59 61 65 67 65 63 66 67 69 57 55 46 40 42 45 38 40 44 48 43 33 36 26 25 28 24 24
47 36 32 31 27 31 33 35 33 27 20 15 19 20 17 19 23 31 40 55 58 62 65 64 64 68 67 64 59 49 44 44 43 38 45 42 45 30 25 21 23 27 23 22 24
34 33 32 32 34 34 32 17 8 7 11 16 23 23 13 20 23 20 26 25 32 44 58 62 67 69 67 71 64 55 49 44 41 43 46 38 35 20 16 21 16 15 17 20 18
36 35 33 36 31 27 13 6 6 2 14 23 27 23 25 23 21 21 27 28 22 25 39 55 65 68 66 70 70 66 59 52 48 39 35 28 24 13 18 17 11 13 16 17 17
34 36 36 34 29 26 8 5 5 8 11 9 6 6 8 10 18 20 24 22 30 34 36 39 57 62 71 69 65 68 59 47 33 26 22 17 22 9 14 16 15 13 12 12 11
32 33 36 33 32 24 11 10 7 8 10 10 5 9 8 15 16 16 18 27 29 30 32 35 40 61 63 72 70 62 49 50 50 36 26 19 20 13 18 25 18 10 9 6 10
33 35 33 35 34 28 20 13 13 15 14 11 9 8 7 10 7 15 23 26 28 36 31 34 47 56 62 62 70 68 51 55 43 36 29 23 14 20 21 22 11 12 16 6 8
33 36 34 34 35 34 22 15 14 13 12 8 5 4 7 11 13 13 13 24 29 27 42 39 40 47 50 43 61 59 52 55 53 43 28 18 15 20 20 19 23 20 17 10 10
34 33 32 33 34 34 31 23 14 10 13 7 11 8 7 6 7 6 16 10 24 24 29 38 39 49 43 44 50 52 53 43 50 32 35 27 9 19 19 22 17 20 12 11 10
37 35 37 34 32 32 30 25 18 13 10 11 9 6 8 9 12 14 13 16 13 20 26 38 42 42 40 37 46 47 49 44 48 38 29 29 21 13 17 21 22 19 14 12 13
37 36 34 34 31 29 29 27 20 14 14 8 6 9 11 11 13 15 6 7 3 9 16 31 41 45 30 44 43 46 49 45 48 41 30 26 28 17 14 26 23 20 17 15 11
38 37 33 31 32 29 27 25 18 17 15 12 9 9 8 8 9 14 10 9 16 13 16 27 49 39 34 50 50 41 45 44 40 41 35 26 31 27 22 27 32 25 21 15 11
39 37 35 31 28 27 26 24 22 19 16 14 12 12 11 9 7 14 12 10 15 16 21 39 55 39 25 46 42 30 47 42 39 39 37 30 25 38 45 43 31 28 27 19 15

GFSSW_500_spd_012.txt.gz
Wind_Speed
26 29 31 32 34 36 39 40 41 42 43 44 48 59 71 68 63 60 59 54 55 55 55 53 53 50 55 44 46 43 47 47 38 38 36 30 35 32 23 21 28 33 39 39 45
30 31 33 34 35 37 38 40 43 46 47 46 46 48 51 58 63 68 67 67 63 60 56 54 54 49 50 50 48 48 49 45 43 41 40 41 31 25 26 26 26 29 29 23 35
32 33 35 36 37 39 40 41 40 41 46 48 50 51 51 51 52 54 58 60 70 68 61 58 60 54 55 53 52 52 52 44 45 51 46 41 34 35 33 30 32 34 39 37 51
33 34 36 37 38 40 41 42 43 44 44 44 46 47 48 50 55 53 53 56 58 67 66 60 59 57 58 56 54 59 56 56 51 49 45 48 47 51 48 45 42 41 43 44 51
37 39 40 41 43 44 45 46 46 46 47 47 47 47 48 48 46 51 53 55 55 59 66 70 66 65 67 60 58 62 56 57 52 50 51 51 52 52 54 48 47 51 51 57 57
37 38 39 41 43 44 45 47 49 50 51 51 51 51 51 49 50 53 54 52 52 55 57 61 67 69 70 67 65 60 59 58 60 60 59 57 60 56 51 54 55 59 63 54 52
39 41 43 45 46 47 48 49 49 50 51 53 55 56 54 50 53 54 56 55 56 54 56 58 61 68 62 71 68 73 75 70 65 57 57 47 55 55 50 49 50 49 54 52 49
40 43 45 47 49 52 54 55 56 56 55 54 55 55 54 59 59 58 57 56 57 58 56 58 58 62 66 66 66 68 69 68 54 51 41 47 58 46 40 41 47 44 41 45 43
44 46 48 50 51 53 55 57 60 61 62 62 62 60 59 57 58 62 62 60 61 59 57 57 61 61 62 64 67 66 67 61 39 43 48 48 52 38 36 39 42 35 37 40 41
47 50 54 57 59 61 61 62 64 63 64 64 65 64 63 62 63 62 63 63 64 64 63 62 63 65 63 61 60 56 54 41 49 45 45 44 42 42 42 42 38 36 46 35 40
51 53 56 58 61 64 66 69 70 70 68 67 68 67 66 67 67 65 64 64 65 65 67 68 70 61 48 54 51 53 50 51 49 44 42 47 41 39 36 42 40 43 43 43 43
54 58 61 66 69 73 75 74 72 73 71 70 67 66 67 66 70 69 68 67 66 66 67 72 68 47 58 55 56 56 59 57 49 50 45 40 39 40 39 40 44 44 48 46 41
59 64 70 71 69 64 60 59 55 55 71 67 61 67 58 63 64 65 67 69 68 67 66 68 55 59 60 58 57 55 56 50 49 48 47 36 44 44 36 40 42 46 46 34 36
62 64 64 55 49 41 38 36 34 34 45 39 44 44 50 53 60 59 62 63 66 66 64 66 57 62 60 57 57 59 52 50 50 50 53 37 49 36 36 37 39 36 34 28 30
61 60 48 44 40 40 39 36 34 31 24 12 12 19 28 31 38 39 51 56 60 61 60 59 63 61 61 57 59 50 47 46 45 45 46 48 46 28 33 36 34 26 26 30 30
57 51 44 45 40 40 31 21 14 5 2 14 19 13 2 5 12 18 27 36 45 53 60 61 61 60 62 58 61 53 50 47 45 44 46 38 40 35 26 28 19 21 28 30 27
49 43 41 42 41 37 23 12 6 10 6 10 10 16 11 13 13 16 21 20 28 27 50 59 63 64 63 63 60 59 50 47 46 49 41 27 38 32 25 18 15 24 27 23 23
43 40 40 41 41 36 18 9 8 13 7 8 21 23 19 21 18 23 22 24 24 24 30 45 54 59 64 64 61 62 61 59 56 47 42 36 37 27 17 13 18 19 17 18 12
40 38 39 38 36 30 22 17 19 20 16 12 13 3 5 4 10 15 20 23 24 34 39 34 51 55 61 64 60 57 58 52 47 32 35 21 22 28 12 12 17 17 16 15 10
40 37 37 37 34 30 25 20 19 21 23 13 13 15 9 11 13 10 16 22 27 31 24 40 39 54 59 56 65 53 53 51 51 40 27 21 14 15 10 17 18 18 17 11 11
42 39 36 34 35 32 30 24 21 18 15 17 19 15 8 13 12 20 16 20 16 29 40 38 38 39 54 58 63 63 58 59 43 46 31 20 16 21 21 24 15 24 24 10 8
42 42 36 37 32 30 30 26 16 16 13 10 14 10 13 10 10 11 14 19 18 22 29 39 38 36 48 44 45 58 59 58 56 50 45 26 22 22 26 15 13 21 24 11 11
44 43 39 33 30 30 27 24 21 11 13 11 13 12 12 10 8 15 19 27 17 14 27 37 36 32 44 51 51 58 60 60 51 39 42 28 12 24 23 16 18 25 21 15 15
47 45 39 36 34 30 27 25 23 16 15 11 11 6 9 12 16 16 14 10 18 16 19 27 38 31 28 43 43 45 50 57 45 46 33 31 22 18 21 22 16 28 20 17 13
47 46 42 37 34 26 25 25 21 20 16 11 8 7 13 18 13 18 16 5 5 6 11 21 34 38 45 48 46 44 43 51 44 44 40 33 25 11 17 23 20 25 19 14 11
43 47 44 37 31 26 22 22 21 19 19 14 11 10 11 10 10 12 17 11 12 11 11 14 27 49 51 53 51 54 51 45 38 42 33 24 28 24 30 28 22 22 17 15 15
38 43 44 40 31 30 25 20 22 20 19 16 13 19 13 16 16 13 16 15 14 14 15 17 33 45 47 26 52 55 61 51 45 35 34 22 30 32 34 30 19 25 22 20 18

GFSSW_500_spd_015.txt.gz
Wind_Speed
23 25 27 28 30 31 34 36 37 38 38 41 46 53 64 62 63 61 56 48 53 56 59 57 62 56 54 55 55 58 53 61 50 41 28 34 38 35 24 28 30 30 33 33 32
27 29 31 32 33 34 35 35 37 38 40 42 43 45 52 65 65 67 61 57 56 55 55 55 56 58 62 60 57 56 55 49 40 36 36 32 38 40 32 41 34 27 30 36 35
29 31 33 34 36 37 38 40 41 42 43 43 44 48 50 51 54 61 70 71 68 65 60 60 63 61 64 62 55 55 55 47 41 38 38 37 37 39 44 45 37 34 31 32 31
34 36 38 39 39 40 41 41 42 43 44 45 47 48 50 53 55 55 56 60 64 72 76 76 70 71 73 68 59 60 57 55 48 45 43 42 41 41 46 50 41 39 40 40 37
33 35 37 40 42 43 44 45 46 48 49 49 48 48 50 50 50 57 59 60 58 61 63 65 64 66 72 67 59 62 54 53 50 48 48 48 48 48 47 46 49 43 45 50 53
35 37 38 40 42 43 45 48 49 49 50 51 52 53 52 50 51 53 57 59 61 61 62 62 61 60 64 70 66 58 58 55 54 56 52 53 51 49 46 47 49 48 49 53 54
33 36 39 41 44 46 48 50 51 52 53 55 55 54 53 53 57 55 57 56 55 56 61 61 61 63 61 64 68 69 67 65 60 56 55 52 51 45 47 46 43 44 47 48 42
36 39 42 45 48 50 53 55 57 57 57 58 58 57 55 57 56 58 58 57 57 57 56 57 59 60 61 61 61 64 71 66 50 53 51 54 47 46 44 41 44 40 38 37 37
38 42 44 47 50 53 57 61 63 63 63 63 63 60 57 60 60 58 58 60 61 60 60 61 62 61 60 60 61 60 63 59 47 46 51 58 48 45 41 39 37 35 34 35 29
40 42 46 49 53 57 60 64 65 66 68 67 66 65 65 64 63 64 62 61 61 62 64 63 64 63 60 61 56 52 51 47 45 50 54 52 51 46 40 39 36 36 36 29 35
46 49 51 55 60 64 71 76 78 80 77 71 68 69 68 70 67 65 65 65 65 64 65 69 69 59 48 53 52 53 51 49 47 47 45 44 45 42 34 34 35 34 31 36 38
45 49 52 57 64 75 79 75 72 69 72 56 71 67 66 68 72 68 67 66 67 66 67 67 61 52 56 57 59 57 52 45 46 47 42 37 42 38 37 28 29 35 34 41 39
45 52 56 61 67 68 55 51 47 42 45 32 34 55 50 58 62 64 65 67 65 67 66 66 55 56 62 62 62 55 54 48 47 49 41 43 52 46 32 25 31 33 39 40 29
48 52 54 58 61 53 53 43 36 29 16 8 8 13 19 29 48 49 53 57 61 60 60 64 57 59 59 60 61 57 54 54 53 51 48 45 53 39 28 30 29 35 30 32 26
48 50 54 56 54 45 39 30 23 13 7 6 2 2 4 12 16 28 40 45 51 52 54 53 59 61 60 57 62 54 55 54 54 53 50 49 48 24 30 24 31 23 24 24 28
46 50 52 50 46 38 24 22 20 20 7 7 7 12 9 11 15 20 7 19 27 35 51 53 55 58 58 56 56 56 57 54 51 50 53 39 44 24 22 28 21 21 22 25 25
45 49 49 46 41 35 24 23 28 25 17 16 13 14 7 7 10 12 6 16 14 16 41 49 52 54 54 58 57 56 56 55 56 54 45 35 43 33 19 23 17 19 23 22 20
44 46 45 43 37 35 26 25 23 19 20 17 21 15 18 22 19 12 18 22 13 16 24 34 43 52 53 55 57 57 59 61 58 54 43 39 48 18 19 16 10 18 16 21 14
43 46 45 41 37 35 31 24 24 25 26 27 12 13 16 18 24 17 23 26 31 28 31 33 43 42 53 55 50 51 61 49 55 51 49 43 36 27 22 10 17 14 14 16 14
41 46 44 41 37 33 33 25 25 18 23 16 16 12 16 17 15 10 6 17 24 27 36 31 41 37 48 60 62 56 50 55 55 54 52 43 33 18 12 10 16 9 14 11 15
43 45 47 43 37 33 31 24 23 19 19 19 14 14 14 14 13 14 10 13 16 24 27 32 32 36 45 57 58 58 52 59 55 53 48 40 21 11 14 19 18 18 18 16 15
41 46 49 46 38 31 28 25 24 18 17 16 17 9 16 18 15 12 14 17 20 25 31 27 16 32 42 46 53 64 60 55 59 53 47 33 28 22 31 17 20 21 17 11 12
38 42 46 46 39 32 25 25 26 26 18 15 11 10 8 12 16 17 8 11 16 20 18 16 21 24 40 45 43 58 62 56 58 50 46 38 29 11 11 21 22 21 16 11 12
35 39 43 45 40 35 26 22 24 23 22 16 11 2 14 14 18 17 19 19 10 9 16 17 19 25 31 44 46 53 64 58 58 57 44 46 21 11 18 17 20 21 15 15 12
35 35 41 42 40 34 29 26 24 25 20 18 8 10 14 10 15 25 25 16 14 11 11 19 11 21 32 42 43 50 66 65 65 60 52 44 27 19 15 16 13 19 14 14 18
35 31 33 37 41 36 33 26 23 21 21 16 8 12 14 18 17 17 21 15 14 13 11 14 11 19 32 43 37 53 69 68 66 59 55 43 33 21 23 24 24 17 17 20 20
34 31 33 35 38 39 33 32 29 19 19 21 17 12 14 15 14 13 14 15 12 15 12 12 7 10 25 32 39 47 67 67 62 59 48 43 32 37 33 21 15 14 21 21 18

GFSSW_500_spd_021.txt.gz
Wind_Speed
19 21 23 25 29 32 35 36 36 37 38 39 38 39 41 46 47 51 50 61 53 56 54 53 49 50 49 47 48 49 55 53 48 43 40 47 48 39 39 42 41 41 39 38 33
18 19 21 23 24 26 29 31 32 35 38 41 42 43 43 44 42 45 56 57 66 61 58 59 57 53 52 49 53 57 60 57 48 46 46 47 45 39 37 42 45 44 44 39 33
21 22 24 25 27 28 29 30 32 34 36 39 40 42 44 45 45 48 49 55 61 70 65 62 64 66 63 59 61 62 64 56 52 51 50 51 52 47 49 46 36 42 44 44 41
23 23 24 26 27 29 31 32 33 34 37 39 40 41 43 44 46 50 53 56 58 60 72 73 68 67 70 66 65 65 64 62 56 53 55 54 52 52 53 52 39 41 46 50 47
23 24 26 26 28 29 30 31 33 36 38 40 43 44 44 45 45 53 53 56 58 59 61 74 74 70 67 67 66 66 64 65 64 60 61 62 59 59 58 52 48 41 44 44 41
24 25 25 25 27 28 29 31 34 37 39 41 43 44 47 47 54 52 55 55 57 59 62 66 68 73 79 74 69 65 66 65 66 67 63 61 57 54 53 49 51 45 47 44 40
19 21 23 26 29 31 34 37 39 41 45 47 48 47 45 52 55 57 59 58 60 59 59 61 66 68 72 82 79 74 74 76 72 69 69 65 63 55 52 51 45 41 46 42 40
23 26 28 31 33 36 38 41 42 44 47 49 51 53 53 59 57 60 61 61 61 61 63 64 64 67 68 71 74 74 74 74 69 73 72 70 59 52 49 49 43 41 42 44 48
27 28 31 33 35 38 41 44 47 51 52 54 57 58 59 65 66 65 64 65 66 65 63 66 68 65 65 68 71 72 69 66 64 60 63 61 54 48 42 46 47 47 48 46 48
28 30 33 36 39 40 43 46 51 55 57 62 66 68 71 74 77 75 72 71 69 71 70 69 67 68 66 65 68 68 68 68 68 62 59 58 55 50 45 44 48 49 46 46 46
30 34 36 38 39 41 44 49 52 58 65 69 76 80 81 82 82 78 82 76 73 76 74 72 71 64 60 62 62 61 62 63 60 59 57 59 59 51 54 47 44 41 42 41 40
33 35 37 37 39 42 46 50 57 60 66 73 69 57 47 40 51 54 71 77 80 78 79 78 71 65 63 66 65 64 61 57 55 53 51 49 55 53 49 45 41 39 38 39 40
33 33 35 37 39 44 48 52 56 59 61 56 41 30 27 28 28 21 38 48 61 75 77 77 72 69 68 67 64 63 61 57 56 53 52 51 57 51 45 43 40 40 40 37 35
30 32 34 37 40 44 49 52 56 57 50 40 35 31 21 21 17 19 37 36 39 47 55 65 64 69 70 68 66 61 60 59 59 55 53 49 54 46 39 38 38 37 34 31 26
32 35 36 36 41 45 49 53 55 50 40 32 27 24 24 17 13 10 20 31 32 36 41 52 59 65 66 63 64 58 61 60 60 57 54 50 51 28 35 34 29 26 27 27 28
35 36 37 37 40 45 49 50 49 40 33 28 21 18 17 20 21 23 13 21 15 35 41 45 46 53 60 61 62 63 64 58 58 59 59 46 47 22 28 28 26 27 30 29 20
36 38 37 37 40 45 47 44 38 33 32 22 25 22 14 12 17 20 20 12 14 13 27 41 39 48 52 56 57 61 62 60 59 60 50 49 49 24 12 26 26 28 25 20 21
37 38 36 37 39 42 43 42 33 31 28 18 19 18 20 14 12 15 21 19 11 11 17 16 27 37 44 52 50 55 58 59 61 56 49 50 46 35 16 23 22 26 20 19 18
37 37 35 36 37 40 41 41 32 28 27 18 16 17 17 17 14 14 13 15 16 14 12 12 19 27 35 45 52 53 55 50 53 56 55 50 43 40 26 24 25 22 19 16 20
37 36 33 34 35 38 38 36 29 25 25 24 22 20 15 13 11 13 10 14 18 12 13 16 17 21 28 39 46 51 53 52 55 54 54 51 48 40 31 30 22 21 15 17 17
39 38 34 31 32 36 36 32 28 24 24 22 24 23 15 12 13 8 9 13 12 12 12 14 20 27 26 31 40 46 52 56 53 53 53 51 51 41 28 33 33 26 20 21 20
42 42 37 33 31 35 36 37 31 20 22 22 21 19 16 12 9 11 10 11 12 15 17 21 18 19 23 31 34 43 49 56 57 55 53 52 49 34 35 34 22 22 20 21 17
39 42 40 37 33 32 32 32 33 22 21 18 20 18 17 19 18 11 12 13 12 14 16 22 22 15 16 28 37 44 49 57 58 57 55 54 38 37 34 31 29 24 20 16 12
39 41 41 36 34 36 32 33 27 23 19 17 18 20 16 15 20 16 13 18 19 21 14 17 16 14 14 24 35 46 49 56 60 56 51 51 41 43 37 34 29 29 25 13 8
39 40 42 37 32 33 32 33 34 24 16 18 14 21 18 17 16 18 21 19 17 25 17 21 18 18 13 19 31 39 51 57 61 57 54 51 41 40 43 38 34 32 25 14 9
40 38 39 38 32 31 30 30 33 26 23 19 19 15 18 18 20 15 17 16 14 18 23 21 18 19 10 16 25 39 49 57 62 60 56 49 47 46 45 44 38 34 24 19 11
39 39 38 38 32 30 30 32 33 33 26 22 20 16 17 20 15 16 16 10 7 15 18 20 16 17 13 14 18 28 43 55 61 63 58 49 54 52 50 45 41 37 27 21 14

GFSSW_500_spd_024.txt.gz
Wind_Speed
19 20 22 23 25 27 29 33 35 37 38 38 37 36 37 39 40 47 50 56 60 62 54 49 47 48 49 51 52 51 53 49 44 38 39 46 48 44 44 50 46 45 46 44 46
18 19 20 21 23 25 26 28 29 31 33 36 40 42 42 42 42 43 45 54 58 61 64 59 52 53 54 52 55 54 56 51 45 43 40 48 48 41 49 51 53 50 41 33 40
19 20 21 22 23 24 27 29 30 32 33 35 37 38 40 42 43 48 47 48 54 58 57 62 64 58 60 57 60 59 62 53 49 48 46 46 50 51 53 54 43 35 38 36 38
19 21 22 24 25 26 27 28 30 33 35 37 38 39 40 41 43 46 46 48 53 54 60 69 66 71 67 66 61 64 63 58 51 49 48 50 52 55 55 52 47 45 44 41 45
22 24 25 26 26 27 28 29 31 33 34 36 38 39 40 42 46 49 49 49 49 54 57 61 65 70 70 71 66 68 63 63 58 55 55 54 56 57 59 57 52 50 51 52 45
18 18 19 20 22 24 26 28 30 32 33 34 36 37 40 46 48 49 51 52 53 53 55 59 62 65 72 73 78 73 70 71 71 64 62 62 60 61 59 54 52 52 50 46 48
17 19 21 23 25 27 29 32 33 35 35 37 39 40 42 47 50 51 53 56 57 58 57 59 61 65 66 67 67 81 79 78 75 70 65 63 68 67 56 52 51 49 50 51 45
21 22 24 25 27 29 32 34 38 41 42 43 43 44 49 51 52 53 56 60 61 60 58 64 65 65 65 67 67 66 83 82 73 70 67 64 67 60 58 57 52 52 55 52 46
23 24 26 28 31 34 37 39 39 41 43 46 48 51 54 56 59 62 61 61 63 64 64 68 66 67 67 66 68 69 68 70 70 76 76 73 60 62 61 61 58 55 51 50 49
27 28 30 33 34 35 36 38 40 43 46 48 52 56 59 63 66 70 71 69 72 69 70 72 72 68 68 69 68 66 68 70 71 67 74 77 64 66 58 55 52 49 46 45 46
28 30 30 31 32 34 36 37 39 44 49 52 57 61 67 71 75 78 77 77 77 77 77 74 77 69 65 67 66 68 68 67 66 67 65 64 66 60 58 51 49 44 42 42 40
28 30 31 32 33 35 37 39 41 44 50 55 61 71 76 76 71 60 58 68 68 72 76 76 76 71 72 72 70 68 68 67 64 62 61 61 65 64 59 54 50 46 44 42 40
29 28 31 31 34 38 39 40 44 48 51 57 67 65 56 50 42 36 34 36 37 44 64 68 70 74 77 76 73 72 69 65 64 62 57 56 62 58 53 51 48 46 41 39 39
30 29 31 33 36 38 39 42 46 50 52 59 55 53 39 32 30 24 18 23 26 22 32 44 56 70 78 77 75 75 70 66 64 60 58 55 64 53 45 45 42 40 37 35 40
29 32 33 33 35 37 40 43 47 50 57 53 50 35 27 27 26 26 25 23 18 24 23 30 39 58 68 74 75 73 70 67 65 60 58 56 58 41 39 42 39 35 33 38 37
34 34 35 37 37 38 39 42 45 47 47 43 40 28 28 29 25 25 27 24 21 23 26 22 31 41 50 62 64 67 67 64 63 60 64 49 52 34 31 34 36 34 34 33 30
37 37 37 37 39 38 39 41 43 44 46 39 35 27 25 23 22 20 23 20 19 13 20 20 36 34 31 45 58 63 65 61 59 63 53 48 50 27 24 35 31 30 32 33 30
37 38 38 38 39 38 37 40 40 43 39 29 34 26 26 26 21 21 19 13 15 12 12 23 18 34 33 32 42 53 60 60 64 59 48 47 44 32 33 12 11 21 30 27 23
38 38 38 40 40 39 37 39 39 41 37 29 27 23 21 23 24 18 20 12 12 16 9 6 8 18 28 29 31 46 51 46 50 56 54 50 40 36 34 32 35 22 17 25 22
39 38 38 39 39 38 36 37 39 41 35 28 30 25 23 17 18 17 12 13 11 13 12 7 9 9 17 22 21 37 45 47 50 50 53 48 44 43 37 36 27 20 18 17 18
42 41 39 38 37 37 36 34 35 41 40 29 24 26 24 21 16 17 11 11 12 12 6 8 7 10 16 23 28 26 42 48 48 49 49 48 51 49 41 38 33 35 15 19 20
42 42 41 38 38 36 36 37 34 36 38 28 24 23 22 20 16 17 13 14 11 13 12 11 12 8 8 24 26 35 33 45 51 50 50 52 54 53 43 39 27 28 28 20 18
41 43 42 40 40 38 33 35 34 38 36 25 24 22 23 16 20 17 14 14 12 13 14 14 14 12 14 19 28 30 39 43 50 54 54 56 49 29 44 41 32 28 29 29 23
41 42 42 41 42 42 37 33 32 35 34 27 23 22 21 13 20 16 16 11 16 18 18 19 13 13 15 19 28 32 37 45 54 56 57 57 51 22 29 28 28 35 34 29 22
42 41 42 41 40 43 39 36 32 31 29 25 18 17 17 16 18 13 16 18 18 18 22 24 17 16 20 19 22 31 36 45 54 58 59 57 52 35 33 36 38 34 31 27 23
40 39 39 40 39 41 39 35 32 31 30 24 18 15 17 20 18 16 19 17 12 17 21 24 20 18 20 22 18 27 36 42 54 58 57 59 44 47 44 43 39 36 34 30 22
36 36 37 39 38 38 39 36 35 34 28 25 14 11 17 20 21 21 20 19 17 13 11 18 22 23 23 22 22 22 24 41 51 58 60 58 50 49 49 46 42 39 36 30 24

GFSSW_500_spd_027.txt.gz
Wind_Speed
16 16 17 19 21 23 24 25 27 29 31 33 34 35 37 38 38 39 47 46 50 55 56 53 50 48 48 47 45 47 51 51 48 48 47 47 45 43 45 47 45 41 40 42 39
17 18 19 20 22 23 25 26 26 27 28 29 31 33 37 39 40 39 41 45 48 52 54 60 59 54 51 50 52 50 55 49 44 46 46 43 48 48 50 47 46 43 44 43 47
17 18 19 20 22 24 25 26 28 29 31 31 31 32 34 35 38 41 43 44 46 47 50 55 59 63 61 57 55 54 59 49 47 49 48 52 52 53 53 50 47 46 48 48 49
17 18 19 21 22 24 25 26 28 29 30 30 32 34 36 38 39 39 40 41 43 47 50 51 55 61 66 65 60 59 57 53 50 54 53 54 55 55 53 49 46 44 50 46 43
19 21 21 21 22 23 24 25 27 28 30 30 32 34 36 39 38 39 41 43 44 45 47 50 54 57 59 64 70 67 62 60 57 60 57 55 56 53 54 55 50 49 49 45 41
18 16 17 18 19 21 23 25 26 27 29 31 32 35 37 38 40 39 41 43 46 47 49 51 53 56 60 59 64 63 62 69 68 66 65 63 60 61 56 55 57 55 53 48 46
20 20 22 23 24 25 26 26 28 29 31 33 35 37 38 40 42 43 46 46 46 47 49 52 56 57 58 60 61 63 71 74 68 73 69 67 70 70 62 58 55 52 50 48 49
21 22 23 24 25 26 28 30 32 33 34 36 38 40 42 44 46 47 48 50 53 53 51 56 58 59 61 61 62 64 67 69 66 66 72 74 74 64 67 64 61 57 53 54 53
21 22 24 26 27 29 31 32 33 34 35 38 40 42 44 45 47 50 54 57 59 61 59 58 61 61 62 63 67 67 65 66 63 68 70 76 72 70 67 66 62 58 57 56 55
23 24 24 26 27 28 30 32 34 35 37 39 41 44 47 50 53 54 57 59 62 64 67 70 66 63 64 67 66 64 68 68 68 66 67 66 65 73 71 68 67 65 60 55 51
26 26 26 28 28 29 29 30 33 36 39 40 44 47 50 51 54 57 62 66 70 71 72 75 75 72 68 68 66 70 69 70 69 66 66 63 62 59 67 64 60 59 55 51 46
24 25 25 26 26 27 28 30 32 34 37 41 44 47 51 54 56 61 64 65 65 66 71 74 74 75 75 69 71 72 74 71 68 67 66 64 61 59 60 56 53 54 50 46 42
27 27 27 28 28 30 31 34 36 39 40 42 46 49 53 54 58 57 51 45 37 30 33 43 60 68 74 73 73 76 76 73 70 67 66 64 65 60 55 56 52 49 45 43 40
29 29 30 30 31 32 34 36 38 41 42 44 46 50 51 52 48 44 37 33 25 28 31 31 30 45 57 69 72 78 77 75 73 71 66 62 69 62 51 50 48 45 43 39 38
31 32 33 34 34 34 36 38 40 41 45 43 47 48 50 48 45 31 32 25 25 27 27 22 19 24 36 48 63 73 77 76 75 73 68 62 66 51 47 46 42 35 33 36 37
31 34 35 36 35 35 37 39 40 41 42 43 45 47 44 38 34 33 33 22 22 26 28 18 26 23 25 33 41 58 71 72 74 73 73 62 62 47 40 37 36 38 37 37 37
33 36 37 37 37 36 37 38 39 40 42 43 44 42 37 37 28 26 23 21 21 16 16 12 21 27 26 27 33 46 55 68 69 73 66 62 61 38 32 38 37 39 37 37 39
35 37 39 40 39 38 38 39 38 39 38 40 43 36 32 34 24 21 22 19 18 18 13 16 12 17 24 27 21 30 45 56 59 66 62 63 55 38 30 15 30 39 34 42 38
36 38 39 40 41 40 39 40 39 38 38 38 38 31 24 26 25 18 19 17 15 13 13 15 8 12 18 24 20 23 37 44 46 59 61 61 46 42 40 30 15 26 32 34 31
38 38 38 39 39 39 39 40 40 39 37 37 39 32 26 23 20 18 18 16 11 10 9 10 9 3 13 17 23 21 27 36 44 50 59 52 47 47 45 38 41 38 23 15 22
40 41 38 38 38 38 38 37 36 38 36 36 37 30 26 22 19 16 15 14 14 10 9 8 6 7 7 15 21 26 25 34 40 47 52 54 48 49 47 40 39 26 23 20 22
41 41 40 39 37 38 38 38 35 35 35 35 35 26 23 18 17 15 14 13 12 13 13 10 9 8 8 14 17 25 22 26 41 43 51 53 50 51 46 41 27 41 25 20 22
38 41 40 39 39 39 38 39 36 33 34 33 32 23 18 15 17 14 12 16 12 13 15 15 13 12 14 14 15 26 24 21 36 47 52 52 46 46 43 45 38 31 28 28 23
35 40 40 38 40 41 39 38 35 32 32 31 29 21 19 17 20 19 15 19 16 15 15 19 17 17 16 18 18 19 23 31 32 47 51 54 39 27 31 37 37 33 33 31 26
33 36 40 38 37 40 39 39 36 34 32 30 25 17 17 18 17 19 22 21 18 15 19 21 21 21 20 17 20 19 20 25 36 41 53 55 38 40 36 38 35 36 36 35 28
32 33 37 38 35 37 37 37 36 33 37 30 18 11 17 21 24 24 28 25 25 17 18 17 21 21 21 16 18 18 19 25 28 38 52 56 48 45 43 43 43 42 42 40 33
29 30 34 38 33 34 35 35 35 35 33 27 9 8 15 19 21 25 29 20 17 14 16 13 11 14 18 17 20 16 7 22 29 36 49 60 56 46 47 45 46 48 45 42 36

GFSSW_500_spd_030.txt.gz
Wind_Speed
13 13 13 14 15 16 18 21 23 24 25 27 29 30 31 33 34 38 36 36 41 44 48 51 56 51 50 49 44 43 49 49 43 43 42 45 45 46 46 48 42 40 40 40 40
16 16 17 17 17 18 19 21 22 23 24 25 27 29 30 32 34 36 38 39 39 39 45 47 49 57 54 52 55 50 52 49 42 47 42 46 48 48 48 49 45 44 40 39 42
16 17 19 20 20 21 22 23 24 25 26 27 28 29 30 30 32 33 34 37 39 39 42 49 51 50 55 60 56 60 62 50 47 47 46 47 51 50 50 54 50 44 44 45 44
18 18 19 20 21 22 23 24 25 25 26 28 30 31 32 32 34 34 35 36 37 39 42 46 47 51 55 57 61 62 60 59 51 53 51 51 54 57 57 54 50 53 48 48 46
19 20 21 21 20 20 20 22 23 23 24 26 28 30 32 34 35 36 37 39 40 41 42 44 46 50 51 51 55 62 61 60 58 60 56 53 58 57 59 58 57 56 57 54 53
15 15 17 19 20 22 23 24 26 27 28 29 30 31 32 33 34 34 36 38 41 43 44 46 48 50 51 53 55 51 58 66 67 65 62 59 60 59 59 59 60 61 57 55 51
17 18 20 22 24 25 26 27 28 28 29 31 33 34 35 37 38 39 40 41 42 44 44 46 49 52 54 54 53 55 59 60 63 67 66 62 66 69 58 60 65 62 61 60 56
19 20 22 23 24 26 27 28 29 29 29 31 32 34 36 37 39 40 42 45 46 47 47 49 52 53 54 56 58 58 61 62 57 59 62 75 73 66 64 64 65 62 62 61 58
16 18 21 23 24 25 26 27 28 29 30 31 31 33 35 37 40 42 45 48 51 53 54 55 55 55 57 59 62 63 64 63 58 60 63 73 68 62 66 72 68 67 65 63 62
17 17 18 21 22 24 25 26 26 27 27 30 32 35 35 39 42 45 47 50 52 53 55 57 60 62 64 67 64 61 66 66 66 61 67 69 65 60 69 68 76 76 74 69 68
18 18 18 18 19 21 22 23 26 28 30 31 34 36 39 41 45 46 48 50 52 54 55 57 59 63 67 69 67 69 71 71 69 67 71 69 63 59 61 62 61 75 73 68 69
21 21 22 21 22 22 22 24 26 27 30 33 35 37 40 42 42 44 44 47 49 51 55 57 61 63 66 73 73 73 76 73 72 72 71 69 68 62 59 61 59 62 64 66 69
22 23 24 25 24 23 23 24 26 28 29 31 35 36 40 42 41 43 44 45 46 48 50 52 46 55 61 65 72 76 77 75 77 76 73 71 71 66 61 59 57 56 55 49 53
23 25 26 27 26 27 27 28 30 32 32 33 35 37 39 41 43 42 43 44 42 41 41 42 33 38 44 53 60 70 74 80 81 80 76 72 73 69 64 61 57 52 47 43 42
24 25 27 29 30 30 30 31 34 34 37 36 38 40 42 42 44 44 44 40 34 32 34 28 30 28 30 33 33 45 59 48 74 81 80 74 77 68 64 61 54 47 40 37 38
27 27 29 30 31 32 32 33 35 35 37 39 39 41 42 42 43 45 38 34 29 22 24 27 29 29 22 23 21 27 35 43 45 44 66 76 68 64 61 54 48 45 40 38 36
30 30 30 31 32 33 33 33 35 35 37 39 39 41 39 41 40 35 27 24 21 20 20 15 16 20 23 28 23 18 23 30 44 49 63 70 52 64 55 51 47 42 41 39 37
30 31 32 32 33 34 34 35 34 34 34 37 40 37 37 42 32 28 23 22 22 16 18 18 15 18 18 24 23 23 19 30 34 40 46 47 43 60 53 45 46 43 38 37 36
33 31 32 33 34 34 35 35 36 36 36 37 36 33 36 30 27 22 19 18 18 16 15 16 16 16 14 18 20 24 29 20 34 26 38 40 52 55 54 55 27 37 40 37 40
34 32 30 32 33 33 35 34 36 34 34 35 35 30 27 22 20 19 17 18 18 15 13 12 13 13 12 18 17 21 25 24 33 27 26 32 39 55 50 43 34 35 37 42 43
32 35 32 30 31 32 33 33 33 36 35 34 31 29 20 24 20 18 17 17 15 11 11 15 14 11 13 7 8 24 18 23 24 28 17 24 32 46 51 48 43 26 24 25 24
33 35 33 29 30 31 32 33 32 35 34 31 27 27 14 19 17 16 14 17 17 13 11 13 15 14 13 14 11 16 20 27 26 26 26 24 18 45 53 44 51 46 33 30 21
34 34 31 27 28 30 32 33 33 35 35 31 27 20 10 16 20 16 18 19 20 16 13 16 14 13 11 14 15 16 18 22 23 30 37 21 15 36 49 36 49 39 40 33 32
34 30 25 24 28 31 31 33 33 34 32 32 26 6 8 16 21 23 24 25 24 18 19 19 19 19 19 19 14 17 16 19 22 39 29 36 25 33 40 47 47 44 35 37 30
30 28 24 26 29 33 30 32 32 31 31 28 12 6 11 15 16 21 26 29 26 24 21 18 10 24 22 23 25 23 21 18 21 27 36 39 32 44 48 48 46 40 43 37 33
28 24 25 27 30 32 30 30 30 30 30 16 7 9 15 19 24 25 27 24 19 14 16 21 11 15 22 22 21 21 25 24 20 22 30 44 51 50 53 52 47 49 47 42 37
30 27 27 29 30 32 27 27 28 25 23 8 5 12 15 19 23 27 26 22 19 17 17 20 13 7 10 16 21 17 18 23 16 21 27 44 42 48 51 50 48 48 49 44 39

GFSSW_500_spd_036.txt.gz
Wind_Speed
19 19 20 19 19 19 20 20 22 23 25 25 27 28 29 30 31 31 33 32 34 35 35 37 37 40 45 57 54 48 48 51 47 44 40 36 32 29 29 25 25 26 34 41 24
19 20 19 19 19 20 20 20 20 21 22 23 24 26 26 28 31 31 29 32 33 33 36 36 37 37 38 42 51 57 56 53 43 43 43 44 39 34 35 37 35 27 40 48 49
20 20 20 20 19 20 21 21 21 21 22 23 24 25 26 27 30 27 31 32 33 34 36 37 37 38 38 41 44 49 57 54 51 45 41 40 47 37 43 43 35 31 39 38 45
19 20 21 21 22 23 23 22 23 23 24 25 25 27 27 29 32 27 30 32 32 32 35 37 38 40 41 41 42 49 43 43 58 54 52 49 44 47 49 42 42 31 41 40 41
16 17 19 20 19 19 21 23 23 23 24 26 28 30 30 31 33 31 32 32 33 34 35 37 39 41 42 43 46 45 42 46 49 53 61 60 53 56 55 43 46 43 37 39 50
18 18 19 20 21 22 22 23 24 24 25 26 26 26 27 31 29 34 34 35 36 36 37 38 39 41 43 45 46 45 47 48 49 53 55 67 64 57 57 50 49 55 50 41 45
18 17 17 18 19 21 22 23 24 25 26 27 28 28 28 28 29 31 32 34 35 37 38 40 41 41 44 45 44 46 50 51 52 51 53 54 61 72 61 55 52 55 55 56 44
18 19 18 18 18 18 19 19 20 21 22 22 24 26 29 28 30 30 31 33 35 37 40 42 43 44 46 47 48 49 51 52 44 51 50 54 60 51 52 64 59 58 56 55 66
20 19 18 17 17 17 17 17 18 19 20 21 22 24 27 26 29 31 33 35 36 37 38 41 44 46 48 50 51 50 52 53 52 51 52 54 58 55 51 54 66 66 63 62 60
21 21 20 20 19 18 17 17 17 17 19 21 21 24 24 27 28 30 33 35 37 39 41 42 44 47 49 51 50 52 55 55 55 48 52 56 59 55 51 56 57 60 70 67 66
21 20 21 20 19 19 17 16 16 12 18 19 21 22 27 28 29 31 32 34 37 39 40 42 45 46 48 51 53 56 57 60 58 58 43 37 42 58 56 57 57 57 57 67 77
19 20 21 20 19 19 19 18 17 16 17 17 21 23 24 26 29 33 34 36 37 38 39 41 44 45 47 49 52 56 60 60 62 62 59 62 57 61 60 61 58 58 58 60 58
20 19 21 21 21 20 20 18 18 19 19 21 18 19 24 24 28 30 34 36 37 37 38 39 39 42 47 51 55 58 60 62 65 66 68 67 69 67 61 62 64 64 62 58 58
23 22 22 23 21 21 20 21 21 21 25 18 19 21 26 29 35 36 36 34 35 37 39 40 39 40 43 46 49 54 51 58 63 67 70 66 72 70 66 66 66 62 61 63 59
27 27 26 25 23 21 21 21 20 21 24 24 28 27 30 32 36 39 39 41 42 42 41 37 35 33 37 38 34 42 38 44 53 58 62 68 66 71 66 68 69 68 66 64 60
30 29 25 24 22 22 21 21 20 22 21 27 23 28 33 34 39 36 39 39 34 31 27 28 21 25 31 27 33 32 41 42 39 39 46 67 52 73 70 71 71 59 41 66 67
28 28 28 24 23 21 20 20 20 19 23 25 27 28 31 34 32 33 20 17 18 23 23 24 26 25 26 21 23 18 25 31 32 30 39 48 37 58 67 67 58 52 57 56 64
31 28 27 25 22 22 22 21 20 20 21 23 26 28 30 19 25 19 14 15 17 20 22 23 22 21 23 24 21 26 25 30 29 30 34 30 38 46 53 54 60 59 49 53 61
34 28 25 22 21 23 21 19 21 22 24 26 27 27 19 16 24 20 11 15 19 24 22 25 23 25 21 6 18 10 22 19 30 37 37 36 40 44 47 52 61 51 35 43 49
34 29 25 25 24 23 19 15 20 22 21 24 27 29 29 25 17 10 12 14 18 21 26 27 27 16 20 16 23 20 18 25 29 35 37 33 21 29 26 31 44 46 35 35 59
31 32 29 27 25 23 15 16 20 24 24 25 27 30 28 13 9 12 15 17 20 21 25 26 26 6 26 22 19 20 27 30 32 31 29 24 21 17 28 23 34 43 23 46 59
32 31 30 29 25 21 20 22 22 24 25 26 28 25 13 5 9 15 17 21 21 30 28 26 26 19 18 21 19 25 22 23 21 19 24 30 24 16 21 34 35 22 36 43 56
34 32 33 31 30 28 27 24 24 24 24 24 25 9 2 7 13 17 20 23 29 30 34 32 20 25 18 15 16 20 28 24 18 18 24 31 23 23 25 44 44 41 33 30 34
38 36 33 31 31 31 31 32 28 28 20 22 14 4 5 12 18 21 21 25 25 22 23 25 23 27 26 22 33 24 26 26 29 26 23 25 34 37 30 44 49 44 41 56 13
37 36 35 35 35 35 33 32 33 28 19 19 8 8 7 15 16 19 24 22 19 22 21 25 22 28 25 25 28 33 23 20 29 29 21 28 36 37 22 27 28 24 43 51 33
36 36 36 36 36 37 32 30 25 17 17 18 11 12 11 16 18 17 17 16 19 18 22 25 25 26 21 14 16 28 31 33 30 23 24 26 29 39 30 11 20 36 47 47 45
35 36 36 37 37 38 35 32 24 16 20 18 13 12 14 13 18 20 21 18 23 28 25 30 30 25 18 14 15 17 13 24 31 28 26 25 23 23 34 19 32 36 44 46 45

GFSSW_500_spd_039.txt.gz
Wind_Speed
20 20 20 20 21 21 22 22 21 21 22 24 26 29 32 32 30 29 30 30 33 35 37 38 39 38 38 39 57 49 54 59 49 50 38 36 46 47 33 35 37 23 30 31 33
19 20 20 20 19 20 21 21 22 22 20 20 20 23 26 27 27 28 29 31 32 33 35 38 39 39 37 37 44 58 57 51 48 44 49 38 42 49 47 39 37 39 30 41 40
18 19 21 22 22 21 19 19 20 20 21 21 21 21 22 25 24 25 25 28 30 32 34 36 38 41 40 40 41 45 47 54 51 47 42 37 42 48 55 56 42 40 44 44 48
19 17 17 19 20 22 24 23 22 22 22 22 22 23 24 24 25 24 24 27 28 30 33 37 39 40 41 42 42 43 41 42 51 58 55 49 45 51 51 57 54 41 42 43 39
18 18 18 18 18 18 19 21 21 20 21 22 24 25 27 29 27 24 27 28 29 30 32 35 38 41 42 43 44 43 41 45 45 49 50 60 55 48 53 51 52 45 45 43 32
18 18 18 17 17 19 20 21 22 23 24 24 24 25 25 27 26 25 32 31 31 32 33 35 36 39 41 42 43 43 47 47 46 47 48 51 58 60 56 50 60 50 49 50 48
20 19 18 17 16 17 18 18 19 20 21 22 23 23 24 25 26 27 27 30 32 33 34 37 38 39 40 40 41 43 47 48 46 47 46 50 56 57 60 60 61 50 53 58 52
20 19 18 17 17 16 16 15 17 18 19 20 20 21 22 23 25 26 27 28 30 32 34 37 39 41 42 43 43 45 47 47 43 44 47 47 52 47 48 50 65 63 49 57 59
19 19 18 18 16 15 15 14 15 15 16 15 16 18 20 21 23 26 27 29 31 32 34 36 38 40 43 45 46 47 48 49 46 46 49 48 51 46 45 49 52 52 62 56 59
23 22 19 18 19 18 16 15 13 13 13 12 13 17 16 17 18 22 26 29 32 34 36 38 40 41 42 44 44 47 49 51 49 48 49 47 52 48 47 50 52 51 52 64 63
24 23 22 20 19 19 18 17 16 14 15 13 12 15 15 16 18 20 22 25 29 33 36 38 41 43 42 44 47 49 51 54 52 56 59 58 59 54 56 55 54 54 55 57 55
25 22 22 22 20 19 19 18 18 15 17 13 16 18 16 17 19 21 23 25 29 31 34 36 39 41 45 47 49 50 53 54 55 57 60 59 62 58 58 59 60 59 56 58 58
30 26 24 21 22 21 21 20 18 18 17 16 18 13 16 17 20 22 25 26 28 31 34 37 37 39 42 45 48 49 52 56 59 58 61 63 65 61 57 59 59 57 59 58 57
28 30 28 27 27 25 21 21 20 19 19 18 13 17 18 20 23 26 26 29 30 33 35 35 36 39 41 43 44 49 45 50 54 57 61 57 68 63 57 60 60 60 61 59 58
27 27 24 24 23 23 22 19 19 18 21 21 17 17 19 21 25 28 33 36 37 39 39 32 30 31 37 43 46 50 50 52 57 61 62 62 68 63 61 64 62 62 64 61 59
30 29 24 22 20 23 21 19 18 18 21 23 21 21 22 26 28 31 32 36 35 30 20 22 24 29 32 28 27 37 43 49 50 53 60 62 59 67 65 63 62 66 66 64 61
29 29 26 22 20 21 22 21 21 15 17 24 22 22 22 25 30 24 27 20 16 21 16 17 22 24 32 32 34 31 27 29 36 43 55 47 43 62 62 61 61 63 66 66 63
28 29 28 24 23 21 20 20 20 17 16 21 22 22 22 25 24 24 28 22 13 21 24 24 22 25 32 28 23 25 28 28 20 26 29 31 40 52 54 59 66 63 63 60 64
31 29 30 29 28 26 23 20 19 17 18 20 20 22 24 24 32 29 31 24 16 21 22 28 25 24 27 20 21 13 16 16 23 24 28 24 26 32 26 39 46 57 61 55 54
35 31 29 28 28 28 25 18 16 20 19 20 23 24 26 29 27 18 9 13 17 22 26 29 30 21 28 24 26 26 21 22 24 30 36 32 25 23 26 34 40 49 47 50 55
36 34 32 30 30 30 27 25 25 25 23 21 21 23 26 23 6 6 11 15 23 25 29 32 28 19 24 23 22 27 23 31 31 34 34 37 29 27 27 33 33 44 47 42 48
34 34 33 32 32 33 34 31 28 28 31 27 22 22 18 3 4 10 14 22 26 27 28 23 29 25 19 17 22 24 30 29 34 33 28 31 29 23 31 33 30 30 41 50 55
34 33 33 33 32 34 35 30 28 30 27 25 18 19 6 5 9 15 17 21 26 26 28 25 26 31 22 17 22 26 26 30 24 28 31 32 31 26 30 33 29 35 54 56 55
35 34 33 33 33 36 35 31 26 24 23 17 17 14 8 7 14 16 15 18 23 17 20 23 20 23 25 24 28 26 29 30 31 29 28 25 25 21 31 37 24 38 41 44 36
35 34 34 34 34 36 38 33 28 23 22 20 15 14 11 11 13 15 19 14 16 22 21 28 33 36 40 32 28 26 18 35 34 30 33 24 30 28 31 31 12 44 43 43 31
34 35 35 33 33 34 36 36 31 26 25 19 18 14 15 17 17 14 13 17 13 19 22 25 26 28 30 29 28 16 18 20 26 30 24 19 18 23 35 30 16 32 40 46 25
34 35 34 35 33 34 35 37 33 29 24 25 18 16 14 16 16 17 17 21 19 18 21 26 35 34 34 29 18 16 18 17 19 23 27 20 20 23 32 32 5 20 37 32 37

GFSSW_500_spd_042.txt.gz
Wind_Speed
16 18 20 21 20 21 21 22 23 21 20 20 21 24 24 29 27 26 29 30 31 36 41 45 44 43 41 39 43 48 46 37 42 47 44 32 41 45 47 43 36 36 32 38 39
16 16 17 18 20 20 19 20 21 21 21 20 19 18 22 26 29 28 30 31 31 31 32 35 40 43 41 41 44 47 50 41 44 48 48 44 41 49 52 50 41 39 42 38 33
15 16 16 17 18 19 20 20 20 20 20 20 20 19 19 19 22 24 27 28 30 32 33 34 35 38 41 41 42 43 45 45 49 50 49 50 52 48 58 55 47 44 41 41 38
16 15 15 16 17 18 18 19 20 21 23 22 22 21 21 20 20 20 22 24 26 29 31 34 35 37 39 40 42 42 40 41 41 52 55 51 55 52 50 56 56 49 48 47 44
16 16 16 15 16 17 18 20 20 21 21 21 23 24 24 22 20 21 24 24 25 27 29 32 34 37 38 40 41 43 44 46 44 45 50 60 54 54 60 49 61 56 50 51 56
17 15 15 15 15 14 16 17 18 21 23 24 24 24 25 24 21 25 26 26 27 28 29 30 33 36 37 38 40 42 43 45 45 43 44 50 57 61 55 57 58 60 65 65 64
19 17 15 14 14 14 14 14 15 16 17 18 20 23 24 25 25 24 27 28 29 29 30 32 33 34 36 38 40 42 44 45 45 45 47 49 51 51 54 54 61 59 58 60 56
22 20 19 17 15 14 14 13 13 14 14 14 15 17 18 20 20 21 25 27 29 30 31 32 34 36 38 39 40 43 45 46 45 48 47 48 52 44 48 49 64 61 57 61 59
25 24 22 19 18 16 14 14 13 13 11 12 13 13 13 16 15 20 19 22 25 27 28 31 33 36 39 40 42 44 45 47 46 46 49 52 52 46 49 52 52 58 68 58 65
24 24 22 21 18 17 15 14 13 15 12 9 9 9 10 11 14 18 18 20 22 23 27 29 31 33 35 39 42 44 47 48 51 51 53 53 53 54 54 58 58 56 58 63 67
25 24 24 21 18 17 17 16 14 16 13 10 11 11 10 12 14 15 15 18 21 23 25 30 33 34 37 42 45 46 48 50 52 55 58 58 57 55 55 57 59 58 58 62 62
25 24 22 20 23 20 18 17 17 15 16 16 13 14 17 14 13 15 14 16 18 20 22 25 28 33 36 39 43 45 48 51 52 55 59 60 59 56 58 56 56 58 59 60 60
25 21 21 19 18 24 25 24 22 18 17 17 16 19 15 15 17 18 17 19 21 22 24 27 29 33 37 40 43 45 48 51 55 55 57 61 60 56 55 57 57 57 57 58 59
30 25 23 18 19 17 20 23 22 21 19 17 16 17 18 20 19 21 21 20 24 24 26 29 33 35 36 40 44 47 48 52 54 56 59 58 64 61 58 60 60 59 59 59 57
30 29 26 20 18 19 17 19 19 17 18 18 19 18 17 21 22 24 25 25 25 27 32 29 27 27 27 27 28 39 47 51 54 56 61 59 65 59 61 63 61 62 62 60 59
30 29 28 27 24 22 21 17 19 19 21 25 27 16 15 22 23 25 26 28 29 32 32 30 25 23 24 23 27 35 39 44 52 57 60 59 58 62 59 59 61 62 65 65 62
34 31 29 28 26 25 24 21 18 20 20 25 19 17 19 21 24 25 28 29 32 36 29 15 18 22 24 27 30 39 35 40 42 42 49 53 58 60 59 59 64 65 65 67 65
35 34 33 31 27 25 26 24 21 21 21 19 14 18 22 22 24 26 28 28 31 29 12 14 18 23 23 27 32 31 25 25 27 27 26 22 41 49 48 53 60 63 64 62 65
32 32 32 32 30 30 33 30 24 21 21 20 18 19 18 24 24 25 27 27 22 13 16 21 25 24 24 26 30 29 24 17 26 26 25 20 18 17 29 31 43 54 63 63 62
34 32 33 32 29 31 35 31 24 21 20 22 26 23 19 17 24 26 20 18 14 15 20 25 31 23 22 24 24 30 30 31 27 28 31 30 28 27 31 32 35 43 53 61 56
33 33 32 32 30 31 35 31 26 22 20 20 19 18 18 19 17 7 8 11 15 17 21 26 29 24 20 17 25 26 32 32 35 39 33 37 33 34 30 33 36 40 46 53 55
32 33 33 32 31 32 33 35 27 23 21 20 19 13 15 15 8 7 11 18 17 20 19 17 17 18 16 15 23 27 28 33 36 36 41 39 37 35 26 24 28 34 42 48 49
32 33 33 32 31 32 32 33 32 26 23 18 18 17 17 9 10 9 13 17 20 18 16 16 24 31 23 23 29 31 30 27 28 34 33 38 26 25 26 31 29 32 38 45 50
32 33 34 33 32 31 31 33 32 31 26 20 17 17 15 13 14 9 12 15 19 15 18 22 18 23 29 32 33 31 24 25 31 37 37 35 34 21 25 33 27 29 24 28 36
32 32 33 33 34 32 32 31 33 31 30 26 20 20 17 17 18 15 12 14 18 19 19 22 23 27 28 30 34 28 19 19 25 29 34 25 28 24 28 29 27 27 23 28 38
32 33 33 32 32 33 32 33 32 33 33 29 25 21 21 17 21 19 20 18 16 21 18 19 23 25 19 26 28 20 16 19 24 21 25 32 27 23 24 21 26 27 5 23 41
29 31 35 34 33 33 34 33 34 34 34 33 30 24 22 21 19 22 22 17 19 20 20 20 22 27 23 25 28 22 16 18 15 16 20 26 25 25 18 15 19 26 16 32 17

GFSSW_500_spd_045.txt.gz
Wind_Speed
17 18 18 19 21 23 23 23 23 24 24 22 22 22 24 26 27 29 34 32 28 36 43 46 44 43 41 40 37 37 45 42 39 53 38 36 37 45 51 38 42 47 48 43 37
15 16 17 18 19 20 22 22 23 24 24 23 22 21 20 21 24 27 30 34 30 29 36 43 45 45 46 44 43 37 38 36 37 46 48 46 42 44 53 42 44 48 48 46 43
15 15 15 16 17 19 20 21 23 24 24 23 23 22 22 21 21 23 27 29 33 30 31 33 38 42 46 47 47 43 38 43 41 47 44 47 51 41 51 50 45 52 48 47 46
16 15 15 16 16 16 18 20 21 22 23 25 25 24 22 22 23 23 23 26 29 28 30 32 33 35 36 40 45 48 48 47 47 45 48 47 49 56 45 51 48 51 55 52 48
20 17 15 15 15 16 17 17 18 19 22 23 23 25 25 24 24 26 24 24 27 27 26 28 31 33 36 37 38 44 47 48 47 46 48 52 53 52 62 48 55 51 56 60 56
23 20 17 16 15 15 15 16 17 17 18 20 23 25 25 25 26 26 27 27 27 27 27 28 30 31 34 35 38 39 40 44 46 45 43 45 47 58 44 54 53 56 55 57 60
23 22 21 17 16 16 15 15 15 16 16 17 19 20 23 27 26 25 29 29 29 30 30 31 31 32 33 35 37 39 42 44 46 47 49 49 48 44 50 57 54 54 55 54 60
22 20 19 21 21 18 17 16 14 14 14 15 17 17 19 18 19 24 27 30 30 30 31 33 34 35 36 36 38 40 42 43 46 48 48 49 44 43 46 60 70 59 58 55 56
20 21 18 19 20 20 18 17 15 14 13 14 14 15 15 13 14 19 19 22 24 27 29 31 33 35 36 38 40 42 43 45 45 48 49 47 47 48 50 55 60 72 66 62 62
24 20 18 18 18 17 17 17 17 16 14 13 12 13 12 12 16 16 15 19 20 22 23 26 28 31 34 36 39 42 45 48 49 49 50 50 51 51 52 54 57 57 71 77 74
25 21 15 18 16 19 18 17 16 18 15 15 13 15 14 14 15 15 17 19 20 20 22 23 24 26 29 32 34 37 40 44 47 50 54 55 53 53 54 56 58 58 60 67 72
29 25 25 20 17 16 21 22 19 18 18 18 16 18 18 16 20 18 17 19 19 20 20 22 23 24 26 29 32 35 39 43 45 49 53 55 54 55 56 56 58 59 60 60 61
30 28 28 26 19 19 18 19 26 27 25 21 20 20 20 20 18 18 19 20 21 20 21 22 24 26 28 31 33 35 38 40 44 48 52 57 56 55 55 59 59 60 61 62 63
31 30 29 28 26 21 18 17 19 20 20 22 22 21 18 19 22 23 23 22 24 23 23 25 25 26 29 32 36 39 40 43 46 49 51 52 61 57 57 59 60 60 63 64 63
35 32 31 29 25 26 24 21 18 17 21 21 23 21 21 24 24 28 23 23 23 25 24 23 23 26 27 28 31 35 39 40 43 49 55 53 60 58 58 62 62 62 62 65 66
33 33 33 31 29 27 29 28 23 18 20 24 26 23 24 27 24 23 22 23 22 24 26 24 26 19 17 20 24 29 32 34 37 41 53 54 58 61 58 60 62 63 67 68 67
32 32 32 31 30 27 31 35 26 19 17 19 20 17 19 19 20 19 20 22 24 26 26 22 15 15 17 24 30 33 35 39 42 40 41 45 53 58 61 63 65 65 66 69 70
31 32 31 30 31 31 31 35 27 22 18 16 18 18 26 25 21 19 21 24 27 28 22 11 12 14 19 27 32 31 33 37 42 41 39 31 44 47 53 62 66 67 68 67 69
31 32 31 31 30 31 31 33 30 22 18 14 17 16 22 25 23 21 22 26 29 23 17 14 15 18 20 27 30 31 35 35 38 40 44 35 27 27 30 38 45 52 61 68 67
32 31 33 31 31 30 31 32 32 24 19 17 18 21 23 21 23 23 22 27 27 15 13 17 20 19 19 23 24 33 34 37 39 41 43 39 35 30 30 30 30 29 37 54 66
33 32 31 32 30 31 30 30 31 29 22 19 19 18 16 14 19 23 20 17 15 13 18 21 20 15 14 18 28 27 34 39 41 43 46 47 44 32 37 35 35 39 38 42 52
32 32 30 31 29 30 30 29 29 29 27 23 20 19 17 18 19 16 14 14 15 17 16 19 19 16 18 20 23 26 29 31 43 45 45 47 45 31 34 37 42 38 29 38 46
31 31 30 29 29 29 30 31 29 28 28 25 23 23 20 20 18 18 20 19 17 16 15 17 18 22 16 22 25 25 29 30 31 37 41 43 36 29 19 22 24 27 32 29 40
32 31 31 30 30 28 29 30 31 31 30 28 28 25 21 21 21 20 22 19 19 19 18 17 14 19 23 28 27 27 29 28 26 34 40 40 37 26 18 24 24 26 30 28 34
33 32 31 30 30 30 30 31 30 32 33 32 29 30 28 23 21 20 26 25 21 22 22 20 17 22 19 28 27 25 27 23 22 23 30 27 23 17 16 19 21 26 27 27 26
33 33 34 32 30 31 32 31 33 33 34 35 33 29 30 28 23 18 28 30 23 24 23 22 22 23 15 25 25 23 23 23 22 22 25 23 21 21 22 16 16 24 23 34 30
30 31 33 35 35 34 35 35 35 36 35 37 37 33 30 28 27 23 23 25 27 25 25 24 26 27 22 24 24 21 23 26 20 22 26 29 25 20 17 19 15 13 20 15 10

GFSSW_500_spd_048.txt.gz
Wind_Speed
17 18 20 20 20 20 21 23 26 26 26 26 26 24 25 25 26 28 30 31 31 32 32 32 36 47 51 45 42 47 51 55 51 45 52 44 51 40 46 48 49 49 49 48 46
18 16 15 17 18 19 20 20 22 25 26 26 25 24 25 25 24 25 27 30 30 32 33 30 31 40 50 49 47 43 44 39 49 50 49 56 56 41 42 48 52 50 48 47 46
21 19 16 15 16 17 17 19 20 21 25 27 26 25 26 25 26 24 26 28 31 32 33 32 29 31 45 50 45 45 43 38 37 40 45 51 50 47 44 43 51 47 48 47 51
21 19 18 16 16 15 16 18 18 18 20 23 27 27 26 25 27 26 25 25 27 31 29 30 31 30 36 45 48 48 46 44 43 42 39 37 50 56 49 43 47 48 47 50 47
22 19 18 17 15 15 15 15 16 17 19 19 22 25 28 29 28 26 27 27 26 27 28 29 34 33 34 37 41 45 48 49 48 46 43 39 43 52 58 45 44 47 50 51 52
21 20 18 18 16 15 15 16 15 15 17 19 19 20 24 27 27 27 29 29 28 27 28 29 32 32 34 37 38 41 44 46 48 46 45 41 42 40 47 58 46 48 50 52 52
21 20 18 18 18 18 17 16 17 16 15 14 18 19 20 21 25 28 30 31 30 30 30 30 30 31 32 35 37 39 40 42 42 44 47 44 44 46 44 54 63 54 49 52 54
25 21 18 17 17 20 19 19 18 17 15 14 15 16 18 17 20 23 28 29 30 31 32 33 33 33 33 34 36 37 38 39 40 41 42 45 44 47 48 51 53 63 60 54 56
26 25 18 16 17 19 20 17 18 18 17 16 15 15 13 16 17 19 21 24 27 30 32 34 35 36 36 36 37 37 38 38 40 42 42 42 45 46 47 49 52 51 70 64 57
31 26 22 20 20 18 18 20 17 17 18 18 17 15 13 14 15 15 19 21 22 23 25 28 32 35 36 38 39 40 40 41 41 43 42 42 45 46 46 47 49 53 58 76 68
30 29 28 25 21 18 19 19 22 19 16 18 19 19 17 15 16 14 16 18 19 20 22 24 25 29 32 34 35 37 39 41 43 45 46 46 46 47 46 48 49 51 53 63 74
36 33 29 26 26 23 20 20 19 22 24 22 21 21 21 20 20 19 21 20 18 19 20 21 23 25 27 30 31 33 35 37 38 41 44 46 47 48 49 49 50 52 54 55 60
35 36 35 31 26 25 24 24 20 18 21 25 27 26 24 23 23 24 23 21 20 21 22 22 21 22 22 24 26 28 30 32 35 36 40 45 47 46 49 50 53 55 55 57 59
34 35 34 33 30 25 26 29 26 21 20 21 22 22 23 24 24 24 23 21 23 23 23 23 23 23 24 25 26 28 31 34 36 38 40 44 50 44 50 53 54 56 59 59 59
33 33 34 33 31 30 29 30 31 22 20 20 21 22 23 24 25 24 23 23 23 23 22 25 24 25 25 27 30 30 31 34 38 42 46 45 51 48 48 52 56 59 60 61 63
33 32 33 32 32 31 31 31 32 24 18 18 16 18 21 24 27 27 25 24 24 25 23 19 24 25 25 26 26 28 29 31 37 42 48 48 52 52 52 55 57 58 62 65 66
32 32 32 33 31 31 31 32 31 26 21 19 17 14 11 14 19 21 24 24 25 26 23 22 23 23 21 21 22 23 25 32 35 32 34 38 48 55 58 60 62 62 62 65 70
31 32 32 31 31 30 30 31 30 29 24 20 21 20 16 15 20 24 24 25 26 26 24 23 20 19 15 17 18 20 27 30 33 34 28 32 34 23 35 48 53 64 66 66 67
32 32 31 30 30 29 29 29 29 28 27 23 22 22 22 21 24 25 25 26 26 27 27 25 16 14 13 16 21 26 29 30 33 34 37 34 37 30 29 33 38 37 48 54 63
31 32 31 30 30 29 27 27 28 28 27 26 23 21 22 22 23 22 21 24 27 29 22 21 19 13 14 19 23 25 26 32 34 37 41 40 39 36 29 32 36 36 34 31 32
29 30 30 29 29 29 27 27 27 27 27 27 25 23 21 22 23 24 25 26 27 18 15 18 19 15 16 16 19 23 27 29 35 40 44 48 34 39 31 31 36 39 41 39 38
30 30 30 29 28 29 28 27 27 28 27 27 27 26 25 23 22 23 25 23 22 18 17 20 22 18 16 18 22 22 25 30 32 36 42 46 32 32 29 32 32 35 38 40 41
32 30 29 29 28 29 29 29 29 28 30 29 29 27 26 26 28 22 23 23 25 21 22 18 19 20 14 19 23 24 26 27 32 36 38 40 27 30 33 33 32 33 31 35 36
32 33 32 31 30 29 29 29 30 31 31 32 30 30 30 25 25 26 22 26 29 26 26 20 17 20 24 20 26 23 23 26 32 33 33 34 30 26 28 31 27 26 26 25 29
30 33 35 36 36 34 32 32 33 33 34 36 34 33 31 30 29 23 27 24 26 31 28 26 20 22 19 19 27 26 27 27 31 30 31 25 34 28 29 22 23 16 22 21 23
27 32 35 36 38 36 36 36 37 37 38 38 40 37 34 31 32 27 26 27 25 29 32 32 26 24 21 22 29 28 27 32 30 33 33 34 36 36 31 27 26 24 24 21 19
26 28 33 35 39 39 38 39 41 43 42 44 43 42 36 34 31 30 30 25 25 24 29 33 29 28 27 24 31 31 29 32 34 35 35 37 38 37 36 31 27 30 24 21 21

GFSSW_500_spd_051.txt.gz
Wind_Speed
22 20 19 17 17 19 19 19 20 22 24 27 28 29 29 28 28 27 27 28 28 29 29 29 32 34 35 42 50 51 53 52 54 50 48 51 59 61 45 44 50 51 48 47 43
24 20 18 17 16 15 16 18 18 19 20 23 26 28 28 28 28 27 26 26 28 28 29 30 31 33 36 35 46 50 53 49 46 52 51 52 52 68 51 45 46 53 49 47 48
22 20 18 17 16 15 15 15 16 17 19 20 23 27 28 29 29 27 27 26 26 28 29 30 32 34 35 36 39 46 53 49 44 39 49 55 55 64 68 46 47 49 48 48 51
20 16 17 17 16 15 13 14 15 16 18 18 20 23 26 28 28 28 28 28 27 26 28 31 33 34 36 36 38 40 42 53 49 39 46 41 53 58 74 49 47 50 47 46 52
28 20 16 15 16 15 14 14 14 14 15 17 19 19 23 26 29 29 29 29 29 27 27 28 32 33 35 34 35 37 36 39 47 45 43 41 37 57 57 61 49 53 47 44 49
28 27 22 15 14 15 16 15 15 15 15 14 17 18 19 22 24 28 31 31 29 29 29 28 29 32 32 32 38 37 34 35 41 48 47 46 38 44 46 68 55 58 48 48 48
28 26 23 17 13 15 16 20 19 18 16 15 14 15 17 19 21 27 28 30 32 32 31 31 30 30 31 33 36 38 37 37 38 45 49 48 45 46 44 56 65 62 60 50 52
30 29 28 21 16 15 16 18 21 20 18 17 15 14 14 16 20 21 24 28 30 32 33 33 33 32 32 33 33 35 36 37 37 40 44 43 44 45 47 44 49 66 65 55 53
34 31 28 27 25 17 17 18 17 18 19 20 18 16 15 16 16 19 21 24 26 30 32 33 34 34 34 34 34 35 36 35 37 39 40 38 40 41 45 45 43 41 67 63 56
35 35 32 28 26 25 18 18 16 17 20 20 19 18 17 16 16 16 18 19 21 24 26 30 33 36 36 36 37 37 37 37 37 39 39 40 39 38 40 44 48 45 47 67 65
33 34 33 32 27 24 24 22 21 17 17 23 20 17 18 19 19 18 17 16 17 20 21 23 26 30 33 36 38 39 40 40 40 40 40 41 41 39 39 42 44 47 48 51 65
31 32 33 32 30 27 25 25 26 24 17 15 22 24 24 22 22 22 22 22 21 21 20 20 23 25 27 29 31 33 35 36 38 38 39 40 40 42 42 43 44 45 48 50 52
31 31 32 32 31 29 27 26 26 29 22 19 18 19 20 23 25 25 24 24 23 21 20 21 21 22 23 25 27 29 31 34 35 36 36 37 37 36 38 41 45 47 47 49 53
31 31 30 30 31 30 29 28 27 29 25 22 18 15 16 18 20 23 25 24 24 23 22 22 23 23 23 24 25 27 28 29 30 31 31 33 38 34 35 36 43 46 48 51 55
30 31 31 29 30 29 29 29 29 28 27 24 20 19 18 17 20 22 24 23 24 25 23 25 23 23 24 26 27 28 30 30 32 34 36 36 42 40 37 38 41 44 47 51 53
29 30 30 28 28 28 27 28 28 28 26 23 20 20 19 19 17 18 20 24 27 29 25 22 26 25 26 27 28 29 31 33 34 35 37 37 41 41 42 46 47 48 49 51 54
29 29 29 28 27 26 26 26 27 26 26 25 23 19 19 19 19 19 19 22 23 27 26 25 28 27 27 28 29 29 28 31 32 32 31 33 41 41 37 45 49 53 56 58 58
27 28 28 28 27 26 25 24 25 25 25 24 23 21 17 16 17 21 23 25 25 26 28 28 25 24 25 24 26 25 26 28 33 29 24 25 31 25 26 35 37 43 48 58 64
27 27 27 27 26 26 26 25 23 24 24 24 23 21 20 19 20 21 23 25 27 25 27 28 26 23 25 27 25 25 26 27 27 27 27 26 23 21 28 35 37 42 46 48 48
28 28 27 28 27 26 27 27 25 23 24 24 24 23 22 21 20 22 22 23 22 24 24 26 28 22 22 24 24 27 23 23 23 27 29 26 26 28 34 39 38 40 44 46 49
28 29 28 28 29 27 27 28 28 27 25 25 26 26 25 24 22 22 24 25 25 25 25 24 25 15 21 20 24 25 23 22 24 26 30 30 30 36 36 29 31 35 45 50 50
27 28 28 29 30 29 27 27 28 29 30 28 27 28 27 27 27 25 23 26 25 23 22 21 20 18 18 23 22 24 23 24 26 30 31 32 29 33 33 33 38 43 48 54 50
27 27 28 29 30 30 29 29 27 29 32 33 32 31 32 30 30 29 26 28 28 23 25 24 24 19 17 19 20 23 23 26 30 31 32 33 30 34 28 32 36 39 40 44 48
27 28 28 29 32 32 30 30 31 31 33 36 37 37 36 35 34 33 30 30 28 27 26 31 27 21 17 16 22 24 26 26 30 34 31 37 34 31 35 40 40 39 37 40 34
30 28 30 31 33 34 33 34 35 35 37 40 41 41 41 38 35 36 32 30 29 27 26 29 31 27 21 19 21 25 26 23 31 33 39 36 41 37 41 48 37 38 36 32 33
35 31 29 31 33 34 36 36 37 38 40 43 46 48 45 39 36 33 34 29 26 29 29 28 29 28 25 22 27 30 28 28 31 35 41 44 45 43 45 46 42 44 38 34 37
32 29 30 31 33 34 34 36 39 42 43 49 53 52 43 35 32 28 25 25 27 23 26 26 23 25 26 27 32 30 27 30 34 36 39 42 43 44 47 48 53 45 44 41 40

GFSSW_500_spd_054.txt.gz
Wind_Speed
22 20 19 19 17 17 17 17 18 19 20 22 26 30 31 32 32 32 32 31 30 31 30 28 27 28 32 34 37 45 55 58 58 55 52 50 46 61 58 46 45 46 43 44 46
22 16 14 16 17 16 15 15 15 17 19 20 22 24 27 30 31 32 31 31 29 29 30 30 31 30 32 36 38 39 45 51 52 52 50 50 50 52 66 49 44 46 47 45 44
28 21 13 12 15 16 15 14 14 15 16 19 21 21 23 26 29 30 30 31 30 29 28 31 31 33 35 35 39 38 41 39 50 52 52 50 55 55 49 66 42 49 49 47 49
28 28 20 13 12 14 15 15 14 13 14 16 18 20 22 23 28 28 30 31 31 30 29 29 30 32 34 36 38 36 38 42 39 45 50 49 48 56 57 60 59 49 51 49 51
30 29 24 19 10 11 15 16 16 15 14 14 15 18 21 22 25 26 29 30 31 31 30 29 29 31 34 36 37 36 38 38 41 41 43 51 46 45 57 59 64 54 55 52 52
33 28 27 20 13 10 11 15 17 17 17 16 16 16 19 22 23 26 27 29 31 31 31 31 30 30 32 35 35 38 37 35 39 40 40 50 48 48 45 56 54 70 59 57 55
34 31 26 25 20 12 11 12 11 19 22 19 18 17 17 18 21 24 25 28 29 32 33 32 32 32 31 33 35 36 36 36 35 39 39 41 46 47 50 48 42 64 77 70 59
32 31 29 25 24 18 13 11 13 17 17 20 20 19 18 18 18 21 24 25 28 30 32 35 34 33 33 32 33 35 34 35 39 39 40 37 38 47 51 51 45 54 74 69 66
30 30 29 27 24 22 21 16 15 14 13 17 19 21 21 20 19 19 20 23 25 28 30 33 35 36 35 34 34 34 34 35 40 35 39 37 37 44 44 48 46 45 51 61 69
30 29 29 26 25 24 21 19 18 19 14 14 18 20 22 22 20 19 18 18 22 22 25 28 32 34 36 35 33 40 35 37 36 38 37 38 37 39 38 41 44 43 49 38 72
30 30 27 27 25 23 22 22 21 23 18 15 15 21 22 21 22 20 19 19 19 19 21 23 25 28 33 34 37 39 38 39 39 40 39 39 38 37 37 40 40 40 44 46 63
28 28 29 26 26 24 23 22 22 21 20 17 14 15 20 26 25 24 22 22 22 22 21 22 25 27 28 28 30 32 35 37 40 41 42 42 40 37 37 39 40 40 40 43 45
26 27 27 26 26 25 24 25 23 21 20 20 17 14 13 16 20 24 26 27 26 25 25 24 27 25 25 26 27 29 31 34 33 36 36 38 37 38 38 40 41 41 41 43 45
25 25 26 26 25 25 24 24 24 23 21 23 20 16 14 14 16 18 21 24 26 26 27 25 27 25 25 26 27 27 31 30 30 30 31 33 33 33 33 35 38 40 42 45 48
23 24 24 25 25 24 24 23 23 24 24 23 22 18 15 15 15 17 19 20 23 26 26 26 27 26 26 29 30 28 29 29 29 29 28 28 31 29 28 31 35 38 40 43 46
23 24 24 24 24 24 24 23 24 23 22 21 21 20 19 17 17 17 18 20 20 21 24 26 30 29 27 30 31 32 31 31 31 31 32 32 33 34 35 34 37 39 41 43 46
24 24 24 23 23 24 23 22 23 21 22 22 21 20 19 19 19 17 18 21 22 25 26 26 30 34 32 31 30 31 32 29 27 29 23 36 33 34 34 32 37 42 46 49 49
24 25 25 23 23 23 23 23 22 21 21 22 21 21 20 21 21 20 21 22 25 29 29 31 29 30 29 29 30 30 33 31 27 17 18 33 33 32 28 31 32 35 39 46 50
26 24 26 25 24 23 24 24 24 23 22 23 23 22 23 22 23 23 22 23 24 26 25 25 27 32 30 32 31 31 32 34 35 32 32 30 26 26 28 28 33 36 39 41 45
30 26 24 26 25 25 25 25 25 24 24 23 24 23 25 26 25 26 27 28 26 25 24 25 27 28 28 29 31 35 32 31 29 30 25 23 21 21 26 29 33 38 41 44 46
32 30 26 25 25 26 26 26 27 27 26 26 26 26 26 28 29 28 31 30 29 28 25 27 29 27 29 28 29 31 35 29 31 30 28 26 21 26 26 30 31 33 37 38 41
33 34 28 27 26 27 28 27 26 28 29 29 30 31 31 31 32 32 32 33 32 31 28 26 25 21 18 21 28 29 28 29 29 28 29 31 22 25 23 30 31 31 32 34 37
31 31 30 28 27 26 28 28 27 27 30 33 34 36 38 36 37 33 36 36 33 32 27 20 21 22 17 20 23 26 28 30 32 33 31 33 25 29 31 33 33 36 40 42 44
31 32 29 27 26 26 28 28 30 30 32 36 38 42 43 42 38 36 37 38 31 29 29 24 23 24 24 19 16 23 26 29 29 34 32 35 33 34 34 35 43 42 42 47 52
31 32 32 31 27 26 28 31 31 33 35 38 43 45 45 42 38 35 34 32 31 29 27 24 21 23 24 27 28 28 27 27 30 31 36 33 39 39 39 44 45 45 47 48 52
32 32 31 30 29 29 29 31 31 33 36 39 43 45 42 36 30 23 24 21 20 20 18 18 21 21 21 24 30 32 28 26 29 31 37 40 43 42 44 47 46 46 51 54 55
29 30 31 30 28 28 29 29 32 34 36 40 42 38 34 29 24 19 15 14 13 12 16 18 19 20 18 18 27 35 28 29 31 34 38 42 42 43 45 45 46 48 54 57 63

GFSSW_500_spd_057.txt.gz
Wind_Speed
27 23 14 12 14 15 15 15 15 18 19 21 22 25 28 30 32 34 35 33 34 34 33 34 34 33 32 31 31 29 40 51 54 40 39 34 36 51 52 57 47 43 43 53 38
27 27 19 10 10 13 15 14 14 14 17 19 20 22 23 26 30 33 33 34 34 34 34 33 34 34 33 32 33 34 35 34 43 39 39 39 40 54 51 53 58 47 42 41 42
27 26 23 15 10 12 14 15 13 13 13 15 18 21 22 24 27 28 31 33 33 33 33 33 34 35 35 35 34 34 34 31 31 35 38 41 37 44 52 59 48 44 41 50 41
30 25 25 21 13 9 11 14 15 14 14 14 15 17 19 22 27 23 28 31 32 32 32 32 32 34 36 37 37 38 35 36 36 32 39 55 56 56 39 46 57 57 53 51 45
28 27 24 25 17 10 7 11 14 15 15 15 16 17 18 20 26 22 26 28 30 32 33 33 33 33 34 36 38 40 38 37 42 42 46 45 43 53 57 62 58 54 52 59 47
27 27 24 23 22 13 9 9 9 15 17 18 18 18 18 20 20 22 24 25 28 31 32 34 35 34 33 37 36 37 40 42 42 38 41 44 43 46 53 59 59 63 55 52 63
26 25 24 22 21 21 16 11 7 7 11 16 22 22 20 20 20 20 21 24 26 28 32 33 32 33 36 34 37 37 35 39 42 39 41 41 44 45 45 51 55 64 47 60 48
25 24 23 22 21 19 18 16 11 9 13 15 19 23 23 22 21 19 19 22 25 27 30 31 35 35 34 37 33 34 35 37 37 40 43 43 39 37 43 49 60 54 43 55 53
24 24 22 22 21 19 17 16 15 15 12 11 14 20 23 22 23 21 20 21 21 25 27 29 32 35 37 36 34 35 34 32 30 44 40 41 38 37 48 45 48 50 53 47 47
22 23 23 21 21 20 18 16 15 15 15 14 14 17 21 23 23 22 22 21 20 21 25 27 28 31 35 36 35 21 28 33 30 31 38 39 36 36 48 42 42 48 49 52 52
22 22 22 22 20 19 19 18 17 17 16 14 14 14 16 20 23 22 21 21 21 21 22 23 25 26 27 30 39 43 40 33 24 35 44 38 37 38 41 41 40 40 43 47 53
22 21 21 22 21 20 19 18 18 18 16 16 16 14 13 14 19 23 25 24 22 21 23 23 22 24 31 32 30 33 38 41 41 44 48 44 41 39 40 38 39 39 39 42 47
21 21 20 21 21 21 19 17 17 18 17 18 18 16 15 13 13 18 21 26 29 28 27 26 20 33 26 29 29 29 31 33 35 41 44 38 42 40 40 43 41 40 39 41 44
21 22 21 20 20 21 21 19 18 18 19 18 19 18 17 14 11 14 18 21 23 25 27 31 26 34 29 29 31 29 29 34 36 35 32 33 35 29 34 37 40 42 44 43 44
21 21 21 20 19 19 20 21 20 19 18 22 20 19 20 19 19 13 15 18 20 23 24 23 24 36 30 29 32 33 34 35 30 31 31 29 34 25 29 30 33 36 39 41 43
23 22 21 21 19 19 19 19 21 21 18 21 21 21 20 19 19 22 17 17 19 22 24 25 27 29 30 31 36 37 35 34 32 30 33 28 27 20 19 27 32 35 33 35 38
24 23 24 22 21 20 19 20 22 19 19 22 23 22 22 21 25 23 22 23 21 20 23 22 25 29 30 32 36 37 34 31 23 24 29 21 28 24 28 35 31 35 38 38 39
22 24 25 24 22 20 20 20 20 21 20 23 22 22 23 24 24 25 23 25 20 23 29 26 27 25 32 34 31 30 23 27 23 24 21 16 26 19 28 39 33 35 37 39 40
22 23 26 24 23 21 20 20 21 23 22 22 24 24 25 27 27 27 27 26 24 27 28 29 25 31 35 39 38 27 31 25 35 35 37 34 32 25 34 31 31 32 36 38 40
24 22 24 25 23 21 21 21 22 23 23 23 23 24 24 24 23 28 24 28 37 33 30 30 31 26 32 35 34 34 31 28 27 28 29 24 23 23 31 26 35 36 37 38 39
25 23 22 24 23 21 21 22 24 26 25 24 24 26 27 30 33 27 30 30 37 41 37 30 29 26 25 32 32 26 30 35 31 28 21 21 19 27 25 19 34 33 33 35 37
25 26 22 24 25 21 20 21 24 26 27 26 27 28 31 34 37 37 31 33 37 40 40 29 29 28 24 22 22 27 30 28 27 27 30 28 33 25 30 38 41 30 33 34 34
24 24 25 24 23 25 23 22 23 26 27 29 32 34 37 41 44 40 29 36 36 37 41 29 27 19 17 15 21 23 22 28 28 33 34 33 27 21 31 34 33 29 32 34 40
26 26 22 21 23 22 21 22 25 25 26 28 31 36 39 40 38 35 27 32 25 30 33 29 27 26 24 17 24 22 21 25 29 33 32 36 36 33 34 34 36 38 37 41 43
27 25 23 23 25 22 21 21 23 24 26 31 32 38 40 35 32 26 22 25 26 23 20 24 21 22 22 23 32 31 25 17 31 35 36 35 39 35 36 35 37 40 45 52 53
28 27 23 21 24 24 21 20 20 24 27 29 33 35 32 28 29 24 18 14 10 11 21 15 9 14 16 18 22 28 41 35 34 32 34 37 41 34 35 40 40 43 51 56 53
29 27 25 24 23 22 21 22 20 23 26 28 32 32 29 25 25 20 15 12 8 8 10 10 12 15 16 16 21 23 22 29 30 32 32 37 36 36 41 46 53 52 53 56 58

GFSSW_500_spd_060.txt.gz
Wind_Speed
26 29 28 23 10 10 9 10 11 13 17 19 21 23 24 27 30 32 34 34 35 35 35 35 33 34 36 35 35 34 36 34 34 42 36 31 26 31 42 34 49 50 49 46 60
26 27 30 26 16 9 9 9 9 10 12 15 18 19 21 23 26 28 30 32 33 33 34 34 34 35 35 34 35 37 38 33 28 32 39 29 30 25 45 56 54 42 64 52 46
25 25 27 30 23 11 8 9 10 10 10 11 13 16 19 20 23 23 27 30 32 33 34 33 34 35 35 36 36 37 36 32 30 27 32 41 35 30 41 44 53 51 50 58 51
24 23 24 26 26 20 7 7 9 11 11 11 12 13 15 18 23 17 24 26 29 32 34 34 34 35 36 37 37 40 38 36 34 33 28 42 39 36 38 45 29 33 46 55 61
22 22 22 22 24 22 16 9 8 11 13 14 14 14 14 16 20 14 22 24 27 29 32 33 34 34 36 38 39 41 40 40 39 38 37 36 46 50 42 51 31 39 42 48 56
22 21 21 20 20 21 21 15 11 9 11 14 17 18 18 18 16 17 17 21 23 27 31 33 34 39 38 37 38 41 43 43 44 45 45 45 47 45 49 59 54 42 56 53 43
22 21 20 19 18 17 18 17 17 10 10 14 17 18 20 22 19 15 17 18 20 24 27 32 36 35 35 37 38 38 42 44 41 42 45 45 45 44 40 47 51 58 59 63 59
20 21 19 19 17 15 14 14 15 14 12 12 16 18 22 21 21 20 17 17 17 20 25 27 30 35 36 37 39 38 38 40 38 41 42 47 46 44 41 42 43 49 51 52 62
20 19 19 18 16 16 14 13 12 13 13 14 15 16 17 19 21 21 21 20 18 19 21 26 27 30 34 37 38 37 38 38 35 35 37 44 49 43 41 41 43 49 50 47 49
18 18 18 18 17 16 15 14 13 13 13 14 14 15 14 14 19 22 23 23 21 20 21 22 25 28 30 34 36 35 29 29 32 27 36 38 46 41 39 42 48 43 44 44 49
19 17 17 17 17 16 15 15 14 15 15 15 14 13 14 14 11 18 22 23 24 24 22 23 23 25 26 28 32 33 30 35 22 19 33 45 41 40 40 42 46 43 44 43 48
20 18 17 18 17 16 15 15 16 16 15 14 15 15 14 13 12 11 17 21 25 25 25 24 25 19 23 24 24 38 40 41 40 32 41 40 47 40 39 42 42 42 42 40 43
20 20 18 17 18 16 15 15 15 15 15 13 16 14 16 16 15 12 11 15 22 25 29 30 25 20 30 31 32 30 30 31 39 39 35 49 52 46 40 42 43 43 43 41 40
21 19 19 18 18 18 17 16 15 17 19 8 12 14 16 17 13 17 16 14 15 21 24 28 24 24 35 34 31 31 23 22 28 34 42 38 43 34 31 37 44 46 45 44 42
19 19 18 19 18 19 19 18 17 17 18 21 21 19 19 18 20 21 16 21 18 20 21 21 21 21 27 33 25 24 23 27 36 39 38 38 38 34 28 31 32 35 36 42 46
20 17 17 19 18 19 19 18 18 17 10 25 18 20 20 21 20 22 24 22 22 24 24 24 24 27 27 24 23 21 35 37 32 34 36 30 31 31 23 19 21 32 34 36 37
21 19 17 18 19 18 18 20 18 18 18 17 24 26 26 22 23 27 27 30 31 32 28 26 23 23 24 30 29 30 35 31 27 24 33 20 26 27 17 28 23 38 39 35 34
20 19 18 17 19 19 19 18 18 16 14 23 23 21 23 24 23 23 22 26 27 34 29 31 33 19 31 37 37 30 31 28 29 29 29 28 31 19 29 23 37 44 43 35 35
20 20 17 18 18 18 19 18 19 18 21 20 21 23 23 16 21 23 27 26 23 29 36 38 34 30 34 36 34 30 36 27 35 34 38 35 20 26 21 37 43 36 38 42 41
21 19 17 17 17 17 16 18 18 21 18 22 22 22 24 23 25 23 27 35 37 33 36 38 46 39 38 38 30 38 29 28 34 36 35 42 33 24 29 32 37 36 39 36 40
24 19 20 17 17 18 16 15 19 23 21 21 21 23 25 28 31 34 31 33 44 40 46 48 46 44 33 32 35 30 28 29 35 37 31 23 25 45 39 38 37 37 30 36 32
27 26 22 19 19 18 17 17 19 21 23 22 22 24 26 31 35 37 29 31 36 42 38 43 38 28 28 31 29 26 27 30 35 32 37 39 30 20 18 22 26 31 22 28 34
26 27 21 23 20 22 22 19 19 20 22 21 23 27 30 34 37 33 31 29 35 28 30 37 42 32 31 23 26 30 30 39 32 33 33 34 20 30 31 18 31 32 41 22 35
27 27 27 20 20 19 20 21 19 20 18 20 23 26 30 34 33 30 28 29 22 27 37 27 31 36 36 32 30 18 33 34 35 32 29 36 32 29 37 37 37 36 36 35 40
30 28 25 23 24 22 22 19 18 19 19 22 23 26 30 31 30 27 26 20 21 17 19 21 19 20 20 23 26 29 23 23 36 31 43 26 35 32 32 42 40 38 46 43 38
31 29 27 24 22 21 21 19 18 18 19 20 24 25 28 28 28 24 20 17 15 16 10 11 9 12 11 15 19 23 27 29 31 27 28 32 34 31 40 44 47 51 51 49 49
35 32 29 25 24 22 19 18 17 17 19 21 22 24 26 26 22 21 16 13 12 13 14 12 10 12 9 14 16 15 14 16 16 22 30 39 42 39 41 40 47 50 53 48 46

GFSSW_500_spd_063.txt.gz
Wind_Speed
24 25 28 29 24 11 7 6 5 6 8 11 15 17 20 22 24 27 31 33 35 37 37 38 37 36 38 35 38 41 43 41 36 33 33 40 37 26 28 25 23 30 46 54 57
23 23 26 27 23 19 4 5 5 5 6 8 10 15 16 20 21 23 27 30 31 34 36 37 38 37 38 36 38 40 42 38 34 32 32 38 38 30 28 32 33 29 27 40 52
22 22 23 24 25 21 10 4 5 7 7 7 8 10 14 16 19 21 23 27 30 32 33 34 36 37 37 38 38 39 38 37 35 34 31 31 48 37 25 31 30 29 32 35 46
22 21 21 21 22 22 18 9 6 7 9 10 10 10 11 14 16 16 21 23 26 30 33 34 35 36 37 38 37 40 39 39 37 35 34 34 42 51 36 36 34 38 36 41 49
21 20 20 19 18 19 20 16 13 7 9 12 14 14 12 13 13 13 18 21 23 27 30 33 35 36 37 38 39 41 40 41 40 39 38 36 38 52 51 52 38 42 47 39 45
20 20 19 18 17 16 15 16 16 13 6 10 14 16 17 18 12 14 14 17 20 23 26 30 33 36 40 38 39 40 42 43 43 42 42 42 40 52 52 49 46 42 55 46 49
19 18 18 17 16 15 14 13 13 12 12 10 11 13 16 20 18 17 15 16 17 20 23 26 31 34 34 36 37 39 43 43 44 44 46 48 49 43 51 60 57 59 60 54 51
18 17 16 16 15 15 14 12 11 10 9 10 11 11 11 16 18 18 19 17 16 17 19 23 25 28 32 36 38 40 42 42 38 41 41 39 46 41 41 48 57 60 59 60 60
16 16 15 15 15 14 13 13 12 11 10 10 10 11 11 11 13 15 19 20 19 18 19 20 22 26 30 33 36 40 42 41 37 35 36 39 45 41 40 45 46 47 51 52 57
16 16 15 15 15 14 13 12 12 11 11 11 12 12 13 11 10 12 18 20 22 22 22 22 23 24 27 32 33 34 38 38 34 32 24 29 45 42 43 45 46 47 48 52 52
17 15 15 15 15 15 13 12 11 13 13 11 13 13 13 12 10 9 9 19 22 24 24 26 27 25 25 26 29 32 34 34 38 33 23 24 31 38 43 43 46 46 48 51 46
18 16 15 15 15 16 15 14 13 10 12 14 12 12 12 11 11 10 9 10 15 21 25 29 29 26 26 28 29 31 28 37 43 35 26 30 37 46 50 47 44 42 46 45 44
21 18 16 15 15 15 16 16 16 14 13 14 10 11 13 13 13 12 13 13 13 14 20 28 29 31 26 25 27 30 36 41 38 35 40 40 41 44 48 43 36 39 41 43 45
20 19 17 15 16 15 17 17 18 17 16 12 9 11 13 14 13 17 17 17 17 19 22 25 22 27 24 29 32 37 35 33 28 28 40 46 54 52 51 47 48 44 46 46 46
21 21 19 16 16 16 16 16 17 18 19 15 14 14 14 16 19 18 15 20 23 25 30 25 26 25 28 28 31 38 32 22 30 34 40 44 59 45 45 42 37 34 34 42 46
21 20 20 18 16 19 17 17 16 16 16 19 18 15 15 14 15 20 19 19 22 26 24 24 23 26 25 29 31 33 29 33 38 39 47 37 37 37 29 26 26 30 31 35 36
22 21 20 19 17 19 19 17 15 14 13 11 12 23 23 26 26 26 28 30 30 33 30 30 33 22 25 31 25 31 36 32 34 38 35 32 25 28 20 16 21 26 32 34 33
21 24 20 20 19 19 19 16 14 16 15 20 27 23 21 20 20 18 20 29 29 33 43 31 35 35 27 34 37 38 42 40 38 34 25 29 29 17 22 20 20 22 34 40 41
22 23 23 20 19 19 20 18 15 19 22 19 17 23 22 22 25 23 22 24 29 41 42 47 42 28 19 30 35 33 35 26 37 28 29 29 28 23 23 23 22 27 35 41 42
24 23 23 21 22 20 20 20 18 20 23 19 20 21 21 21 23 25 28 36 41 42 46 46 43 39 26 34 42 37 38 31 33 34 37 27 25 34 33 31 24 28 34 40 44
29 26 25 17 21 21 20 20 21 22 24 22 22 24 23 25 26 28 31 32 42 38 38 42 47 46 38 44 42 35 34 34 36 32 38 37 30 25 40 39 30 29 38 41 46
35 30 25 26 22 20 20 20 20 18 22 23 23 24 23 24 27 30 32 34 33 31 29 31 38 41 46 30 34 39 30 32 33 45 40 31 28 33 32 35 43 32 39 43 40
39 34 28 26 24 24 23 21 21 22 19 21 22 22 24 25 31 30 30 29 29 28 25 25 22 28 25 31 38 28 31 33 39 24 33 38 33 27 36 40 33 35 52 48 44
37 37 32 27 23 21 21 22 21 24 22 20 20 22 24 24 27 30 29 25 27 21 22 22 22 25 29 27 31 35 31 33 46 35 34 38 27 31 31 34 38 41 28 34 34
39 38 34 28 27 23 23 21 20 21 22 20 18 22 24 25 26 27 25 20 19 18 19 19 14 16 22 27 24 24 19 30 25 34 41 28 33 35 26 35 36 40 40 42 37
36 39 36 31 26 23 23 24 22 20 20 19 20 20 23 24 27 25 22 19 14 16 18 15 15 16 12 14 13 13 13 18 19 21 29 32 39 34 37 25 33 36 43 54 57
35 38 38 35 28 24 23 22 22 18 20 19 18 20 22 24 25 24 20 18 14 14 17 19 17 15 8 13 12 12 15 13 12 18 22 31 34 39 41 41 40 45 49 51 55

GFSSW_500_spd_069.txt.gz
Wind_Speed
21 22 22 22 24 29 30 18 9 9 5 3 8 12 16 20 22 29 36 39 41 40 39 37 36 35 35 36 37 39 44 45 43 41 33 31 40 50 52 51 50 52 58 62 61
21 22 22 22 22 24 27 24 6 7 4 1 5 9 12 15 21 23 28 35 37 40 41 41 40 38 38 38 39 39 41 40 39 39 36 34 42 51 55 55 55 57 55 56 64
21 21 21 21 20 20 23 23 17 6 4 1 1 4 9 13 16 19 23 27 33 38 41 42 42 41 41 41 41 40 41 41 39 39 41 40 44 50 55 58 59 62 59 56 57
21 20 20 20 20 18 17 20 18 14 8 6 5 5 6 9 12 16 20 24 28 32 37 41 43 45 45 44 44 43 43 43 40 41 42 42 44 46 57 55 58 62 64 65 64
22 20 19 19 19 18 15 14 16 14 11 5 11 11 10 10 10 14 18 21 23 26 29 33 38 43 45 46 47 46 47 47 44 43 43 43 46 46 48 52 61 61 64 67 65
21 21 19 17 18 18 15 12 11 12 11 8 6 7 15 16 15 17 16 16 19 22 25 27 30 33 38 41 43 44 45 46 46 42 43 47 46 49 45 52 60 63 63 65 65
21 21 20 18 17 16 16 13 11 9 9 9 7 8 8 12 19 23 22 18 19 20 22 25 27 30 31 32 36 40 44 45 45 45 44 46 47 43 42 54 59 60 64 66 66
22 21 20 19 17 16 15 15 12 10 9 9 8 6 6 7 11 20 25 24 23 21 22 24 26 27 28 30 33 36 41 44 43 44 42 41 46 40 39 44 62 64 61 61 64
23 22 20 19 18 17 15 15 14 12 10 10 10 10 7 4 7 9 21 23 26 25 24 23 23 24 26 28 30 32 35 38 39 40 43 44 50 46 42 46 48 63 67 63 64
24 22 22 20 19 18 17 15 15 15 12 12 11 11 12 9 5 5 10 15 20 26 27 27 27 23 23 26 27 31 35 36 40 37 43 47 52 52 49 47 52 56 66 72 69
22 25 23 21 20 19 19 16 15 15 14 12 14 13 13 14 10 7 7 9 15 21 25 29 29 24 30 32 32 33 35 38 40 42 46 50 54 55 54 50 49 51 57 66 71
25 23 21 21 21 20 20 18 15 15 20 15 17 16 15 13 13 13 11 11 10 14 17 23 24 30 32 35 37 39 40 42 43 44 48 48 52 54 55 52 52 49 51 59 64
28 27 24 23 22 20 20 19 17 17 18 19 19 19 17 16 15 15 16 14 15 15 16 14 18 24 26 32 36 38 42 44 47 46 50 51 53 52 54 53 54 51 50 52 55
26 26 27 28 20 20 21 20 19 18 18 19 20 21 19 17 19 19 19 18 18 19 20 20 21 23 27 29 31 37 36 43 45 49 51 49 55 50 50 53 56 56 53 53 55
29 25 27 25 22 22 22 20 21 20 19 19 20 21 20 21 22 23 21 19 20 21 22 22 25 28 30 29 31 37 33 35 39 45 47 48 52 49 47 47 52 57 57 56 57
27 26 27 26 26 24 23 21 22 20 19 21 22 22 21 21 23 24 24 24 22 22 24 23 28 31 30 30 33 35 38 36 36 40 50 41 48 43 41 42 45 58 57 59 58
32 28 28 26 26 25 24 23 22 22 25 25 21 20 18 22 25 25 25 25 25 28 27 28 27 29 32 35 35 38 42 45 43 41 42 41 44 27 26 32 40 50 66 63 59
29 27 25 23 29 28 26 24 23 26 27 27 26 24 25 24 26 24 26 29 29 31 36 36 38 38 39 43 48 43 46 45 50 49 46 45 46 28 28 30 30 37 54 56 57
29 30 32 31 26 30 27 25 25 29 29 26 25 25 29 29 28 27 29 31 30 32 36 40 42 44 44 45 51 54 52 56 59 45 42 46 38 18 29 36 31 36 33 50 44
30 32 33 30 27 26 27 27 29 27 25 27 26 24 24 26 31 32 32 33 32 34 37 40 45 44 44 44 43 46 43 44 42 43 52 44 41 35 24 25 29 29 35 39 40
31 31 31 31 28 28 25 25 27 27 26 28 29 26 25 27 30 31 32 30 31 34 35 38 40 36 34 37 36 33 30 31 35 32 37 35 26 29 31 34 36 33 41 39 42
32 32 32 33 31 27 27 23 24 28 31 29 29 26 26 26 27 27 28 29 31 32 35 35 36 31 25 29 28 27 25 25 27 36 26 25 24 28 25 29 34 34 34 30 33
33 34 35 34 32 29 27 22 23 25 27 29 29 28 28 26 26 24 24 29 31 33 35 32 30 29 23 27 28 25 22 26 31 34 37 39 24 33 33 21 28 35 40 38 28
33 34 36 35 33 29 28 26 23 25 22 25 27 26 25 24 26 24 24 29 31 31 32 30 25 26 25 25 24 18 21 24 28 33 29 29 26 29 37 38 41 32 37 34 34
35 35 35 36 35 31 29 27 23 23 22 21 24 26 25 23 26 23 25 28 30 31 32 27 23 23 24 30 23 19 19 22 26 26 29 22 23 25 28 31 34 39 31 37 41
37 38 37 36 35 30 27 26 22 22 21 22 22 24 24 23 25 18 24 28 28 31 31 26 21 20 19 25 24 18 20 26 21 20 12 17 16 20 26 29 31 32 37 38 41
35 36 37 36 36 32 28 27 22 20 22 22 21 22 23 25 22 19 22 25 27 28 28 22 18 19 15 21 22 23 24 14 17 14 18 21 22 25 26 28 31 33 36 41 44

GFSSW_500_spd_075.txt.gz
Wind_Speed
23 25 24 24 25 25 25 25 27 28 30 18 21 21 19 15 11 11 14 18 20 29 36 33 33 33 35 38 42 45 47 51 46 48 44 42 48 45 41 42 45 44 43 42 43
23 23 25 23 23 23 23 24 25 25 26 21 16 18 17 14 9 8 11 17 19 23 30 32 31 31 31 32 33 37 43 42 40 42 41 39 42 45 52 50 47 46 47 46 46
25 26 23 23 22 22 21 22 22 23 23 22 15 15 15 13 9 7 8 12 20 22 26 30 32 33 32 32 32 32 34 38 39 43 40 42 42 43 47 51 50 55 55 53 50
27 26 23 21 21 21 21 20 20 21 21 21 17 13 14 12 9 7 6 7 12 21 25 27 31 34 35 35 34 33 35 37 36 39 41 39 39 40 41 43 51 53 57 57 56
25 21 20 20 20 20 20 19 19 19 19 18 18 15 12 12 12 9 8 9 10 13 20 27 30 32 35 36 37 36 37 37 37 37 38 37 37 39 41 45 48 51 56 58 56
25 22 21 20 17 17 19 19 19 18 18 17 15 15 14 11 10 14 13 11 12 15 16 19 22 26 31 34 37 39 39 40 41 40 40 39 39 40 41 46 47 50 52 58 59
24 23 23 22 18 16 16 17 18 18 17 17 16 14 13 12 13 9 9 17 16 16 18 19 19 21 21 25 29 33 36 40 43 44 44 45 41 43 44 46 48 50 54 56 59
24 24 22 20 22 20 16 15 17 17 18 17 16 15 13 12 12 12 11 7 17 23 21 19 19 20 22 24 26 28 31 34 39 41 43 46 41 45 48 48 50 50 54 56 58
27 25 23 23 20 19 15 15 16 17 17 17 17 16 15 13 12 12 11 11 7 14 23 23 21 21 22 24 28 30 35 35 36 36 37 41 43 42 46 47 50 53 53 57 59
27 26 23 23 20 20 19 17 16 18 15 17 17 17 15 15 14 12 11 10 10 8 8 18 25 25 25 26 27 30 32 34 37 38 40 40 44 39 41 46 46 51 55 56 59
23 24 24 21 21 19 20 19 17 17 17 17 17 17 18 17 17 15 13 12 11 11 10 10 13 23 33 33 30 30 31 33 34 36 38 38 42 41 41 41 44 48 54 56 58
22 25 24 24 23 21 20 20 17 16 19 17 18 18 19 20 18 18 16 14 13 12 13 11 13 17 21 24 27 31 35 38 38 40 44 43 41 43 43 43 43 43 47 53 58
21 22 24 24 24 24 24 21 21 19 17 19 18 19 19 20 20 19 17 17 16 16 15 16 16 18 20 23 24 25 28 29 30 34 37 39 38 41 43 47 50 49 46 45 48
21 21 22 25 25 24 24 22 23 23 21 19 18 20 20 20 19 19 18 17 17 17 18 19 20 21 21 25 26 26 31 32 33 35 36 39 44 37 42 41 44 46 49 51 52
22 20 23 23 27 22 20 21 23 26 23 20 19 18 18 18 18 18 17 19 20 18 18 23 23 23 24 27 28 27 31 34 36 39 43 41 47 42 44 44 43 46 50 54 57
23 22 23 24 25 27 25 23 25 24 25 24 24 23 21 19 19 19 19 21 24 21 20 23 27 28 28 30 30 31 33 36 39 41 48 45 50 54 49 50 49 47 49 52 51
23 24 23 22 24 25 26 25 24 23 24 26 25 25 22 20 20 19 22 23 23 26 25 27 28 29 30 31 32 32 35 39 43 43 46 47 52 50 49 50 52 46 46 47 41
25 25 23 21 22 24 25 26 26 24 24 25 26 28 25 22 21 22 23 25 28 30 30 27 25 27 30 32 34 34 35 37 45 45 50 47 52 49 50 50 44 40 44 45 41
25 24 22 22 22 23 26 26 27 25 22 23 25 26 25 27 26 26 27 28 29 29 30 31 28 27 30 32 33 36 37 39 42 44 48 49 49 42 41 41 37 35 38 36 37
27 24 22 21 22 25 25 25 28 24 21 23 24 23 24 28 25 28 31 30 33 32 29 31 34 26 30 31 33 36 38 38 38 41 44 43 43 37 33 29 34 30 31 32 29
26 25 23 23 22 24 26 26 27 28 24 23 25 25 20 20 22 21 24 26 25 28 31 32 31 26 27 32 34 35 35 36 36 35 38 39 34 29 29 29 26 29 35 39 40
28 26 24 23 21 21 24 26 28 29 29 28 23 25 21 19 19 22 23 25 24 28 28 28 29 25 26 31 34 34 33 32 32 35 37 34 26 25 27 29 41 29 25 27 35
29 29 27 25 23 22 24 27 28 28 25 26 25 25 24 20 20 21 23 23 27 26 26 25 24 26 26 31 33 33 30 28 31 34 32 34 28 30 30 37 37 39 41 27 24
27 29 30 28 25 25 25 26 30 31 29 26 25 25 24 22 21 19 23 24 25 24 25 26 20 24 27 30 33 29 24 27 29 32 32 33 30 24 29 28 25 23 29 33 29
29 30 30 32 28 26 24 28 31 32 29 28 27 26 23 21 21 20 21 23 22 22 23 24 21 23 25 28 29 20 20 26 29 30 32 27 30 32 30 23 26 27 26 28 34
30 30 30 33 29 26 28 31 35 34 33 27 27 28 27 19 20 20 20 20 20 21 21 20 22 22 21 26 20 14 22 25 27 27 29 30 30 36 33 33 35 31 28 30 37
31 30 31 32 29 28 30 34 36 36 31 30 27 25 25 20 19 19 20 20 18 19 17 19 21 21 17 19 17 16 19 24 26 31 37 40 41 42 38 39 38 36 38 36 39

GFSSW_500_spd_078.txt.gz
Wind_Speed
24 24 23 23 23 22 22 22 23 24 25 25 28 30 23 24 22 17 14 13 19 22 25 33 38 41 42 44 45 46 48 54 49 53 52 52 49 45 43 42 45 42 40 40 40
21 23 25 25 23 22 21 21 22 23 23 23 24 26 20 20 19 13 8 11 17 23 24 28 31 33 34 35 38 42 45 43 48 50 44 45 48 47 48 43 45 44 43 42 40
22 24 25 22 21 22 21 19 20 22 22 20 21 22 20 18 16 13 7 7 15 22 26 29 29 29 30 30 30 33 39 41 43 43 44 47 48 44 49 47 47 47 40 40 41
24 23 20 19 19 21 21 19 18 20 21 19 18 18 18 14 14 12 8 2 8 19 25 29 28 28 28 29 29 29 32 35 38 42 44 41 45 44 46 46 45 46 47 48 48
24 23 21 19 20 20 21 20 18 18 18 18 16 15 15 14 12 13 9 5 3 8 19 27 29 29 30 31 32 31 32 33 34 34 34 37 37 38 42 44 43 46 47 49 48
24 24 23 21 19 17 18 20 19 19 18 17 16 14 13 12 10 9 8 9 5 5 8 14 23 30 32 34 35 35 35 36 35 35 35 35 35 38 41 44 44 44 46 48 51
26 25 24 22 21 19 20 21 19 19 18 17 16 14 13 11 11 9 6 8 11 9 8 11 14 20 25 31 34 36 38 40 41 40 38 38 38 38 40 43 44 49 48 49 50
28 28 24 21 21 20 18 18 18 19 18 18 17 16 13 11 10 10 7 5 7 14 13 10 12 16 20 22 25 29 32 35 40 40 41 41 40 43 42 43 45 47 49 49 51
28 25 23 20 21 19 19 17 18 19 18 18 17 17 15 13 10 9 9 8 5 6 16 18 15 15 18 20 24 27 29 31 34 32 34 36 38 43 43 45 46 47 49 51 53
21 20 20 19 19 20 20 20 20 19 18 17 18 17 16 15 12 11 10 10 8 4 5 16 25 23 21 22 22 26 25 27 29 31 33 35 37 36 39 42 45 47 49 52 54
18 18 13 13 16 20 21 20 22 23 17 16 17 18 18 16 16 13 12 12 10 8 5 6 12 23 32 29 27 26 27 29 31 32 34 33 36 37 37 41 43 44 48 51 54
17 17 15 12 13 15 21 23 20 20 21 17 17 19 19 17 16 16 15 14 12 11 9 9 11 12 14 20 27 31 34 34 36 38 40 38 40 40 36 35 37 39 44 48 53
16 17 18 15 15 15 17 18 18 16 19 20 19 18 20 19 17 17 16 15 15 14 14 13 14 14 15 16 18 21 23 25 27 31 30 33 33 30 34 34 35 39 43 46 48
20 20 17 18 18 17 17 16 18 19 22 23 18 19 19 21 19 17 16 15 16 15 15 17 18 18 18 20 21 24 27 28 29 33 32 38 37 33 36 36 38 38 42 42 45
21 21 19 19 18 17 18 18 18 17 21 22 19 17 18 21 20 15 14 15 16 15 15 20 19 19 21 23 23 27 28 31 33 35 39 33 43 41 39 40 41 44 46 48 51
23 22 20 19 19 17 16 17 19 18 20 21 20 21 21 22 19 17 16 18 19 18 18 21 21 20 23 26 27 29 30 33 34 36 40 36 43 44 40 43 49 47 48 49 50
23 21 19 18 17 17 16 15 17 17 18 17 18 19 21 20 19 21 19 20 21 21 20 23 23 25 26 28 31 29 32 33 34 29 31 29 47 43 47 50 48 52 52 51 54
23 21 19 17 17 16 17 18 17 17 16 17 18 19 19 18 20 22 22 20 22 23 22 26 23 30 25 29 29 34 29 33 39 39 41 40 47 38 47 53 50 55 56 54 44
21 22 21 18 17 17 17 16 15 15 17 18 19 20 22 18 20 25 24 23 25 25 28 30 30 29 31 30 30 35 29 32 38 40 45 42 44 47 45 46 47 48 48 44 43
23 21 22 21 20 17 16 14 14 16 18 18 18 19 21 22 17 19 27 30 31 28 30 32 32 29 27 29 27 28 33 33 37 40 42 39 42 34 32 29 40 33 30 38 38
23 22 22 21 21 20 18 16 15 16 20 20 18 18 19 21 19 17 17 21 25 26 25 26 27 27 24 27 26 31 28 33 36 38 40 43 39 34 31 30 35 32 34 36 38
23 23 24 23 23 22 22 19 18 18 20 22 21 19 18 21 20 20 17 17 17 19 24 26 26 23 23 26 23 25 29 33 36 34 34 31 27 29 26 31 36 32 33 37 45
25 23 24 24 24 23 24 22 18 18 21 24 25 25 21 19 23 21 19 18 19 22 23 23 23 19 20 23 23 26 28 29 30 27 24 33 26 31 30 32 33 36 35 35 29
25 25 24 24 23 25 25 22 20 20 21 24 26 26 24 21 21 22 19 20 21 22 21 21 19 19 18 22 27 25 26 24 23 24 25 28 30 24 32 35 34 36 36 36 34
24 25 25 27 25 25 23 20 22 24 25 26 28 28 24 22 22 23 21 22 21 21 21 18 16 19 20 20 25 25 20 19 22 25 31 23 34 34 40 42 43 42 40 39 40
29 25 25 28 27 26 24 23 25 26 28 29 30 29 27 20 21 24 23 22 19 21 21 19 15 17 18 22 24 19 16 19 22 25 32 36 36 39 46 46 43 42 40 40 39
28 26 25 28 28 26 25 25 28 27 29 32 30 25 24 21 19 22 23 22 20 21 19 17 16 15 17 23 23 15 14 19 23 27 32 36 38 42 46 49 48 46 45 43 40

GFSSW_500_spd_081.txt.gz
Wind_Speed
21 20 20 23 26 25 24 24 25 25 25 24 23 24 25 26 28 26 27 24 24 20 22 25 34 42 45 47 48 49 51 58 57 57 59 37 58 48 49 48 44 39 45 46 28
23 24 23 23 23 25 24 23 24 25 26 23 21 22 23 24 25 22 21 19 17 18 20 23 29 35 36 38 40 44 47 49 44 50 54 50 63 44 53 46 43 41 44 41 38
22 24 24 24 21 18 19 22 24 24 25 24 21 20 22 21 21 17 15 14 12 16 18 21 26 29 30 32 32 35 39 37 38 50 49 51 52 46 48 48 40 43 45 46 43
23 23 23 23 22 22 21 20 22 24 24 24 22 19 19 19 16 15 12 10 8 11 15 19 25 28 28 27 28 30 33 37 41 46 43 43 44 48 47 43 42 44 49 45 40
23 22 23 22 22 21 22 20 20 23 24 23 22 19 18 18 15 13 11 6 4 6 12 18 23 25 27 27 27 27 29 31 33 37 39 40 41 39 41 44 45 41 43 41 41
25 27 27 25 22 21 20 21 21 21 23 22 21 19 17 17 15 12 11 6 4 4 11 17 22 23 27 28 27 27 28 28 29 31 34 35 35 39 40 41 41 41 43 42 44
29 29 29 27 22 21 20 19 19 18 21 21 20 19 17 16 15 12 8 7 7 8 9 15 19 23 25 27 28 30 29 31 31 32 34 35 34 35 34 38 39 40 42 41 41
24 26 26 23 21 18 19 18 18 18 18 19 21 19 17 15 14 13 10 6 5 12 12 12 16 20 22 26 24 29 31 32 33 36 37 38 34 35 38 39 38 39 41 42 42
17 19 19 17 18 19 16 16 18 18 18 22 21 20 17 17 14 13 11 7 4 6 16 17 16 17 18 18 19 22 24 23 23 36 35 39 37 40 42 40 41 42 43 44 45
17 18 16 15 14 17 18 17 17 19 20 20 18 20 18 17 15 13 12 11 7 6 10 19 21 19 18 18 14 11 17 23 25 28 31 33 35 37 40 40 42 45 47 48 47
19 18 17 15 16 12 14 17 18 19 17 17 16 19 19 17 17 16 14 13 11 8 8 13 17 22 20 23 25 29 25 24 25 30 32 32 35 36 39 40 41 43 45 48 50
20 18 17 16 15 14 14 14 14 15 14 14 16 18 20 20 17 17 16 15 13 11 10 11 15 17 24 27 29 28 28 28 30 33 35 34 34 35 35 36 37 40 43 44 47
22 20 20 17 17 17 16 14 14 16 17 16 18 19 18 21 21 17 17 16 15 14 13 13 10 12 14 15 16 19 22 24 27 30 29 27 33 31 31 33 36 38 41 43 45
22 23 22 20 19 17 16 15 13 13 18 14 15 15 16 15 21 23 23 17 17 16 16 16 17 16 16 17 17 17 20 24 23 26 26 25 30 27 30 33 34 33 34 38 43
24 26 26 24 20 18 16 14 13 12 10 20 16 15 14 15 17 17 19 19 16 16 15 13 19 18 17 19 21 19 26 23 24 26 29 27 29 26 26 25 22 35 47 44 43
22 21 21 20 18 15 15 14 13 11 12 18 16 16 14 14 17 14 17 18 18 17 17 19 19 17 20 22 22 24 26 27 26 27 30 26 24 23 17 28 40 48 44 48 48
21 19 19 18 16 14 13 14 13 8 12 15 17 14 16 19 17 15 14 20 17 20 21 22 19 21 25 25 25 26 27 23 20 20 22 16 21 24 32 44 52 44 51 52 54
21 19 18 18 16 15 15 13 12 12 11 10 14 15 15 18 20 20 18 20 21 21 23 23 19 20 27 24 25 24 30 23 28 24 27 31 39 33 31 51 55 47 52 57 55
21 19 19 17 17 16 15 14 11 9 9 11 13 13 15 19 17 23 21 23 27 25 22 20 20 28 30 31 28 28 29 29 32 33 35 31 28 20 21 36 46 44 36 46 58
21 18 19 19 17 17 16 15 13 13 13 12 14 13 12 19 23 20 24 22 23 25 23 25 28 30 35 26 28 27 29 30 28 31 31 20 24 24 31 35 34 40 50 54 46
22 20 19 19 18 18 18 19 17 16 16 15 15 16 16 17 20 21 19 21 23 25 27 29 35 29 32 25 24 28 22 27 29 30 33 35 29 22 35 39 36 40 42 43 39
22 23 20 20 20 17 19 18 19 19 17 16 16 18 19 20 20 20 20 23 21 21 19 23 26 24 24 22 24 22 23 25 31 32 34 37 9 22 27 29 35 34 36 40 42
22 22 22 21 20 19 19 20 20 20 18 17 19 19 22 23 23 20 21 24 22 23 26 24 24 24 20 20 23 24 25 25 28 31 28 27 10 20 25 33 37 37 42 41 46
22 24 22 21 19 19 21 22 21 17 18 20 21 23 25 25 25 24 22 24 23 24 21 22 22 23 20 17 21 24 22 24 27 28 23 26 26 24 27 33 40 43 47 49 50
23 22 23 25 22 20 21 22 21 19 20 22 25 26 29 28 27 24 25 26 23 26 22 24 23 24 22 23 26 25 24 26 26 24 27 24 28 27 32 40 43 49 51 53 47
23 25 23 23 24 23 21 20 21 20 21 23 25 28 30 27 27 25 26 27 24 25 23 23 22 23 22 21 23 24 23 25 23 24 26 27 29 30 37 42 46 49 50 50 48
19 23 23 23 23 23 22 21 19 20 21 23 25 28 27 27 23 25 26 26 25 24 23 23 23 22 21 20 22 21 24 19 21 23 27 29 31 36 40 41 42 45 43 42 40

GFSSW_500_spd_084.txt.gz
Wind_Speed
23 23 22 24 22 23 25 28 28 27 25 25 26 26 25 26 25 25 27 28 29 27 31 34 32 32 36 45 50 50 52 58 60 54 57 52 32 36 38 54 55 31 40 45 56
25 24 23 23 23 23 23 22 23 24 24 24 25 26 26 25 25 24 25 25 25 23 26 27 26 23 28 35 40 45 47 50 49 46 33 34 47 25 46 50 48 52 44 46 55
26 25 26 25 23 23 22 22 21 23 23 24 24 25 25 25 24 23 23 24 22 21 21 21 20 18 20 27 34 36 40 39 41 33 29 38 42 44 53 56 50 46 48 47 47
29 30 29 26 24 22 23 22 22 23 23 24 23 24 24 24 23 23 20 21 19 18 16 16 16 16 20 23 29 31 31 32 32 20 39 46 45 45 47 42 44 53 50 45 46
32 30 32 31 30 27 24 22 20 20 21 22 22 22 23 22 20 22 18 17 17 15 12 12 12 13 18 20 25 26 28 31 34 32 42 44 39 39 39 35 39 45 42 48 45
30 32 33 33 31 29 24 21 20 19 20 21 21 21 23 23 19 19 16 15 14 14 11 12 13 13 16 14 14 20 27 31 36 36 35 33 33 37 36 36 35 35 37 39 41
25 24 23 24 28 24 20 19 19 18 17 18 19 20 21 23 20 16 15 14 12 13 12 14 18 19 17 18 20 19 23 28 29 29 30 31 29 30 32 32 33 32 34 36 37
23 20 18 20 18 19 17 21 16 17 15 16 17 21 22 20 20 18 16 13 11 10 15 13 16 20 20 20 23 23 24 24 24 25 27 29 27 26 31 34 34 33 31 33 35
22 20 20 20 21 20 21 21 19 19 17 16 17 18 21 20 18 19 17 15 12 10 12 16 16 19 21 20 19 18 18 18 12 15 28 33 30 26 33 34 33 34 34 34 34
22 22 21 20 20 20 21 21 20 19 18 17 16 15 12 20 20 18 18 17 14 12 10 18 19 17 17 18 14 3 17 11 10 22 29 28 30 27 32 36 39 38 39 40 39
20 22 21 21 20 20 20 21 21 18 14 15 13 13 12 15 21 18 18 17 16 14 11 15 19 20 14 13 19 16 22 22 17 24 29 26 28 28 32 36 36 38 37 40 43
21 19 21 21 20 20 22 22 21 20 17 14 13 16 16 15 17 20 20 17 17 16 13 12 14 17 21 15 22 28 33 35 33 34 31 30 32 29 31 33 34 36 39 40 42
24 25 25 24 23 22 21 20 21 20 20 17 15 13 14 13 12 13 21 22 19 18 15 14 4 10 22 25 25 24 29 28 29 21 26 33 33 31 33 36 38 40 41 43 42
25 26 27 27 25 23 20 19 18 17 18 16 11 13 12 12 12 12 13 19 22 19 17 17 15 14 16 17 16 16 12 19 25 32 30 22 24 20 19 21 25 29 29 31 39
24 26 26 24 21 19 15 14 14 14 12 18 14 15 14 13 10 12 11 12 20 26 19 13 10 19 18 16 11 16 19 25 22 21 23 21 25 19 14 20 14 28 39 44 45
24 24 24 21 19 16 13 11 12 12 8 18 18 14 13 13 12 10 11 11 14 20 23 20 21 23 16 12 17 22 19 21 21 21 26 14 14 8 15 22 34 39 46 46 42
25 23 22 20 18 16 14 11 12 7 12 17 16 16 15 16 19 16 13 10 11 17 17 22 27 27 21 19 22 21 22 21 18 18 20 4 23 15 20 30 39 46 48 48 51
26 23 21 19 18 16 14 13 10 10 15 9 11 12 11 10 16 18 22 20 18 17 21 22 21 21 20 21 21 17 16 23 24 21 24 24 25 22 32 42 48 51 54 52 52
23 21 20 19 18 17 15 14 11 14 11 12 11 11 8 17 17 18 21 22 23 25 26 27 22 21 20 20 27 25 25 24 29 30 31 23 19 15 20 38 43 45 51 47 48
22 20 20 18 18 18 17 15 15 14 15 15 14 12 9 17 20 21 21 22 22 24 28 27 25 22 20 28 26 27 27 30 29 32 28 11 20 13 25 35 43 42 38 40 43
19 19 19 17 17 18 19 19 15 18 14 17 18 16 15 14 17 19 24 23 19 21 23 28 32 25 32 32 29 29 23 22 26 29 30 27 24 20 35 40 40 36 39 40 45
18 21 19 17 17 17 19 17 16 19 18 17 19 19 18 18 18 20 21 25 25 23 23 26 27 27 30 29 29 26 23 23 27 25 28 27 22 18 32 37 35 34 35 36 40
21 19 17 17 17 15 15 22 23 20 22 18 19 20 19 18 22 21 20 26 27 25 27 25 25 24 23 22 21 26 27 29 31 30 28 30 30 21 28 30 31 37 38 40 46
23 24 20 17 17 17 21 21 24 22 22 21 19 20 20 22 25 24 25 26 28 31 25 25 24 25 22 15 20 26 27 25 22 26 27 30 26 21 22 29 36 37 38 42 44
24 23 22 21 18 18 21 23 23 24 23 22 22 20 21 23 25 28 25 27 30 29 27 28 25 26 24 23 31 33 32 29 24 25 29 26 25 26 30 30 32 40 41 43 44
24 24 24 21 18 19 18 21 23 21 22 24 21 21 23 24 25 24 26 26 27 27 26 28 25 27 24 23 25 29 34 31 27 27 29 28 25 30 24 30 35 37 41 43 45
36 24 24 22 19 17 21 20 23 21 21 23 21 21 22 25 25 22 24 26 26 27 25 26 25 27 24 23 25 25 22 20 25 24 27 24 26 26 25 28 34 40 39 42 42

GFSSW_500_spd_087.txt.gz
Wind_Speed
27 28 27 24 23 24 22 23 23 24 27 28 27 27 25 26 26 26 27 25 27 27 27 30 31 33 36 38 37 35 52 62 67 67 58 48 57 59 57 56 44 39 44 43 49
27 28 29 28 27 26 24 22 22 22 22 25 26 26 25 25 23 23 26 25 25 26 27 28 30 31 35 37 38 35 46 55 58 57 53 41 42 48 53 50 61 40 42 47 54
29 30 31 33 32 28 24 23 22 21 22 22 24 25 24 24 21 21 22 24 25 24 26 27 27 30 32 34 25 29 42 44 45 41 38 41 35 36 49 51 39 57 51 51 54
30 32 32 33 32 32 30 27 24 22 21 22 23 24 23 23 20 23 23 24 23 23 23 23 26 27 26 23 13 23 25 28 32 31 34 29 30 38 39 41 33 39 51 52 53
29 29 29 30 29 31 29 28 25 22 20 20 21 22 21 22 22 22 21 21 21 21 20 21 23 21 20 13 12 16 18 27 30 32 34 30 32 37 38 44 38 35 37 40 40
28 27 25 23 21 21 24 25 22 19 19 18 20 21 21 24 20 22 23 20 20 19 19 19 21 18 18 12 13 15 15 24 25 33 32 26 33 39 39 37 37 31 33 35 32
26 24 23 20 20 20 19 19 19 20 19 16 17 17 18 24 21 21 24 20 19 18 18 17 19 17 18 13 13 16 17 13 22 36 32 37 26 25 32 38 34 31 32 35 32
23 22 20 20 21 22 21 21 20 19 18 17 15 16 17 20 22 20 21 21 19 18 17 17 16 14 14 17 17 21 21 24 27 30 39 36 27 26 28 32 30 31 32 30 28
22 22 21 21 21 22 22 21 20 19 18 19 19 18 20 18 20 21 21 21 21 18 17 16 18 17 18 18 18 15 3 6 4 2 11 22 21 20 24 27 29 28 28 26 26
20 20 21 20 20 21 22 22 20 21 20 19 17 16 14 13 15 21 25 22 21 17 16 16 18 18 17 21 15 13 8 6 7 5 12 19 22 18 24 28 29 29 29 27 28
18 19 20 23 23 22 21 21 21 21 21 19 17 13 11 11 13 17 18 23 20 19 16 17 17 18 16 14 13 13 9 17 10 6 11 10 16 19 24 27 30 32 29 26 27
20 19 22 23 27 27 26 23 22 20 22 21 17 18 16 13 13 14 16 23 23 19 17 18 13 16 19 19 19 14 23 26 24 18 18 25 26 30 28 23 23 26 29 31 33
22 24 24 26 27 25 23 22 22 21 21 17 17 15 12 12 10 9 11 13 27 25 19 18 18 19 19 23 26 31 31 31 35 32 30 33 40 33 26 28 28 30 31 32 34
25 26 26 26 23 23 20 20 16 16 17 15 13 11 13 11 10 8 9 9 11 27 23 15 19 18 17 16 20 26 23 19 37 39 41 38 37 26 19 18 12 16 28 37 43
29 27 26 25 23 21 18 15 16 13 14 16 11 13 16 11 10 8 8 9 9 14 24 23 27 19 17 13 17 14 15 21 27 38 40 29 28 5 14 16 19 25 30 33 33
29 29 27 26 23 20 19 15 13 11 6 12 15 8 12 12 10 6 8 9 10 10 15 27 33 30 23 26 24 22 23 22 20 15 19 6 19 15 20 20 26 32 35 36 37
29 29 26 24 22 19 16 18 11 9 13 10 16 12 12 9 11 14 8 9 7 7 9 17 29 30 28 29 27 24 21 20 22 21 12 13 17 10 17 22 27 35 38 40 42
29 27 26 22 21 19 16 15 11 13 15 15 15 14 14 10 13 15 21 21 15 13 12 15 15 27 31 28 26 29 23 17 16 14 12 20 19 10 20 20 29 32 37 43 46
27 26 24 20 20 19 18 14 15 15 18 14 12 12 7 13 17 17 19 19 20 21 24 22 18 27 22 27 20 23 24 17 26 26 26 24 22 26 32 33 38 43 46 46 46
27 23 21 19 18 19 17 15 15 20 14 16 18 17 18 15 17 22 22 21 19 19 27 24 21 22 27 21 22 26 25 28 27 31 29 24 25 28 27 34 42 40 40 41 39
27 23 20 17 20 20 16 17 17 20 17 15 20 19 20 23 19 19 18 20 21 20 23 23 22 14 25 19 24 30 28 29 30 33 30 27 23 27 35 39 39 43 46 40 35
28 25 18 19 19 20 18 16 20 19 20 20 17 21 22 22 21 20 19 25 20 23 24 21 20 17 21 23 29 33 35 34 31 22 29 28 17 22 33 42 39 43 37 35 31
28 28 22 21 22 20 19 18 23 21 26 22 21 21 21 20 22 20 22 28 23 25 26 24 22 22 17 20 24 25 27 28 30 30 32 34 32 25 30 36 42 36 30 29 29
30 29 27 24 24 22 20 21 23 27 25 22 24 21 18 21 24 22 24 27 25 26 25 27 26 24 19 23 20 21 22 30 31 34 28 29 27 23 32 34 32 26 28 32 34
30 28 29 29 27 22 23 22 23 28 21 22 26 21 19 21 23 24 24 24 27 27 25 24 26 27 22 22 26 25 24 31 34 29 30 25 27 35 33 26 22 26 30 32 35
29 28 23 28 31 23 25 22 20 24 22 25 22 20 21 20 19 22 23 24 22 26 26 27 21 28 24 24 26 28 26 33 37 36 39 37 35 34 26 21 26 28 30 34 32
31 30 27 31 33 24 27 22 21 22 22 23 24 22 20 17 15 18 22 23 22 23 24 23 19 22 20 24 25 23 25 28 27 34 37 31 31 21 22 24 26 29 33 34 35

GFSSW_500_spd_093.txt.gz
Wind_Speed
22 21 23 23 25 26 27 30 30 28 28 27 27 29 32 36 36 35 37 34 34 34 32 32 33 32 32 34 36 38 38 36 39 44 44 44 43 48 55 57 61 62 59 60 68
22 22 23 25 24 25 27 29 30 32 29 29 27 28 29 31 36 35 36 35 34 34 34 33 32 33 34 35 35 36 37 37 41 44 46 46 45 48 59 66 65 63 61 59 59
23 23 23 24 23 25 24 24 24 28 28 28 26 25 27 27 30 35 35 35 34 34 34 34 32 33 34 33 35 36 36 39 42 44 46 48 48 44 63 70 71 65 63 59 58
23 23 23 23 23 23 21 20 19 20 23 26 26 24 24 26 27 32 34 34 35 35 35 34 32 34 35 34 34 34 37 39 40 42 44 44 44 39 67 77 75 63 61 50 58
24 23 23 23 24 22 20 18 18 16 17 20 22 22 22 24 30 26 31 34 35 35 35 33 33 34 35 33 30 33 33 32 34 32 33 35 32 43 68 73 71 66 64 61 56
24 26 24 25 24 23 22 21 18 17 14 15 19 18 20 23 24 25 28 32 35 35 33 34 37 33 30 30 28 27 24 23 18 15 18 21 27 49 61 56 35 65 61 63 54
24 24 26 26 25 25 22 22 21 18 16 14 17 22 22 21 19 22 28 31 33 34 34 36 32 29 30 28 26 21 15 15 15 13 14 20 36 53 49 33 54 49 42 52 53
28 26 24 25 24 24 22 20 21 22 20 17 15 17 20 14 19 22 27 28 30 32 34 33 32 28 28 28 19 15 11 13 17 14 9 25 22 50 41 32 36 31 47 44 30
31 30 27 26 25 23 23 23 24 26 26 21 20 17 19 19 22 23 24 25 30 33 34 35 29 27 27 22 17 14 11 13 14 12 13 22 24 26 37 43 38 33 35 34 47
28 28 28 29 28 27 29 29 28 29 25 23 22 22 19 18 19 22 26 26 29 31 31 31 28 25 23 19 11 15 15 18 18 18 22 21 23 21 27 22 28 34 33 32 36
30 30 29 29 30 30 29 26 26 23 22 22 22 20 21 18 17 18 21 20 25 27 27 28 28 21 24 22 23 24 21 23 22 21 21 20 19 17 25 28 30 34 31 37 35
32 32 31 30 31 30 30 26 26 25 22 22 21 20 22 20 19 20 22 20 21 23 28 29 21 25 27 24 26 26 27 27 26 26 26 23 19 18 30 38 32 28 29 25 29
32 34 35 33 32 33 30 27 25 24 21 19 20 19 20 19 20 21 20 22 21 23 22 21 29 30 26 27 27 27 29 29 29 32 32 30 26 23 31 35 30 22 26 26 25
34 35 38 38 33 32 32 28 24 21 21 18 19 15 13 15 15 19 20 20 20 22 25 27 29 31 30 29 31 31 28 28 31 34 35 35 30 28 31 29 20 19 21 22 25
36 35 38 37 35 31 31 28 24 20 20 18 17 16 16 16 18 20 19 19 20 23 20 22 29 30 31 27 31 29 32 32 32 30 35 34 35 28 31 29 25 25 28 29 33
39 36 36 38 36 30 28 27 24 21 19 18 16 16 18 16 15 15 14 17 19 19 17 21 28 31 29 29 33 33 32 33 32 33 34 34 38 39 37 35 33 34 36 34 33
42 39 37 38 33 31 27 26 24 22 20 20 19 19 17 12 11 12 10 11 15 16 15 20 23 28 29 30 33 34 33 31 31 28 27 27 31 38 43 38 37 39 38 35 36
43 40 38 38 31 30 27 27 24 25 24 23 18 19 19 17 13 16 14 14 13 13 12 12 20 22 28 30 33 34 33 32 34 31 27 26 28 28 31 33 37 38 36 37 39
43 39 38 38 33 30 29 28 25 25 25 23 23 24 24 20 19 16 16 16 16 15 9 11 14 17 22 28 34 38 38 37 38 32 32 31 30 30 33 31 34 38 33 33 38
42 38 38 35 34 31 30 27 26 27 24 24 26 26 26 22 21 20 17 18 18 15 14 12 13 17 22 25 25 30 38 39 38 35 32 29 32 30 34 37 40 38 37 37 35
42 41 38 37 34 33 30 28 27 26 22 26 26 28 30 27 22 21 22 23 20 18 18 18 14 13 18 19 24 29 35 34 34 38 33 31 33 32 32 33 36 41 41 44 41
40 39 38 37 35 33 31 30 29 25 24 28 29 32 26 24 22 23 25 24 23 25 24 22 19 17 16 23 25 24 29 34 31 31 29 31 35 34 32 35 40 38 41 37 38
40 39 39 38 35 32 31 30 31 26 27 28 34 36 26 23 25 24 26 22 24 26 27 22 24 21 21 26 26 24 25 30 32 32 31 37 36 37 40 42 41 35 30 36 40
40 38 39 38 36 33 31 30 33 32 34 31 23 23 22 22 24 25 23 21 23 24 25 24 26 25 26 28 30 30 27 31 32 36 34 38 37 41 43 40 37 35 34 37 39
38 37 36 36 36 34 32 31 32 36 29 25 23 23 23 23 25 24 22 23 24 24 26 27 26 29 29 28 30 31 32 29 33 28 34 28 37 37 30 28 28 30 31 35 34
36 34 34 35 36 35 34 29 35 34 34 30 22 21 21 22 24 21 22 23 25 24 26 27 27 29 27 28 31 31 30 32 35 32 33 30 32 31 30 32 36 35 35 32 35
31 30 33 34 35 36 34 31 34 32 34 28 21 21 21 22 23 23 22 22 23 23 24 25 25 27 23 28 31 31 24 31 35 36 32 31 28 31 33 34 36 35 31 30 29

GFSSW_500_spd_096.txt.gz
Wind_Speed
23 24 23 23 23 23 23 24 27 29 32 34 33 30 27 30 33 38 38 38 37 36 37 36 36 34 33 33 32 32 33 31 31 36 36 36 37 39 39 42 49 53 59 55 57
21 23 24 23 24 24 23 24 24 25 28 31 34 33 29 28 28 33 40 38 38 37 38 39 37 35 35 35 35 34 34 34 37 37 39 38 38 39 40 44 51 57 59 61 59
24 22 23 26 25 24 23 22 22 23 24 29 30 32 30 28 28 29 33 38 40 39 39 39 37 36 37 37 36 36 33 35 36 38 39 40 39 39 40 44 50 59 63 66 67
26 23 25 24 26 24 22 22 21 20 21 22 25 30 29 29 29 30 30 32 38 37 38 37 36 37 38 38 37 33 34 34 36 39 41 42 40 41 42 42 49 59 68 68 69
28 26 26 28 29 27 25 23 21 21 21 22 21 23 26 27 31 25 27 27 33 36 37 36 36 38 38 36 34 30 34 33 37 40 42 42 42 43 44 45 46 57 70 64 72
27 30 27 27 28 27 27 27 24 21 20 20 19 20 24 27 25 24 27 28 30 33 35 36 38 39 37 35 30 35 33 33 36 39 40 41 40 40 33 32 44 65 75 67 70
29 30 28 26 28 29 27 26 26 24 21 20 19 19 23 28 23 24 26 28 29 32 34 37 39 37 34 33 32 34 30 31 35 36 35 37 27 23 23 24 48 70 72 51 64
34 33 31 28 27 27 29 27 27 27 28 26 25 21 23 21 23 26 28 30 32 32 35 36 36 35 33 34 32 31 28 32 38 32 34 30 12 18 16 21 49 66 49 46 48
32 32 31 31 31 29 28 29 29 31 31 30 28 25 22 22 25 26 25 27 29 31 34 34 33 33 32 32 29 27 29 35 35 30 27 20 9 13 20 20 40 40 33 39 33
33 32 32 32 33 32 29 29 30 29 28 28 26 25 24 22 23 26 29 29 28 30 32 31 31 30 29 27 26 32 32 34 33 26 25 18 11 9 16 28 28 42 36 32 31
33 33 34 35 35 35 33 30 30 30 29 26 25 24 21 22 23 24 26 26 27 29 31 31 27 23 23 30 31 34 33 33 30 27 24 18 14 14 17 20 30 37 29 30 31
35 33 34 35 36 36 35 33 32 31 29 24 25 24 21 23 23 24 25 24 23 22 27 28 21 21 30 33 31 34 32 29 31 27 28 22 16 17 18 16 28 36 31 26 29
36 35 36 40 37 37 34 32 33 30 28 26 25 24 22 22 23 24 25 25 25 25 26 26 27 34 38 36 32 31 31 26 29 32 32 25 21 20 23 20 29 35 34 27 26
40 40 35 41 39 39 40 33 32 32 28 26 23 23 22 20 21 21 24 25 26 25 29 28 30 26 27 29 29 31 27 28 32 32 32 31 27 25 27 27 30 30 30 30 21
42 41 38 40 41 39 37 36 33 31 28 25 22 20 19 18 19 21 22 22 24 26 28 22 30 30 30 26 32 28 29 31 32 31 30 34 34 30 32 30 30 30 30 27 27
41 42 41 42 43 39 36 32 32 31 26 26 23 22 20 19 20 20 21 23 23 23 24 27 28 27 24 27 30 31 29 31 31 31 32 29 35 38 34 30 32 30 33 32 32
44 42 41 45 44 39 38 34 33 29 28 24 24 24 21 22 21 18 18 18 17 20 20 25 25 23 25 27 29 31 29 30 32 34 31 29 30 29 33 35 37 38 34 33 32
47 44 44 43 43 40 38 37 34 29 28 25 27 25 23 22 19 19 17 17 14 13 18 20 20 22 25 28 31 32 33 33 34 35 32 32 34 27 27 30 29 30 32 36 36
48 50 44 42 43 42 41 40 31 27 32 27 28 25 25 24 20 16 17 17 18 15 13 17 19 16 19 23 29 29 32 32 35 35 35 35 33 33 32 28 30 28 30 29 32
49 48 45 42 43 43 43 37 31 30 31 30 29 27 26 27 24 24 21 22 23 20 18 16 16 16 17 20 23 29 33 38 40 39 40 33 29 31 33 33 30 32 32 33 34
50 48 45 42 43 45 42 36 31 32 30 31 29 28 28 30 29 28 27 24 22 18 18 16 19 18 16 20 24 29 32 32 32 36 40 35 35 33 32 31 30 31 30 32 33
50 49 45 43 44 43 38 34 34 32 33 32 30 29 30 29 37 25 30 25 23 22 22 21 21 18 17 21 23 26 28 27 30 34 35 35 33 31 31 29 30 31 33 32 34
51 45 43 43 42 38 36 36 36 33 33 34 30 29 30 33 33 34 31 23 21 24 27 23 25 23 22 22 23 24 25 28 30 32 33 37 33 27 26 30 34 39 37 36 36
47 42 41 39 39 37 36 35 35 33 34 34 36 28 27 30 37 32 25 23 22 24 25 24 26 23 23 26 25 27 28 31 31 30 30 35 31 31 32 36 39 41 42 39 35
39 36 35 35 35 37 36 35 34 34 32 33 28 26 26 25 23 20 25 25 24 25 25 26 25 23 24 27 29 30 31 33 33 32 32 28 35 36 36 37 40 42 40 35 33
35 31 29 30 33 35 33 34 33 33 32 34 33 34 28 24 25 23 26 25 25 25 25 24 23 23 24 28 31 34 31 30 33 34 33 31 33 29 31 34 36 37 36 35 37
28 27 27 29 32 32 33 34 32 31 31 36 37 34 30 25 22 22 23 23 24 22 23 24 23 24 24 27 32 34 24 28 30 34 35 33 28 32 32 33 34 34 37 37 35

GFSSW_500_spd_102.txt.gz
Wind_Speed
22 23 24 25 23 20 20 21 22 22 22 21 21 23 23 27 28 29 34 32 34 39 41 41 40 39 39 38 38 39 40 37 35 37 34 40 42 39 40 41 43 46 44 45 47
22 22 23 26 28 26 22 20 22 22 23 24 23 22 23 23 23 26 33 34 33 34 40 42 43 43 42 40 39 40 40 38 38 38 37 38 39 40 39 39 41 43 45 44 42
23 24 26 29 28 28 28 26 25 23 23 23 23 23 24 25 24 23 27 33 34 32 35 38 40 42 43 42 41 40 38 39 38 37 34 33 36 40 38 39 37 38 43 46 39
26 27 29 30 31 29 28 26 25 23 24 25 23 23 24 25 26 22 23 28 32 32 32 34 38 41 42 44 44 42 40 38 37 36 34 35 35 38 38 38 35 36 40 43 43
27 31 33 34 35 31 31 33 32 29 27 26 26 23 23 23 25 20 21 25 30 33 33 32 35 41 42 43 43 42 40 39 37 36 34 36 36 37 36 37 35 37 37 41 43
28 31 33 32 33 32 33 34 33 33 30 29 28 27 26 26 27 23 23 23 27 30 32 33 33 38 42 41 41 40 39 36 35 37 36 38 38 36 36 37 36 37 38 40 43
31 33 32 34 34 34 35 35 35 35 34 33 30 29 30 28 29 28 26 24 27 29 32 33 33 35 39 39 40 37 36 35 35 38 39 39 36 36 35 36 35 35 36 40 43
35 36 35 33 34 34 34 35 36 36 35 35 33 30 31 28 27 28 29 30 28 31 32 32 33 35 35 37 34 34 35 36 38 40 40 37 35 32 33 34 35 35 33 36 41
39 41 41 38 36 37 37 37 38 36 36 36 36 33 34 29 27 27 31 32 31 28 26 29 31 33 33 32 33 33 33 35 40 40 42 36 33 32 31 33 32 31 31 37 41
43 44 44 43 41 41 43 40 40 39 39 38 35 35 33 31 28 27 31 30 31 30 28 28 28 28 31 31 31 33 34 35 37 41 39 35 28 31 34 30 28 28 30 34 34
48 46 44 46 47 46 46 45 43 41 39 38 38 35 34 30 28 28 29 31 30 30 29 30 30 28 27 29 32 34 35 38 38 42 38 32 29 28 33 26 26 26 21 17 20
49 50 53 52 54 51 50 48 44 46 41 39 39 34 37 30 29 30 29 30 29 29 31 29 28 25 30 32 33 34 36 35 36 38 38 32 27 29 29 26 26 23 22 14 17
59 59 58 56 57 54 54 47 46 47 46 39 40 38 38 30 31 31 30 29 30 32 29 28 28 30 30 30 32 37 35 34 31 37 37 31 24 26 27 28 26 22 23 17 17
65 63 61 56 54 53 55 50 49 49 50 44 41 39 36 31 33 31 29 30 31 29 30 30 30 30 31 34 34 33 34 28 28 32 29 30 22 27 30 31 28 26 24 23 19
69 64 59 54 46 50 49 48 49 48 49 44 41 34 30 28 29 26 27 29 28 28 31 27 29 30 31 31 32 31 30 31 32 30 30 32 27 19 29 32 28 25 25 23 21
73 67 59 57 47 51 49 47 47 46 51 42 38 36 31 30 27 26 25 25 27 27 28 30 31 33 30 30 32 28 29 30 30 31 35 28 27 19 23 26 25 25 26 26 25
71 65 62 56 49 51 49 49 48 50 44 42 34 31 30 27 28 26 25 25 25 25 25 26 28 27 29 29 31 30 27 22 24 28 27 22 31 22 33 29 24 27 30 32 32
73 69 63 58 55 52 52 53 53 49 47 44 34 31 28 26 26 25 27 27 26 25 27 28 31 29 27 26 26 29 28 20 20 18 19 32 33 24 36 27 25 23 23 27 31
73 69 61 57 55 53 53 57 53 49 48 35 31 32 29 29 25 26 25 25 22 21 22 23 25 25 27 24 25 21 26 24 27 27 26 17 21 30 32 26 25 25 26 25 25
74 65 58 52 49 53 57 55 51 46 47 30 31 27 28 27 28 29 27 27 27 22 22 22 21 23 24 24 25 27 21 26 27 24 25 20 23 24 23 22 24 25 26 27 28
63 52 46 42 43 49 53 51 48 46 38 31 35 32 33 29 32 33 32 31 31 24 23 23 21 22 21 21 19 25 28 30 30 26 28 24 20 25 28 27 26 28 26 25 25
51 42 39 37 39 40 41 37 40 39 32 30 35 34 33 34 34 34 37 37 37 30 30 26 24 25 20 24 21 25 22 22 24 23 24 26 25 30 30 31 24 25 29 28 26
43 34 32 30 27 27 29 25 25 30 30 33 34 35 33 29 32 38 36 37 38 35 36 33 30 28 30 29 29 26 22 23 23 23 21 21 17 23 21 26 27 26 25 24 24
36 26 23 18 18 19 20 20 22 25 28 34 32 34 38 34 34 34 34 36 38 40 42 37 32 31 29 26 28 29 28 30 31 25 21 23 21 25 22 23 24 24 26 25 25
27 18 11 10 11 13 17 18 22 23 23 32 33 33 29 36 35 33 29 31 23 25 24 30 33 34 36 33 26 32 30 30 30 25 27 19 21 24 26 27 26 25 25 26 26
22 11 5 10 11 12 15 19 19 19 21 21 27 31 29 27 36 30 27 29 28 25 22 28 28 29 34 31 31 36 36 32 29 28 27 25 27 28 30 29 28 28 28 29 33
8 7 6 11 7 10 11 14 18 8 20 20 21 30 25 26 26 31 36 32 34 33 27 31 31 28 28 29 28 32 28 26 27 29 29 30 25 29 25 27 28 29 31 31 33

GFSSW_500_spd_105.txt.gz
Wind_Speed
21 20 22 22 25 26 25 24 23 20 19 20 22 24 24 25 27 27 27 29 30 33 37 39 42 43 41 40 38 37 39 37 32 33 34 40 48 47 45 47 49 46 45 56 59
19 19 21 24 26 26 28 27 24 22 23 22 22 23 25 25 27 28 30 26 28 30 35 39 41 44 45 42 41 40 41 37 36 40 43 42 46 44 42 40 43 43 42 46 50
20 21 23 25 25 27 28 27 26 27 27 25 26 26 25 25 27 26 31 31 30 30 34 37 38 41 45 45 43 42 41 41 41 44 42 42 43 44 43 40 43 43 43 43 43
24 24 26 27 29 27 26 27 27 29 29 28 26 26 26 28 28 23 26 28 29 29 31 36 36 38 42 46 46 44 44 42 44 43 40 40 41 42 43 43 42 42 41 43 43
27 28 30 31 33 33 30 31 30 30 30 29 30 29 26 26 29 23 27 28 28 29 30 34 35 36 40 44 46 47 45 43 45 43 40 41 41 42 43 40 40 40 40 40 44
30 31 32 31 30 33 35 32 32 31 32 31 31 29 29 30 26 26 30 32 30 28 29 33 34 35 38 42 46 45 42 45 44 44 42 41 41 43 41 40 39 40 37 39 40
34 36 38 37 36 32 33 34 37 37 35 33 32 32 33 34 28 28 29 30 31 29 29 31 34 34 36 38 39 43 43 39 42 43 42 42 42 42 39 42 39 37 35 35 37
36 37 38 40 42 42 39 38 39 41 41 39 37 35 33 34 32 30 27 30 30 32 30 31 32 33 34 36 38 38 39 38 38 41 43 44 40 41 41 40 37 35 35 35 34
43 42 42 43 45 46 47 46 44 45 44 44 42 37 36 34 33 33 29 30 31 32 30 32 34 33 34 35 34 34 35 35 33 37 45 44 36 41 39 36 35 33 33 33 34
48 48 47 47 47 48 51 52 53 51 50 46 45 43 41 37 36 35 31 31 32 32 30 30 32 31 33 31 32 33 32 30 24 30 40 44 35 39 35 36 32 31 30 32 32
52 52 53 55 54 56 57 59 59 57 52 50 49 43 43 40 39 38 33 32 34 32 26 29 34 33 27 27 26 31 26 34 25 24 31 32 32 32 31 37 31 30 29 28 30
54 55 57 59 61 60 60 60 62 61 62 49 49 47 44 44 44 40 34 33 34 31 30 35 33 27 30 32 32 34 36 27 30 42 34 30 28 34 33 37 31 31 27 27 29
59 57 61 64 64 65 63 62 58 56 61 53 48 48 43 48 44 42 35 33 35 35 34 31 26 31 33 35 35 33 37 34 31 23 33 38 35 33 32 35 32 30 28 28 30
62 63 66 68 67 57 65 55 53 52 58 56 49 47 45 43 46 41 35 34 39 35 32 31 30 33 34 34 34 33 33 37 35 33 26 28 29 31 31 36 33 33 30 30 33
66 71 70 67 62 58 61 55 51 50 58 51 56 41 40 41 35 36 30 37 35 33 34 32 29 34 33 32 33 32 31 34 38 37 25 23 26 20 25 28 36 36 34 34 33
72 73 74 69 59 60 59 56 55 57 65 48 52 41 38 33 35 34 33 32 30 33 34 29 29 32 31 31 33 33 33 32 27 28 35 30 24 21 24 24 25 33 35 35 35
78 79 73 72 64 63 60 60 61 65 44 36 43 44 38 32 31 38 32 33 33 33 32 27 32 31 33 33 33 32 29 24 23 26 29 22 30 25 32 24 35 40 32 32 33
79 75 71 67 64 63 58 56 63 61 57 47 27 24 36 33 29 32 32 34 31 28 23 26 31 32 29 30 29 32 28 23 21 16 19 20 26 30 36 38 16 34 29 31 33
75 65 61 65 64 53 47 52 51 49 50 31 51 23 29 27 24 34 33 30 28 28 25 23 25 21 27 25 26 23 31 26 26 30 22 25 26 32 32 37 47 40 33 31 30
65 58 60 55 51 45 43 43 42 42 44 43 37 44 47 31 32 33 29 28 28 27 23 23 20 29 25 27 31 29 24 26 35 26 28 22 28 27 24 30 27 31 34 33 32
54 53 52 47 43 38 33 34 33 33 39 36 37 37 35 31 38 30 33 24 29 27 29 30 28 27 26 30 27 31 32 33 28 33 27 28 27 25 24 28 20 25 30 33 33
47 45 45 40 35 26 23 20 21 31 29 41 33 44 40 38 37 32 36 40 35 34 35 31 25 29 30 19 24 21 22 30 32 28 31 28 24 28 23 30 35 29 26 32 36
39 39 37 23 19 14 17 17 24 18 26 31 34 42 45 41 23 32 25 46 47 38 39 31 35 31 25 28 29 29 34 23 29 33 31 27 28 26 25 28 32 33 35 31 30
37 33 25 15 17 14 13 11 14 18 17 24 20 25 38 45 40 37 32 36 35 36 37 39 36 35 32 25 27 26 27 24 23 25 22 24 19 20 20 23 27 30 28 29 30
34 28 20 11 13 13 13 12 12 17 17 24 20 30 32 38 37 38 34 32 28 32 34 36 41 38 38 36 29 37 26 26 30 22 25 16 15 25 24 27 25 27 26 25 26
26 22 15 11 11 10 11 10 15 17 14 17 16 19 24 23 26 30 36 26 29 31 33 40 46 42 40 37 14 30 27 26 28 25 22 22 25 30 24 29 25 30 27 28 30
21 15 12 12 7 6 11 12 15 15 13 11 22 27 22 20 26 29 23 24 24 22 23 23 32 34 39 37 38 39 35 32 25 27 28 26 24 26 31 32 38 32 31 30 31

GFSSW_500_spd_108.txt.gz
Wind_Speed
21 21 21 22 25 26 26 25 24 20 16 16 17 18 19 20 22 22 23 25 25 26 29 31 34 37 42 42 41 39 39 39 35 33 32 26 38 50 56 53 48 52 45 45 52
20 19 20 21 24 25 26 28 28 25 22 21 20 20 19 18 20 19 20 23 26 28 28 30 31 37 40 44 44 44 43 37 32 30 23 27 37 53 59 44 44 47 44 46 56
21 22 21 23 25 26 27 26 28 28 27 27 25 22 22 20 21 14 22 22 26 28 31 30 32 34 40 43 46 47 43 41 38 35 40 43 47 55 42 41 38 41 41 41 47
24 23 23 25 26 26 28 30 29 28 29 29 28 26 26 23 25 14 21 25 24 29 31 30 31 33 37 40 43 48 47 46 42 43 48 46 42 46 40 41 39 40 43 41 42
23 25 27 28 29 30 29 27 31 32 31 31 32 31 29 25 27 24 23 24 24 27 32 31 31 30 34 38 39 44 47 50 46 45 48 43 41 45 43 45 41 41 43 41 43
27 28 30 32 32 32 35 35 32 32 35 37 36 36 35 30 28 30 27 30 27 29 32 34 28 30 34 36 39 39 44 48 49 48 51 44 42 45 41 44 42 41 41 41 40
35 35 36 36 35 36 36 36 39 39 40 38 39 40 39 38 33 32 31 31 30 28 32 33 31 32 31 35 37 38 41 45 50 51 50 47 44 43 42 45 40 41 39 39 39
40 40 40 42 42 40 41 42 42 43 45 46 48 48 43 42 39 36 34 34 32 30 31 34 33 33 32 33 37 38 41 41 44 47 46 46 43 44 42 45 42 43 38 37 37
41 44 48 47 46 46 47 46 46 47 49 51 51 52 48 46 43 40 37 36 36 33 31 35 35 33 34 36 36 40 37 36 37 40 42 44 44 37 40 45 43 41 38 36 35
47 48 49 50 51 52 50 52 53 53 54 54 53 52 49 48 43 43 41 40 38 37 36 34 37 35 38 39 37 33 31 33 33 34 25 33 46 34 29 45 43 36 36 36 36
50 52 54 56 57 55 54 56 57 57 56 52 54 52 50 47 45 41 41 41 42 42 35 34 40 39 30 30 28 30 27 29 30 22 24 40 36 29 31 39 38 38 34 34 35
60 58 57 57 59 59 61 62 65 62 62 61 55 56 46 47 47 42 43 45 44 39 34 37 42 28 30 34 32 32 31 23 23 29 24 27 28 32 33 23 29 38 33 33 31
62 64 62 62 62 64 63 66 65 67 71 66 67 56 46 49 49 47 44 43 44 40 39 37 34 30 33 36 35 33 33 27 22 26 29 27 33 32 39 29 25 32 35 33 30
66 66 66 68 66 66 68 73 69 70 74 74 70 67 56 49 50 49 46 43 42 42 37 37 36 35 35 37 35 35 32 32 28 30 25 28 43 40 35 29 29 39 30 28 27
66 68 70 71 70 70 69 66 63 63 70 60 51 60 50 45 38 43 43 43 41 41 38 37 36 34 36 34 33 32 26 28 29 29 38 36 28 21 19 30 42 40 38 26 37
69 70 73 74 74 70 64 60 60 64 73 60 34 31 45 39 35 37 41 45 38 39 37 37 33 32 31 30 31 27 29 23 22 26 39 35 37 26 23 24 24 28 29 34 45
74 78 77 76 67 63 58 63 62 66 58 54 42 38 43 35 34 33 40 45 43 44 40 33 33 27 30 34 29 32 31 28 27 32 34 20 25 25 22 24 31 35 32 34 29
80 77 70 66 62 60 63 62 59 47 37 33 34 32 35 34 34 34 38 42 39 37 34 30 33 35 33 36 31 36 35 34 33 24 21 21 28 19 30 27 36 46 43 37 33
73 66 62 59 57 58 53 48 39 34 27 23 29 34 44 50 33 42 45 47 38 38 36 29 29 25 36 29 37 32 35 27 25 31 24 26 25 19 34 42 35 41 32 31 36
68 60 59 53 53 46 42 39 32 26 24 23 35 33 40 45 47 40 41 46 27 31 33 30 30 28 27 26 28 37 23 25 35 36 36 26 27 26 33 35 41 38 38 34 38
59 50 45 45 38 37 34 27 23 15 26 28 29 36 35 42 29 45 38 37 27 26 32 33 34 40 32 35 28 34 38 40 35 38 29 30 35 33 31 37 35 36 37 45 44
47 43 41 33 31 21 19 19 19 19 27 23 33 30 30 41 49 30 39 48 47 45 41 34 31 43 35 25 23 35 35 39 32 37 40 24 38 31 36 35 35 34 34 32 28
40 39 34 23 16 15 20 20 20 20 21 14 26 23 27 36 37 43 38 35 47 38 41 35 42 25 29 37 30 32 27 30 34 35 18 32 35 31 29 21 26 37 24 28 27
39 33 25 16 20 16 24 16 15 19 17 16 24 24 22 27 40 36 31 21 29 43 42 44 43 44 37 35 33 37 42 32 31 36 32 35 32 27 30 36 22 26 32 28 27
36 27 22 15 17 21 20 20 14 13 17 20 13 15 17 20 35 31 13 22 25 41 38 48 41 38 32 26 40 33 31 38 30 31 31 21 25 21 24 17 22 22 25 32 27
29 21 18 16 16 15 16 13 17 18 18 18 11 21 21 11 25 24 23 19 17 31 53 38 43 31 33 20 31 33 34 30 22 13 22 19 27 36 23 26 25 28 33 32 29
18 16 14 13 13 9 12 15 14 17 15 16 12 12 21 29 19 24 33 35 17 25 33 35 39 39 36 36 28 27 14 40 31 26 22 16 17 26 24 28 22 26 28 35 35

GFSSW_500_spd_111.txt.gz
Wind_Speed
17 16 17 17 17 20 21 20 19 19 20 20 19 20 19 18 16 13 16 15 12 20 24 26 26 29 31 35 39 43 44 40 35 35 32 30 32 40 37 41 49 55 55 51 42
14 15 17 18 20 21 21 22 23 24 22 20 21 22 20 18 18 16 17 19 17 19 22 26 28 31 32 33 38 41 43 41 37 34 31 34 38 45 51 48 44 46 50 49 48
16 17 17 17 18 20 20 21 22 24 25 26 24 22 21 20 21 15 23 18 20 20 26 28 30 31 32 33 35 38 36 40 42 37 33 35 45 50 52 59 57 49 43 41 48
20 22 23 24 25 27 28 29 28 27 26 26 28 28 28 24 24 20 22 23 23 22 23 25 28 31 33 34 33 36 38 42 43 42 43 44 46 51 55 56 46 31 36 36 42
27 27 28 29 30 31 32 33 34 35 31 30 30 29 29 29 29 27 23 27 28 27 26 29 29 31 33 32 35 36 37 41 42 44 44 48 48 48 47 45 42 37 35 36 36
31 32 34 35 36 36 36 35 37 38 38 39 38 36 35 28 36 36 32 29 31 29 30 30 31 34 36 37 36 32 35 41 43 43 46 49 52 48 45 47 44 39 36 38 37
33 32 33 35 36 39 39 38 38 40 42 45 48 46 41 27 41 37 35 36 35 34 33 32 33 36 34 37 33 33 37 40 45 43 43 48 54 48 46 46 44 41 36 37 37
35 35 37 39 40 42 44 42 42 43 44 47 50 49 43 35 46 39 39 38 37 36 36 37 36 36 37 36 38 39 40 40 41 39 38 47 50 49 49 47 45 45 41 36 36
40 42 44 48 51 50 48 48 48 50 52 54 53 50 46 44 45 43 43 40 38 38 39 40 40 36 37 41 41 42 42 37 32 34 38 41 43 45 47 46 45 46 42 37 35
48 49 51 52 52 52 52 53 53 52 58 57 56 58 55 49 45 45 43 41 42 44 43 44 44 38 43 44 40 35 38 36 34 30 35 36 38 39 39 43 43 43 44 38 36
50 51 53 57 60 62 59 60 60 57 56 57 61 60 55 51 53 47 42 44 45 46 45 45 43 43 39 30 29 34 37 39 34 27 31 31 33 35 23 36 40 42 43 38 35
55 55 57 59 61 62 63 63 65 67 60 58 59 60 55 46 54 55 50 48 47 46 45 48 46 41 34 33 38 36 38 41 35 16 25 25 26 30 28 29 28 29 41 35 32
55 54 56 60 62 66 65 70 70 70 69 60 63 62 57 59 58 57 57 51 51 49 49 48 42 35 35 35 40 38 38 36 31 19 28 26 28 36 38 36 25 22 28 31 32
63 65 67 65 67 69 70 74 74 74 76 68 64 64 61 63 61 54 59 56 54 52 48 48 40 40 41 38 40 39 34 31 32 29 33 36 38 41 37 42 35 29 34 27 30
72 72 73 77 77 73 77 68 64 63 73 58 51 52 50 49 43 42 40 52 54 49 50 45 41 41 41 37 38 36 31 33 37 39 36 42 45 46 34 37 47 38 36 33 26
78 80 81 83 75 71 61 58 61 62 69 53 44 42 33 32 29 29 33 42 44 43 48 44 38 39 37 37 36 25 30 29 32 42 46 43 43 36 32 25 26 37 42 45 37
86 89 89 85 69 60 55 59 61 62 54 44 35 37 42 34 24 35 30 35 44 44 47 46 42 36 36 34 27 23 32 31 36 39 44 36 39 38 32 32 25 31 33 38 34
89 89 76 66 57 56 55 56 56 40 31 28 25 35 31 47 51 44 36 34 39 38 37 43 45 41 37 36 33 39 34 43 43 39 32 24 30 15 21 38 33 36 36 34 23
89 77 65 53 51 51 47 42 29 25 28 26 29 39 43 27 24 49 36 46 41 44 30 38 35 27 34 32 37 32 41 36 33 36 32 28 25 17 20 28 31 37 40 34 28
80 61 52 46 44 40 32 22 23 20 24 22 17 22 49 33 26 24 26 47 45 38 22 32 33 29 28 30 39 35 35 37 39 37 36 28 27 25 33 32 32 33 37 36 37
65 51 43 34 31 24 24 13 16 15 18 18 22 29 23 41 31 34 22 51 46 47 36 31 39 36 41 40 33 37 40 36 31 40 40 31 27 31 37 37 34 36 38 40 39
59 45 38 27 15 25 14 16 19 20 15 18 24 24 20 25 45 41 27 28 42 54 48 37 44 42 43 47 43 35 33 38 37 38 41 37 32 31 33 39 44 37 37 39 41
52 40 32 18 10 14 14 25 23 22 20 18 17 17 23 26 31 44 33 30 43 26 45 38 48 44 41 38 47 38 32 44 37 35 39 40 32 23 32 28 41 35 32 36 41
49 34 24 11 12 17 21 24 12 14 18 19 16 12 15 23 23 27 38 38 21 27 40 39 45 48 41 41 40 36 33 42 35 41 39 38 32 37 21 27 31 21 27 24 20
40 29 21 11 18 24 22 22 15 15 18 21 17 19 15 20 19 17 24 24 30 28 41 40 39 39 35 39 40 41 35 33 41 43 41 17 29 19 29 23 21 26 34 32 29
34 26 15 11 16 15 13 11 15 13 23 14 18 18 15 15 19 19 17 18 20 25 52 47 40 37 36 26 37 41 36 40 36 33 34 28 26 33 20 22 26 17 16 22 25
27 18 8 9 8 9 8 2 14 19 14 16 17 18 11 14 5 13 29 18 12 18 38 43 41 41 35 29 35 40 42 37 39 34 31 22 21 19 19 14 16 23 23 23 23

GFSSW_500_spd_114.txt.gz
Wind_Speed
12 12 12 12 12 14 14 14 14 14 14 15 16 17 20 19 18 15 20 21 24 26 29 29 28 30 31 32 34 35 33 31 33 34 23 29 38 42 49 44 54 55 51 43 48
14 14 14 14 15 16 18 19 18 19 19 20 20 19 19 19 19 18 19 22 22 26 26 28 29 30 29 31 32 33 31 29 29 33 31 30 36 41 47 51 53 55 51 49 50
20 20 20 20 21 22 23 24 25 26 24 26 27 24 22 18 21 24 27 22 23 22 26 26 29 30 32 31 33 31 29 31 33 36 38 32 36 43 47 52 54 49 48 45 46
25 25 25 26 28 28 29 29 30 31 31 33 32 31 24 22 25 29 28 27 27 27 26 28 29 30 31 32 29 32 33 35 33 37 41 40 41 43 46 49 55 57 52 54 54
25 26 28 30 32 32 33 33 34 36 36 37 36 35 32 27 24 35 27 31 30 31 30 30 31 33 31 32 35 34 33 35 37 39 41 41 43 45 46 46 48 52 57 52 48
29 30 31 29 30 33 34 34 36 38 38 39 40 38 35 34 41 40 29 31 35 34 33 34 34 36 37 38 36 35 36 37 40 40 41 44 46 50 49 49 49 45 38 37 40
31 32 34 35 36 37 40 43 43 41 40 41 41 40 38 29 46 43 39 34 38 38 38 37 40 39 38 39 40 38 40 41 43 44 41 41 48 52 50 52 51 47 41 37 39
37 39 40 41 42 45 47 47 48 47 45 46 43 44 39 36 46 48 50 43 43 42 41 42 43 43 41 41 41 42 42 45 40 40 38 39 41 45 49 51 49 48 46 41 42
47 46 46 48 49 49 49 52 54 55 56 56 54 53 48 51 48 49 52 48 43 44 43 44 44 42 44 44 43 45 46 39 35 37 38 38 39 40 44 48 48 48 48 46 44
49 48 50 50 51 50 51 53 57 60 61 64 62 62 57 56 58 51 49 49 49 47 47 47 46 43 45 47 44 43 34 33 36 32 37 37 40 36 36 46 47 49 47 45 44
49 51 51 51 52 54 55 57 62 61 59 58 62 60 59 58 58 58 53 51 51 52 50 51 48 44 44 45 42 38 39 41 39 31 37 38 37 33 32 37 43 45 45 44 45
49 51 53 56 60 65 68 68 73 74 69 68 66 66 62 63 61 59 62 56 54 51 51 54 51 46 47 46 42 42 42 45 38 37 39 38 39 34 35 34 39 36 37 40 40
57 61 62 66 70 74 76 79 82 85 85 77 74 73 72 71 65 64 63 62 58 55 53 55 48 48 47 45 44 44 43 42 40 29 36 37 43 34 34 33 29 31 26 25 32
65 71 74 79 84 84 86 88 82 80 84 80 67 66 66 69 64 62 63 64 63 59 58 58 48 51 50 47 45 47 41 38 37 32 37 34 40 35 29 27 31 31 25 29 31
77 82 89 96 100 95 92 72 65 64 71 53 45 46 49 51 50 48 52 58 58 53 57 54 53 53 53 48 45 44 37 36 32 32 34 39 41 34 33 34 39 31 34 31 33
88 94 100 106 93 83 67 61 61 61 61 45 37 40 39 42 46 44 41 43 41 43 47 49 46 48 46 43 44 41 35 35 34 37 46 41 44 39 39 40 41 42 40 39 38
98 99 98 93 73 59 52 56 53 51 43 34 34 40 47 46 43 43 36 44 48 40 45 48 50 49 45 46 42 45 39 39 43 50 53 44 46 43 37 39 34 47 49 45 43
102 95 87 74 60 52 46 45 40 28 26 25 30 38 44 44 50 44 42 42 45 47 37 40 47 49 46 48 45 44 42 44 48 51 51 46 45 41 25 31 34 40 37 41 46
101 84 75 59 49 43 33 22 18 20 18 23 24 25 30 34 46 50 52 54 52 48 43 33 36 35 42 44 42 43 43 37 38 41 45 45 41 30 34 39 44 40 36 36 37
93 73 64 50 39 29 22 16 12 11 13 15 17 9 4 33 44 38 40 36 39 48 51 39 32 33 32 40 39 43 39 39 44 44 42 37 31 29 35 36 36 41 44 46 40
79 65 55 40 25 15 19 15 8 14 24 18 22 21 14 17 39 43 29 33 44 46 41 45 32 36 42 45 46 48 41 43 38 36 39 34 34 29 30 34 28 26 30 37 34
70 56 46 27 14 25 11 14 15 17 22 22 18 19 17 17 19 31 40 24 43 35 46 39 31 37 43 45 52 47 45 41 39 41 39 36 35 33 32 31 34 30 31 33 32
65 45 37 19 17 22 17 15 21 18 12 12 15 15 13 12 14 18 20 41 26 35 29 50 43 38 42 47 52 51 47 40 35 35 38 35 36 36 34 32 28 34 36 35 37
61 44 26 16 23 21 15 11 11 13 16 18 18 18 14 14 16 20 18 26 33 13 46 32 41 43 48 45 43 39 42 36 34 38 37 37 36 35 32 22 21 40 38 40 38
55 40 28 13 20 20 16 10 8 13 11 11 14 14 16 15 17 18 14 23 26 19 25 29 42 41 42 39 38 44 37 35 35 36 39 33 29 28 30 24 25 12 27 44 37
48 35 21 13 14 18 17 9 8 16 8 16 11 15 14 16 12 18 16 21 31 29 26 36 36 36 42 39 35 46 45 38 32 33 34 33 32 31 25 34 23 36 26 18 16
37 27 14 8 6 8 14 15 7 7 2 7 11 13 12 8 11 19 20 20 28 11 23 39 30 40 43 36 29 35 37 40 29 31 36 34 30 29 17 25 15 17 19 11 6

GFSSW_500_spd_117.txt.gz
Wind_Speed
14 14 14 13 13 13 13 14 15 16 16 15 16 17 17 19 22 24 27 33 30 30 32 33 34 36 37 36 35 35 33 29 30 29 23 27 32 38 47 50 49 53 56 56 58
16 16 17 20 21 21 21 22 22 22 22 21 20 20 20 20 21 28 30 32 32 28 27 32 37 37 38 37 35 34 30 27 28 30 27 33 34 36 40 47 52 52 55 58 61
21 24 24 23 24 25 27 28 29 30 29 29 29 28 27 24 24 30 32 31 32 32 29 34 33 32 33 33 35 33 31 31 30 33 34 37 40 40 39 43 47 54 55 61 62
25 25 25 26 26 27 28 29 31 32 33 33 33 33 33 31 28 38 33 29 34 36 34 35 35 33 33 33 34 35 34 36 31 32 36 38 40 42 43 40 44 48 54 59 64
25 26 27 28 29 31 31 32 34 35 36 37 38 38 38 35 29 44 36 34 36 39 39 38 37 36 34 34 37 35 36 35 35 38 39 39 43 44 43 43 43 47 51 56 59
25 27 28 31 33 35 36 38 41 42 44 44 44 44 40 34 35 47 44 42 41 41 41 40 40 41 41 40 42 41 40 39 41 43 44 45 42 44 45 47 48 47 48 52 56
34 35 38 41 43 42 42 44 45 46 49 50 50 50 48 35 40 47 44 46 46 45 47 46 46 47 45 43 43 43 43 42 42 44 45 45 42 42 43 49 51 51 49 53 55
43 45 47 47 49 50 50 48 51 52 52 56 56 55 54 46 48 50 52 50 50 51 50 51 50 52 50 46 45 45 44 44 45 47 43 41 35 37 42 47 51 51 50 48 47
43 44 45 47 49 50 51 52 54 56 55 57 60 63 60 55 58 57 56 57 54 54 56 56 57 54 53 50 48 48 47 44 44 43 39 41 35 32 37 41 47 50 51 48 47
43 44 45 46 48 50 51 56 59 59 60 62 63 63 64 62 62 62 61 58 57 55 57 61 60 58 56 56 48 47 42 42 40 39 41 41 41 33 33 39 43 46 47 48 49
44 46 47 47 53 59 61 65 70 71 71 74 75 77 75 75 72 73 72 67 62 61 62 62 63 62 58 54 50 49 45 42 42 38 41 41 42 37 31 38 42 44 45 46 49
47 51 55 56 62 71 76 79 82 86 84 82 86 94 99 82 81 81 77 72 67 64 60 65 65 59 60 59 55 51 48 47 46 42 41 44 47 44 39 40 45 43 44 44 43
55 62 65 70 78 85 90 92 97 99 101 92 99 102 86 83 83 84 77 80 76 71 66 61 54 58 61 60 57 53 50 50 48 36 42 45 46 43 41 40 44 42 39 41 43
67 74 80 84 87 93 100 98 93 83 86 80 64 68 70 69 66 76 77 77 80 78 72 65 60 60 61 60 57 55 50 49 44 38 45 43 44 41 43 40 37 40 38 37 41
75 81 86 96 98 98 95 82 66 62 66 47 45 46 47 46 41 47 58 67 69 72 74 72 64 65 67 59 56 52 47 43 38 40 40 41 46 39 41 40 36 38 38 34 37
83 92 96 97 98 85 66 58 55 55 54 37 35 35 37 38 37 34 41 46 47 55 64 62 54 54 57 54 52 50 43 39 40 41 47 44 47 44 41 32 33 32 33 30 30
90 100 106 99 87 69 55 49 47 40 29 25 27 31 35 36 36 32 34 33 33 40 45 51 57 56 54 54 48 49 47 48 47 50 54 46 49 48 36 33 29 28 33 32 34
94 108 101 87 70 58 46 35 25 21 20 20 22 20 28 36 43 44 45 44 39 39 36 45 48 55 55 60 54 54 52 56 55 54 53 46 50 49 35 32 32 37 40 36 37
100 105 85 72 61 48 34 18 14 15 9 9 9 13 12 25 30 38 47 42 35 37 44 44 40 39 48 49 45 49 50 49 50 48 46 46 46 47 40 37 39 39 40 36 36
104 87 75 63 49 35 15 22 13 11 11 15 14 19 13 12 17 23 33 35 43 49 47 42 46 40 36 42 46 48 45 49 51 50 50 47 44 48 43 37 36 34 39 37 35
92 73 66 57 40 21 19 18 25 14 18 17 15 17 16 17 15 18 19 27 35 36 30 47 34 34 43 48 51 52 53 51 47 50 50 48 44 46 40 36 40 40 42 42 39
80 68 58 47 30 17 19 10 13 12 15 14 16 16 10 14 16 16 14 24 26 36 30 37 37 29 38 46 47 51 53 52 51 47 45 42 40 36 36 34 39 39 38 38 43
75 61 45 38 23 18 17 11 8 9 9 10 15 16 17 15 12 5 10 12 32 24 26 26 38 43 37 43 47 46 52 50 47 44 39 39 36 35 36 34 35 37 34 30 30
74 58 36 25 23 16 19 14 7 9 13 10 17 18 17 14 16 10 11 8 17 25 11 23 30 32 35 39 42 52 49 53 48 42 40 38 30 28 29 29 29 32 25 34 31
66 48 35 23 18 13 13 13 4 6 4 13 9 7 14 15 13 14 11 11 13 18 15 27 32 33 34 44 45 43 48 49 44 37 36 30 27 25 26 24 24 27 20 22 29
54 41 23 15 7 7 9 14 10 7 7 16 11 13 11 14 15 10 15 13 13 19 15 16 25 21 38 38 42 43 51 42 39 35 30 27 26 25 25 23 22 18 17 14 21
45 30 18 5 1 6 9 13 11 3 5 6 11 13 15 14 13 11 15 22 21 21 12 19 19 20 35 39 37 32 48 40 39 33 28 29 27 24 20 18 20 22 12 15 14

GFSSW_500_spd_123.txt.gz
Wind_Speed
15 15 17 17 17 19 21 22 22 23 24 24 24 25 25 26 27 29 31 34 34 35 37 36 36 36 37 37 35 36 37 31 28 29 24 32 35 40 46 48 54 56 53 50 49
21 21 21 21 21 22 23 24 27 28 30 32 32 32 32 32 32 33 34 35 37 37 36 39 40 40 40 39 38 38 36 32 29 27 26 34 39 38 39 47 51 52 52 52 51
23 24 25 25 25 26 25 25 26 30 32 33 34 36 37 37 38 36 38 40 41 41 41 40 43 43 42 41 40 37 31 31 30 29 30 34 36 39 39 41 46 47 49 52 52
26 28 29 33 35 36 37 37 37 38 38 37 36 36 37 36 37 41 45 44 44 46 45 46 45 46 47 45 42 38 35 34 31 31 36 35 36 37 38 41 42 41 42 45 49
28 30 31 33 35 37 40 43 45 46 47 48 48 45 43 38 36 50 47 48 49 49 50 50 49 50 50 48 46 42 40 39 35 34 36 37 36 37 37 41 40 40 38 40 41
29 30 32 35 38 39 43 46 46 47 49 51 53 55 51 36 41 49 51 52 54 54 51 53 55 55 53 51 49 45 44 42 40 39 38 38 37 37 38 42 40 38 36 37 38
32 32 34 37 39 42 46 50 52 55 59 61 61 61 59 43 48 49 50 53 52 55 56 56 56 59 57 56 54 52 50 48 44 43 42 41 38 34 38 40 40 38 35 34 35
31 32 34 34 39 40 42 46 48 53 55 60 63 67 68 65 59 59 59 55 56 55 54 58 60 60 59 61 61 58 56 52 49 47 46 45 37 37 37 35 35 34 33 34 34
35 38 40 40 40 44 48 52 56 56 59 62 65 69 68 71 73 75 73 71 69 63 63 63 60 62 62 61 64 64 59 57 56 51 50 48 43 38 38 36 35 33 33 35 37
44 45 47 47 48 51 53 56 60 63 64 67 68 71 76 78 83 86 84 82 82 79 77 75 73 67 61 64 64 63 63 60 56 53 53 50 47 44 39 38 36 37 38 39 40
49 49 52 55 59 62 65 68 70 73 68 71 78 81 81 87 89 88 93 94 93 89 88 88 81 76 65 64 62 64 63 62 59 57 56 51 50 49 42 42 43 42 42 41 40
55 58 59 61 63 68 74 75 79 85 82 81 87 96 97 97 98 100 102 100 99 97 94 96 92 75 76 73 68 63 61 62 64 62 60 56 54 52 49 42 40 40 41 41 42
61 63 63 67 70 73 78 82 89 94 98 88 90 92 88 85 82 83 83 81 90 92 93 88 89 67 72 72 71 67 61 60 64 66 64 61 58 54 50 45 44 43 42 42 41
64 68 70 71 76 81 88 96 101 99 90 78 65 55 52 49 46 43 39 39 46 54 58 65 76 74 74 73 70 71 64 64 66 67 66 64 61 55 51 48 48 47 45 42 40
71 74 74 80 88 92 99 102 95 82 71 49 43 35 31 32 30 24 21 24 24 27 35 45 58 64 70 74 68 66 69 66 64 64 64 63 58 55 54 51 48 48 45 42 40
75 79 82 89 96 103 103 90 74 60 44 26 21 15 16 18 19 17 17 25 24 25 24 21 40 52 62 61 64 62 66 62 60 56 60 61 59 58 54 52 49 47 46 43 41
79 85 90 97 103 104 87 69 51 31 21 10 6 11 10 15 14 15 17 20 23 29 37 20 28 29 47 63 66 66 61 59 57 59 61 60 61 56 57 54 51 48 47 44 37
84 93 99 106 106 89 68 45 23 12 8 3 3 6 11 13 14 9 9 15 23 30 30 30 19 27 32 54 59 67 70 72 66 67 64 66 62 60 62 52 54 49 46 42 36
90 97 104 105 90 70 45 23 4 13 6 2 4 2 8 16 12 12 10 9 10 17 29 34 14 24 23 36 52 46 53 51 53 56 62 64 61 59 60 55 47 44 45 40 34
95 103 105 95 76 48 25 10 7 9 8 9 7 8 9 12 14 11 10 11 10 6 11 16 12 16 24 38 34 48 48 49 45 48 55 56 56 59 57 49 46 45 41 33 28
101 104 101 84 53 27 12 1 10 7 10 12 9 12 16 7 9 10 13 10 9 10 7 14 15 11 22 34 44 42 41 46 47 49 48 54 57 54 52 44 41 42 37 30 30
101 97 88 59 29 16 7 11 13 9 13 10 5 13 14 12 8 10 10 8 6 8 8 14 17 22 22 27 40 39 37 38 45 45 48 47 49 47 45 41 42 37 35 33 32
95 88 65 38 19 12 7 10 10 16 15 2 2 10 12 14 10 11 7 8 8 10 12 10 13 20 21 19 38 44 38 38 34 42 41 44 48 43 44 42 36 35 33 34 34
88 76 41 28 20 10 6 8 7 17 9 2 6 14 14 14 16 19 10 8 8 9 11 7 14 18 19 17 42 38 40 34 38 40 40 41 40 40 38 36 32 30 33 35 33
79 51 33 21 19 15 11 6 4 8 13 12 10 17 22 22 19 15 12 7 5 10 7 6 13 21 26 13 39 37 35 37 40 39 41 39 35 26 27 27 29 32 34 34 33
62 37 29 20 18 13 11 5 5 14 8 10 13 15 18 24 28 13 9 7 10 10 10 6 7 13 5 24 20 27 31 34 39 38 43 41 34 30 28 29 31 34 33 33 32
41 29 26 19 13 8 7 9 10 13 21 17 14 19 29 23 18 7 7 4 13 16 10 10 12 7 7 19 27 24 28 32 34 37 31 32 33 32 35 33 33 31 29 25 28

GFSSW_500_spd_129.txt.gz
Wind_Speed
16 15 14 13 18 23 24 24 24 25 26 27 29 31 32 32 33 32 32 36 36 35 38 38 37 37 36 35 35 38 39 35 31 33 32 39 42 47 50 50 50 57 51 46 56
18 17 17 17 18 19 22 23 27 30 31 32 33 33 34 36 37 37 36 38 40 38 38 41 40 41 41 39 40 41 41 32 31 34 34 34 40 44 49 50 50 52 45 49 52
20 21 21 21 22 23 24 25 27 29 31 34 36 39 39 39 39 38 41 44 45 46 45 45 44 43 43 43 42 43 38 38 37 38 37 35 41 40 48 44 46 48 43 46 45
26 26 27 27 27 28 31 31 34 34 35 36 36 37 39 44 46 46 47 48 48 48 49 51 51 50 48 48 47 47 42 42 42 44 43 39 44 43 44 42 46 45 47 42 41
29 32 33 32 33 34 34 35 37 39 40 41 41 41 41 41 41 47 52 54 54 52 51 52 53 54 55 53 53 51 49 48 46 46 44 39 45 46 45 46 45 44 40 35 41
30 31 31 33 35 37 40 43 44 44 47 47 48 48 49 46 52 49 48 52 53 54 56 55 55 53 56 58 59 57 56 53 51 48 45 43 45 48 47 48 45 47 42 37 38
28 30 33 39 40 42 44 46 50 51 51 54 57 58 57 56 60 59 59 59 58 57 56 59 57 57 56 55 57 60 61 59 53 52 46 48 48 48 48 48 48 45 43 38 36
38 38 40 43 46 49 50 54 56 58 60 62 63 66 64 62 68 66 67 67 67 66 63 62 63 62 59 58 59 59 62 64 55 55 52 53 48 48 50 47 43 42 44 39 34
43 44 49 53 55 57 59 61 62 63 65 67 70 71 72 70 70 70 71 70 71 69 68 69 68 68 70 65 63 63 64 65 60 57 58 58 49 48 50 49 47 39 42 40 36
52 54 56 58 62 64 64 66 67 68 70 70 70 71 73 75 80 82 78 78 78 80 77 74 73 75 71 72 73 66 64 61 58 60 62 61 53 51 46 49 45 39 40 39 38
61 61 62 66 67 63 63 65 68 72 72 74 78 84 80 84 85 84 88 87 86 84 82 84 85 78 71 70 67 62 63 63 61 57 60 63 59 53 47 47 43 41 42 41 39
65 63 62 61 63 66 70 72 76 82 81 82 90 99 95 96 97 96 97 99 100 96 93 93 93 79 76 76 75 70 65 59 62 57 59 59 63 55 48 48 45 42 42 41 39
59 60 62 62 65 72 75 79 86 93 99 93 92 90 77 71 70 72 71 73 85 94 94 89 94 90 88 87 84 81 73 66 62 47 58 58 61 59 51 50 49 46 44 44 41
62 63 62 67 73 76 83 94 96 84 59 23 25 25 18 21 15 8 16 22 28 42 51 45 68 81 76 81 77 80 78 71 66 69 53 66 64 61 50 49 52 49 46 46 43
62 65 70 71 77 86 94 83 58 30 9 14 7 7 8 10 7 14 20 18 17 14 21 25 30 40 48 54 51 71 67 70 69 70 56 43 65 58 57 53 48 47 48 47 47
65 68 71 78 88 91 78 50 20 18 9 13 9 8 7 10 9 7 14 17 17 23 18 17 20 33 39 42 42 51 54 52 52 63 57 53 63 68 54 53 50 50 50 50 48
69 69 76 84 88 76 50 17 18 13 10 8 9 9 12 12 7 12 10 14 20 20 10 12 17 22 23 28 48 40 47 53 51 57 57 58 52 68 58 54 53 50 52 52 49
68 72 80 89 74 56 20 17 17 15 10 9 4 12 20 13 10 2 3 3 2 10 14 19 24 16 23 25 28 45 44 61 59 58 58 70 73 68 59 54 58 54 48 53 52
68 74 84 78 59 25 28 25 23 19 15 8 11 25 18 14 14 9 6 2 4 5 20 20 18 19 26 26 26 37 51 42 51 42 42 61 66 67 39 49 59 55 55 52 55
70 77 77 60 27 23 31 27 26 24 20 18 21 24 22 19 13 9 13 12 4 8 13 17 15 20 19 17 24 34 39 50 46 43 49 47 51 71 50 50 58 58 54 56 55
73 76 58 42 22 27 25 30 26 22 21 20 21 20 21 19 16 13 15 10 6 11 12 14 10 9 13 24 27 35 43 47 53 30 29 38 46 48 45 64 63 58 61 54 54
70 63 41 35 30 22 23 24 22 23 21 23 22 25 25 22 12 13 13 14 13 14 10 7 11 11 10 12 18 30 36 51 39 58 30 40 36 43 39 56 68 66 56 44 50
67 54 36 32 28 19 20 25 30 28 27 27 29 27 29 30 29 14 13 15 16 14 7 9 9 7 11 5 18 29 37 39 47 37 41 31 30 49 38 50 68 60 60 51 46
63 48 34 25 26 24 22 26 29 31 30 30 29 29 31 29 29 25 18 13 16 9 13 8 7 6 5 6 11 24 32 40 41 40 40 41 33 47 50 56 67 55 51 42 37
61 48 33 24 22 24 26 29 33 38 33 31 23 28 35 29 23 13 14 7 9 9 12 8 8 7 8 6 2 8 29 39 43 51 38 21 25 40 43 56 49 48 48 44 42
58 51 35 23 21 22 24 29 34 36 35 30 32 31 23 21 16 3 3 1 4 12 11 9 8 10 6 8 9 5 35 26 36 44 52 45 36 37 34 38 44 45 45 44 44
56 45 34 28 24 23 26 31 36 42 31 29 35 38 13 15 9 6 5 2 8 11 10 5 4 5 10 12 14 11 28 25 27 36 36 32 29 36 32 44 47 46 45 43 41

GFSSW_500_spd_132.txt.gz
Wind_Speed
15 15 14 13 15 19 22 24 25 27 28 30 31 32 32 34 35 35 32 37 37 40 39 38 38 38 39 39 38 40 45 49 43 38 34 36 38 34 41 48 48 41 44 43 46
20 20 20 20 21 21 22 24 27 32 34 34 36 37 38 39 39 37 35 38 39 40 39 40 41 43 43 41 41 43 43 37 32 34 33 35 38 35 46 53 50 43 49 48 49
23 23 23 24 26 27 28 29 29 32 35 36 39 42 44 45 45 41 43 43 42 42 43 44 44 44 43 42 43 44 41 36 37 36 36 35 38 32 44 51 49 43 48 36 46
27 28 28 27 27 28 30 31 34 35 38 39 41 42 44 46 48 46 47 48 48 48 48 47 48 48 48 46 45 46 42 42 40 42 42 41 41 42 42 43 46 42 47 40 42
29 32 33 35 37 37 38 40 40 40 42 45 46 45 46 47 42 52 50 51 51 51 51 51 53 52 52 50 50 51 48 47 43 43 44 45 45 44 45 44 44 42 45 43 44
29 32 35 39 40 42 46 49 51 51 52 51 52 53 53 49 57 55 51 53 55 56 55 53 54 53 54 54 54 52 54 53 50 47 45 47 47 46 43 44 49 45 47 45 36
35 38 40 43 47 49 52 55 59 60 61 62 62 62 61 56 63 62 62 62 61 59 59 59 57 57 56 54 53 54 56 57 58 53 50 49 50 45 44 47 47 51 44 46 41
45 46 50 53 56 56 55 58 62 64 67 70 70 71 68 65 66 67 67 68 70 68 65 63 64 63 61 57 55 57 57 61 55 54 54 54 54 45 47 49 47 48 43 41 43
51 53 55 56 53 53 55 57 60 62 65 67 69 71 73 72 72 72 69 68 71 72 70 68 68 68 67 66 64 62 63 64 58 54 52 58 56 49 48 50 49 49 43 40 39
60 61 58 56 57 57 58 61 63 64 67 72 77 78 77 79 84 85 79 76 74 73 73 73 73 72 70 69 73 67 66 64 62 54 51 53 56 53 50 50 50 48 45 39 40
66 62 58 62 59 58 59 63 67 73 74 81 85 85 84 84 86 85 86 88 86 82 77 76 83 79 71 70 66 65 62 62 60 55 52 55 57 54 50 48 48 50 44 42 40
64 62 60 58 60 62 67 72 77 84 81 81 81 78 81 87 89 88 92 91 88 93 90 87 88 75 74 76 75 73 71 66 64 55 48 54 58 57 53 49 48 47 44 40 41
62 61 58 58 63 68 73 81 79 71 51 35 32 18 14 19 11 15 29 44 57 73 77 61 73 86 83 81 80 78 76 71 66 58 38 38 51 56 57 52 44 48 46 43 42
63 59 61 62 67 72 81 73 59 26 14 19 19 9 12 5 14 8 12 9 10 23 39 49 49 51 61 85 81 83 77 73 69 65 61 39 46 57 61 61 49 47 48 44 45
61 60 63 66 70 80 71 55 15 15 19 19 10 8 13 12 11 1 7 18 15 14 16 15 30 28 38 50 49 64 75 70 73 70 62 61 42 44 47 66 53 41 43 47 46
62 63 66 70 77 74 57 26 17 17 17 17 14 14 12 10 10 7 10 9 14 14 19 11 19 31 35 36 41 39 50 52 62 63 59 71 51 47 47 67 61 47 43 45 48
64 67 68 73 74 56 36 22 23 25 19 16 18 24 21 16 13 11 10 6 14 15 13 12 15 15 15 27 41 47 43 52 57 62 59 64 69 60 58 62 66 53 45 43 47
65 69 67 73 49 38 30 36 28 26 26 25 26 29 26 20 15 10 9 9 3 7 14 14 18 13 8 9 19 41 51 56 55 60 68 58 64 74 65 68 56 49 47 43 46
65 69 64 54 39 35 36 26 26 20 28 24 21 20 18 20 20 17 24 10 8 7 13 10 20 14 17 12 17 16 41 48 39 49 47 63 60 69 65 61 37 49 55 52 49
64 65 60 43 31 34 29 25 22 22 24 26 25 26 23 22 21 21 20 14 7 13 15 15 15 15 8 22 13 21 24 36 44 44 53 48 55 62 66 51 40 43 52 51 45
63 63 55 41 26 29 25 22 21 21 27 26 27 25 26 26 20 23 21 18 15 15 19 17 18 17 15 17 23 23 31 37 44 53 39 49 49 41 56 58 45 42 48 50 52
63 62 53 42 29 26 25 26 25 28 33 34 30 27 28 27 25 22 22 21 21 19 18 18 15 18 19 14 18 32 21 34 43 40 42 39 35 35 41 50 47 47 46 52 54
62 60 51 45 32 25 25 27 30 35 37 37 32 31 29 30 27 19 18 19 21 19 15 16 14 14 10 7 8 16 24 26 33 43 44 31 43 41 46 48 56 61 53 59 58
59 58 50 45 39 28 28 27 30 36 40 36 33 33 30 26 22 17 13 18 16 14 14 15 11 13 11 15 12 6 13 24 37 47 39 34 32 46 51 68 56 55 58 55 52
60 58 53 49 37 29 30 30 33 36 40 35 37 35 37 21 15 14 9 4 7 7 11 15 12 10 11 11 5 8 12 22 38 32 36 29 37 51 34 55 64 60 62 62 46
57 55 49 52 41 32 28 28 35 37 40 37 40 35 22 17 16 9 8 4 5 4 6 9 9 11 11 6 5 4 18 26 34 37 36 39 28 39 26 49 55 52 52 53 53
55 53 49 48 39 33 28 26 32 41 35 37 30 21 18 15 11 11 10 8 4 2 4 8 9 7 9 15 9 7 14 12 35 33 40 34 30 29 26 47 53 47 48 53 52

GFSSW_500_spd_135.txt.gz
Wind_Speed
20 17 16 15 15 16 18 21 25 29 32 33 34 36 37 38 37 37 35 39 39 42 41 41 39 41 45 45 46 48 55 51 47 44 37 37 40 36 27 32 45 50 47 54 54
20 20 20 20 21 22 22 23 25 28 31 35 38 41 42 44 44 43 43 43 42 44 43 41 41 44 44 43 48 50 52 48 36 42 41 41 40 36 35 36 39 44 45 45 47
23 22 23 23 23 24 26 28 31 33 34 37 39 42 45 47 47 44 48 49 49 48 47 47 47 48 45 45 46 47 48 36 38 38 36 37 42 42 44 47 50 50 46 44 45
32 35 36 37 37 37 36 36 37 36 38 41 43 45 47 49 50 50 51 51 53 52 52 52 52 52 50 49 47 48 44 42 41 41 41 39 44 46 49 52 55 56 44 45 46
39 43 50 51 53 49 49 50 52 50 50 50 50 50 51 53 46 58 56 57 54 55 54 55 56 56 56 51 50 51 49 48 45 44 42 40 41 41 42 47 55 54 41 43 41
46 49 57 56 52 50 48 49 52 58 63 63 62 61 59 56 56 62 59 59 59 61 59 57 55 53 57 56 55 52 53 51 51 46 43 43 44 47 41 41 44 46 40 37 36
49 57 60 57 55 51 50 49 50 53 58 63 66 68 67 56 60 63 67 66 63 63 64 62 59 59 59 57 54 54 56 56 54 50 47 46 48 44 43 44 47 46 43 40 37
53 59 61 58 55 54 55 55 58 60 63 67 70 73 73 71 65 66 65 66 70 69 69 68 68 65 62 60 59 59 60 62 54 52 51 53 52 43 47 48 45 45 43 42 33
61 61 60 59 57 56 55 56 60 64 67 71 74 78 76 80 82 77 72 71 67 69 73 72 70 70 69 66 64 62 61 61 54 52 52 54 56 49 49 50 47 44 42 42 34
66 62 65 58 55 56 57 58 62 68 73 77 81 83 85 87 85 86 82 80 77 72 69 72 75 74 68 68 71 66 65 62 59 51 49 51 54 48 46 50 48 47 44 43 36
69 67 63 58 58 57 60 62 66 76 82 77 69 66 63 67 71 66 75 75 75 77 73 74 76 76 67 64 61 59 57 59 57 50 51 53 53 51 50 45 47 49 48 44 39
66 63 60 58 58 60 65 71 79 72 54 32 27 19 17 17 13 17 28 40 46 61 64 70 75 70 71 70 68 67 66 66 66 60 54 53 57 55 53 49 45 45 47 44 38
63 62 57 59 60 64 68 75 63 53 31 28 22 18 21 21 14 23 10 13 16 19 33 52 63 68 73 73 72 70 70 68 67 61 58 59 57 58 52 52 48 46 46 45 39
61 60 58 62 65 67 72 60 48 32 25 22 22 26 26 18 17 16 9 14 15 9 8 21 25 48 60 74 73 76 71 70 68 66 67 58 59 66 53 44 51 47 49 47 42
63 60 61 63 65 64 64 48 31 20 14 25 33 29 28 25 21 15 13 16 15 16 14 12 12 23 36 49 57 74 78 70 71 72 69 67 58 60 52 42 51 51 46 47 46
63 61 63 67 60 60 51 39 24 10 21 28 28 27 18 18 22 18 27 17 9 10 9 3 12 12 17 22 39 40 60 63 71 71 77 75 61 61 63 47 53 59 44 44 46
66 63 63 62 54 54 38 37 25 13 16 23 25 30 29 27 26 26 28 22 17 16 7 6 8 8 12 15 28 40 37 47 55 70 74 77 72 64 64 63 63 59 49 43 45
66 65 62 58 54 46 26 34 23 18 17 23 27 22 22 31 23 24 26 27 22 19 13 12 10 16 15 8 20 30 36 50 42 54 67 79 82 71 62 63 60 57 50 43 44
66 64 62 58 51 40 27 25 24 22 23 28 31 28 24 23 27 23 25 21 21 18 15 11 6 15 15 23 16 16 29 33 48 28 54 62 70 74 64 61 60 56 54 47 46
67 64 59 57 50 45 31 27 25 26 30 34 38 31 26 24 27 30 24 24 18 16 19 18 12 15 12 17 13 16 15 31 40 51 46 50 58 66 67 69 62 60 62 55 43
68 65 58 55 51 47 37 28 30 31 36 41 42 34 29 21 22 26 29 23 26 17 17 23 22 14 18 17 18 19 18 25 32 42 40 40 46 51 54 62 61 58 52 60 47
66 62 58 53 51 48 38 30 29 34 37 40 42 36 33 30 22 20 16 25 30 28 22 19 18 9 13 20 14 24 22 24 37 34 43 50 44 34 57 62 61 54 53 44 46
65 62 56 52 49 48 40 30 28 32 36 43 38 35 34 31 25 18 14 17 21 20 15 12 10 10 10 13 13 15 23 36 37 32 34 43 37 39 53 54 72 56 54 49 51
65 59 53 55 51 51 45 29 25 27 37 38 36 32 26 20 18 14 14 8 11 10 9 5 7 11 14 15 15 9 12 14 32 33 28 39 29 34 48 52 57 63 52 50 51
64 58 53 53 48 50 43 31 27 31 33 37 28 27 26 21 11 14 11 9 7 4 5 5 10 10 14 14 7 5 8 11 17 20 28 27 31 44 41 53 43 59 48 53 54
61 55 48 50 49 48 45 29 28 27 36 36 30 28 25 21 17 12 11 12 12 7 5 6 10 11 11 11 11 6 8 8 12 20 28 28 21 25 44 54 40 54 45 55 57
59 52 48 48 46 46 43 27 24 31 32 34 29 25 25 22 19 12 10 8 3 3 7 10 12 13 13 21 11 5 6 3 11 16 31 21 14 31 39 64 31 56 65 56 53

GFSSW_500_spd_138.txt.gz
Wind_Speed
22 21 20 19 18 17 18 22 25 26 27 30 32 33 35 38 39 39 37 42 43 46 45 45 43 45 48 54 56 59 61 57 51 43 36 38 42 42 41 45 50 52 54 51 52
25 26 26 29 32 31 29 27 27 28 32 36 38 39 41 42 42 43 46 47 48 50 48 48 49 50 51 49 55 60 61 53 44 46 45 42 44 39 43 44 48 53 55 54 54
31 30 35 37 36 36 36 36 34 36 39 39 41 45 47 49 49 43 48 51 53 54 55 53 54 55 53 52 53 56 58 45 48 49 47 44 49 39 45 49 49 54 55 56 55
37 38 41 42 42 40 40 38 37 37 38 41 48 50 51 56 57 54 57 56 54 55 56 57 58 58 55 55 53 53 49 47 45 47 47 44 44 49 53 48 46 58 56 58 58
37 42 43 44 44 43 45 45 45 45 46 46 47 49 51 54 53 68 67 61 58 58 57 59 60 63 62 58 55 58 54 52 47 48 48 46 45 41 45 43 51 52 53 53 50
42 44 44 44 44 44 45 45 47 48 51 53 56 59 60 58 57 61 68 72 72 66 62 60 59 58 63 63 61 60 58 55 53 49 49 49 47 47 41 41 46 50 53 53 50
43 44 47 47 47 46 45 47 49 53 57 59 61 65 69 68 67 66 68 66 73 74 68 64 62 62 64 63 62 62 63 61 57 52 50 52 53 52 37 42 46 49 48 42 37
46 50 52 54 53 50 49 52 55 58 64 67 69 74 76 78 77 77 74 70 68 69 70 69 68 68 67 66 65 65 65 64 56 54 54 55 52 46 47 51 51 51 48 43 37
50 55 59 57 57 54 56 58 60 63 63 68 76 78 82 80 76 78 81 80 78 72 68 69 71 70 71 67 67 65 63 62 56 52 55 57 55 51 52 53 52 51 48 44 39
57 62 62 59 58 57 58 59 61 62 67 70 71 57 39 33 35 36 47 58 63 71 69 69 75 75 68 69 70 62 65 64 59 55 55 56 57 50 53 53 51 48 44 40 37
60 65 61 60 60 60 59 58 58 64 69 59 29 26 26 25 22 16 19 22 33 43 49 63 73 73 64 65 64 65 65 66 60 55 56 56 56 51 49 51 54 51 48 45 42
62 63 59 60 62 62 59 56 58 60 50 30 31 28 30 28 27 28 21 11 10 17 44 55 63 61 68 64 63 62 61 62 57 55 60 60 61 56 55 56 53 54 53 47 45
63 59 60 62 64 61 54 52 50 43 34 27 31 29 28 28 26 27 26 13 15 12 15 43 42 57 62 62 61 61 61 61 63 57 60 62 67 65 65 59 55 56 53 51 49
63 62 61 64 64 56 50 49 40 33 25 25 28 31 31 30 26 27 27 34 21 19 10 10 29 59 58 63 66 66 65 64 64 62 66 57 64 61 63 61 59 54 53 50 49
65 66 65 65 59 51 48 46 33 26 28 26 26 28 28 29 31 25 27 23 25 11 11 10 3 24 61 66 67 72 69 68 67 66 68 64 66 68 62 60 57 54 53 50 48
68 70 67 65 55 49 46 39 28 24 26 26 25 29 32 29 31 28 24 28 31 14 11 10 7 3 6 31 53 65 64 64 67 71 78 71 67 74 65 61 57 54 49 48 51
69 73 68 62 53 49 45 36 31 23 27 26 29 32 35 40 31 29 23 20 21 18 7 3 6 5 1 11 22 30 48 55 60 70 76 70 71 71 64 59 53 54 51 50 49
72 71 69 59 52 48 45 41 33 29 27 27 29 32 36 28 26 26 26 21 14 20 11 8 2 4 6 8 19 28 31 37 35 55 67 74 80 71 61 54 54 54 53 50 47
73 71 66 60 51 49 46 43 36 33 30 31 37 40 30 24 25 29 24 22 22 18 13 11 6 8 11 14 10 18 26 32 38 37 30 61 69 72 70 62 54 54 59 54 46
73 74 65 58 49 49 47 46 37 32 31 35 40 40 31 24 21 22 20 23 22 18 17 14 6 13 10 12 11 16 18 29 33 38 47 45 47 63 71 68 58 57 55 56 48
73 70 63 57 51 50 49 47 35 29 30 36 40 33 28 25 19 17 17 17 24 21 20 19 21 13 8 13 15 13 20 26 30 36 41 41 44 44 75 68 66 59 56 55 54
74 67 63 54 48 49 49 46 35 27 31 38 34 30 28 24 21 15 13 20 17 17 15 19 16 8 9 9 12 16 20 29 27 30 36 37 31 31 50 71 75 69 61 58 55
73 66 62 52 47 43 46 42 31 28 30 32 31 28 28 25 24 16 15 14 14 8 2 7 7 3 6 12 17 16 16 22 29 25 34 25 38 23 39 72 82 73 68 63 58
74 65 57 52 47 43 44 41 24 22 28 30 29 29 28 23 19 19 13 12 11 4 4 1 3 5 8 18 17 15 7 15 32 40 31 29 36 33 37 46 74 76 68 63 58
73 64 55 48 44 44 46 43 28 24 25 26 26 29 29 29 17 18 12 8 10 9 9 5 5 7 13 10 11 10 10 12 19 19 28 19 22 22 37 39 68 76 68 63 59
70 60 47 41 40 41 43 45 30 20 25 22 26 29 27 25 24 17 15 11 9 7 6 7 11 10 14 22 17 11 15 12 9 9 11 15 20 25 28 33 67 74 61 65 62
67 57 43 41 40 39 41 43 29 13 24 24 26 31 29 20 12 12 12 11 8 9 12 15 16 17 17 18 11 4 9 3 9 8 8 11 14 10 25 41 73 79 56 64 66

GFSSW_500_spd_141.txt.gz
Wind_Speed
24 24 27 27 26 24 20 18 19 24 28 30 33 36 37 39 40 41 42 45 49 50 51 53 53 56 60 61 60 60 66 67 59 48 40 38 43 44 44 42 51 60 59 53 54
25 28 28 29 30 30 29 28 27 25 24 29 34 39 42 46 47 48 49 50 51 53 53 55 56 58 60 60 65 67 71 69 54 48 48 45 49 50 48 45 47 60 64 57 57
26 28 29 29 30 30 31 34 36 35 34 33 33 37 41 48 53 54 56 58 57 58 59 59 59 62 61 62 64 65 70 57 53 52 52 49 56 54 53 51 47 57 64 62 58
29 32 33 35 37 38 38 38 39 41 43 44 43 42 42 44 53 61 63 63 64 64 62 63 63 65 63 63 62 63 61 55 51 52 54 53 53 57 57 51 47 51 60 62 59
32 33 35 36 38 40 41 42 43 44 43 45 48 51 52 52 52 57 61 67 73 70 67 66 67 67 67 64 63 65 64 60 56 56 54 49 53 57 56 51 52 52 55 57 58
31 34 35 38 40 42 42 43 43 45 46 50 55 56 57 60 61 64 65 65 69 72 70 67 66 68 71 70 68 68 66 63 62 57 57 57 53 58 53 52 51 53 56 58 62
34 36 37 39 41 42 44 46 49 51 55 59 61 63 65 67 69 66 70 72 70 72 72 71 69 67 70 71 71 72 72 69 64 60 58 57 57 55 48 51 50 52 55 59 60
36 38 41 43 45 48 49 51 55 58 59 60 63 68 70 72 74 71 69 72 75 75 74 76 74 71 70 71 71 72 72 70 62 62 60 61 56 50 50 53 52 53 54 58 60
40 43 44 48 53 55 56 58 62 62 61 58 58 59 63 60 56 48 45 42 44 52 61 72 77 71 70 70 71 71 71 70 65 62 63 63 56 55 53 54 54 52 53 56 56
46 48 50 52 56 59 61 62 61 57 54 51 49 49 44 43 35 28 33 35 28 31 52 62 72 76 71 68 70 68 70 71 70 61 62 63 63 58 54 53 54 56 54 56 52
51 53 54 57 60 63 62 59 50 48 46 46 41 34 34 29 34 31 32 31 23 19 35 52 62 70 71 71 66 70 72 72 69 66 66 65 65 62 59 58 57 56 56 58 52
54 57 60 60 62 65 63 57 48 46 45 39 30 29 30 28 25 24 27 28 26 21 19 29 53 56 62 73 74 72 68 68 68 66 67 69 67 65 62 58 60 57 57 57 55
57 62 65 64 66 65 62 51 44 44 41 36 29 31 30 33 32 26 30 27 28 34 21 17 9 48 56 61 71 74 70 64 66 67 65 71 70 68 65 60 60 62 60 59 55
61 63 68 65 68 63 54 47 46 45 41 37 31 33 33 34 38 35 32 34 29 32 13 8 15 21 42 55 60 69 67 67 69 65 68 72 75 68 67 64 62 61 62 60 56
61 64 70 68 67 59 49 47 46 42 42 40 28 34 35 38 41 41 42 31 27 27 17 11 13 13 17 44 54 60 66 68 69 67 72 70 74 73 71 68 62 60 60 59 59
63 69 71 68 67 58 46 46 43 42 40 33 34 32 33 38 41 43 38 31 23 18 20 11 12 8 10 16 35 51 60 66 68 71 74 70 70 75 75 69 63 59 56 57 56
67 72 71 70 66 56 46 45 44 43 42 34 31 35 38 41 37 29 27 22 23 13 16 13 13 10 6 7 13 39 54 60 64 72 75 71 75 74 68 67 61 59 59 59 59
68 74 73 73 64 53 45 45 46 47 33 27 27 32 35 31 24 20 24 24 23 17 13 13 10 6 8 9 10 16 29 53 59 64 72 73 75 69 63 65 64 62 60 62 60
69 75 74 74 63 51 44 44 46 41 27 27 27 28 27 27 30 24 21 21 19 15 18 10 7 7 9 12 10 12 17 15 37 54 63 74 75 67 67 66 65 62 63 64 64
69 75 75 70 59 50 42 42 45 36 29 29 31 31 25 27 27 23 20 20 19 16 18 16 7 11 12 10 7 12 17 17 21 30 42 59 58 74 71 69 63 62 61 63 65
70 74 74 68 59 47 39 43 44 31 27 30 31 33 30 29 24 20 18 17 15 17 11 17 14 9 14 11 10 10 12 18 20 26 32 45 45 62 71 70 67 65 64 63 61
68 73 72 66 54 43 40 41 42 28 26 27 26 31 30 32 24 22 19 17 13 11 8 11 13 10 14 7 7 9 14 20 26 27 28 32 34 40 63 74 74 70 67 62 59
70 70 69 62 52 38 41 42 41 31 24 22 31 31 28 28 31 23 20 16 10 5 4 8 9 9 11 10 12 12 13 14 20 30 32 30 10 30 43 54 76 76 71 66 60
69 70 66 58 52 40 36 40 41 35 20 20 25 29 31 25 23 23 19 12 8 5 1 2 5 6 7 15 18 16 17 17 21 29 26 30 22 15 26 39 48 74 74 68 61
69 70 62 56 44 40 39 39 41 31 17 14 18 27 31 27 18 17 13 12 12 10 9 7 8 9 13 18 15 14 14 17 20 26 25 22 31 27 23 36 37 57 78 73 66
69 69 56 47 42 42 39 40 42 38 16 14 16 24 26 25 22 16 18 15 14 11 11 12 14 17 16 23 25 18 19 21 20 19 21 18 20 25 24 29 30 45 83 74 68
71 65 56 45 42 42 40 40 42 29 22 16 15 22 24 25 22 18 16 13 13 13 15 17 18 15 10 9 12 4 13 11 9 11 10 7 14 23 24 28 31 39 84 73 69

GFSSW_500_spd_144.txt.gz
Wind_Speed
21 23 24 23 24 24 23 23 23 22 21 21 24 29 33 37 39 41 44 46 48 48 49 51 54 57 62 66 70 73 74 72 65 58 50 38 44 44 46 42 44 56 55 53 51
22 24 24 26 28 29 30 31 31 32 32 33 33 32 34 39 43 47 49 50 51 54 56 56 57 59 63 65 69 72 80 76 70 60 55 43 48 47 49 48 46 49 58 56 56
25 27 29 30 31 32 34 36 36 36 35 36 37 39 39 39 43 47 52 57 58 58 59 62 64 64 66 66 67 71 75 68 67 61 60 54 56 53 51 48 49 52 56 56 56
29 31 32 33 34 35 37 38 38 39 41 43 44 45 46 45 49 51 52 56 60 63 64 65 67 69 71 71 69 71 67 65 63 58 62 59 60 57 59 53 53 54 57 54 57
28 29 31 33 34 36 38 40 41 42 44 46 47 48 50 52 54 57 60 61 61 62 65 67 70 73 73 74 73 73 72 69 66 61 59 58 62 63 62 60 58 57 59 56 58
30 30 32 35 37 39 44 46 49 51 52 54 55 56 55 55 58 60 63 63 64 68 69 70 71 72 77 77 77 77 76 74 71 67 65 61 59 62 60 60 58 61 61 59 57
33 33 35 38 42 44 48 50 53 55 58 60 62 63 64 66 63 60 59 61 63 62 65 67 74 77 76 76 79 78 80 76 75 70 68 64 61 60 53 57 59 59 60 60 58
37 38 40 43 44 47 49 53 56 59 60 60 60 61 62 62 61 57 56 57 60 57 55 58 66 75 77 78 76 79 82 78 72 71 70 66 64 56 56 57 58 56 59 61 59
40 40 44 47 48 49 54 57 59 61 61 58 56 53 51 53 52 52 50 47 47 44 43 40 50 67 74 76 75 75 78 79 72 71 71 70 67 59 58 59 57 54 58 59 58
40 43 47 49 49 53 57 61 64 64 59 54 50 45 44 46 47 43 41 43 37 31 36 37 36 53 71 73 79 75 73 76 77 72 72 72 71 66 64 59 59 57 60 59 58
42 45 49 52 52 58 60 64 65 59 54 47 45 44 44 43 39 38 38 33 31 32 32 38 36 30 50 61 71 78 80 78 77 73 74 71 73 71 68 63 62 59 62 63 56
44 46 50 54 57 62 64 67 65 60 46 45 44 45 42 40 36 39 37 36 35 32 34 34 34 26 30 47 60 70 77 78 76 74 76 73 74 72 69 66 65 61 60 63 60
44 48 51 57 62 66 68 67 60 52 44 43 45 41 40 36 36 41 41 38 37 35 29 33 23 29 32 30 43 64 69 73 75 74 75 76 76 73 70 66 65 64 59 62 61
47 50 55 62 66 68 70 64 53 46 43 42 39 35 33 35 37 40 45 47 43 36 26 28 24 25 28 23 24 43 57 66 69 74 74 73 79 75 71 68 67 64 60 58 60
47 53 58 63 68 70 69 59 47 43 49 46 34 32 34 39 40 40 46 51 47 30 20 21 17 21 20 22 28 28 43 59 66 70 76 72 80 74 73 72 64 61 61 62 62
51 55 59 65 70 71 66 54 43 42 45 35 29 30 32 36 39 43 43 37 32 22 16 13 17 17 20 19 21 17 33 45 61 70 76 73 75 77 73 70 64 60 62 64 66
51 58 60 65 71 69 61 50 41 42 42 28 29 31 32 38 31 33 33 31 29 17 16 16 17 19 14 17 21 14 23 39 48 63 77 73 77 77 72 69 66 65 65 65 65
54 58 60 65 71 68 58 44 40 41 34 25 28 25 30 36 28 27 29 25 22 17 13 17 18 16 13 15 15 21 15 20 34 49 60 68 78 72 64 71 71 66 68 66 63
54 59 62 66 71 66 53 40 39 40 33 29 26 28 30 31 31 27 27 24 20 12 9 12 13 15 12 15 14 13 12 11 11 22 42 61 70 65 67 69 73 70 69 67 65
56 59 63 67 70 64 50 39 38 40 35 26 29 30 34 31 28 26 27 24 18 13 13 13 13 14 13 17 14 11 7 15 17 18 22 44 59 67 68 64 69 73 74 71 68
56 59 62 67 67 59 47 38 40 40 39 26 26 30 32 25 25 30 28 25 21 16 14 13 13 15 16 18 14 11 15 14 19 19 17 20 30 61 66 69 69 71 75 72 70
56 60 64 68 67 54 43 40 41 41 40 24 24 24 28 29 21 25 26 24 21 16 13 9 8 13 19 18 12 13 11 13 17 20 23 24 9 29 66 71 74 73 72 73 71
54 59 64 67 66 53 44 42 40 42 39 23 23 24 26 27 27 21 18 18 18 15 13 8 6 11 17 16 13 15 15 16 16 25 32 27 14 18 35 58 75 75 72 72 71
57 61 67 66 65 54 42 45 41 43 38 24 22 24 23 21 24 22 20 17 13 11 10 9 9 11 11 17 22 20 20 19 23 23 24 18 14 15 19 33 52 78 74 70 72
59 64 68 67 62 51 46 44 41 42 37 19 22 23 27 26 20 19 18 18 17 14 14 14 15 17 19 24 28 25 24 25 27 19 24 8 13 15 23 31 37 56 80 74 72
61 64 68 67 60 52 49 47 46 44 38 21 15 18 21 25 25 16 17 16 15 17 18 22 21 21 21 19 24 27 26 29 26 18 24 19 13 19 26 29 28 38 57 74 75
60 63 66 66 58 53 51 53 52 48 37 21 12 11 17 20 19 19 20 18 17 18 20 21 21 19 13 10 7 13 1 7 12 15 16 14 17 24 25 29 32 32 44 65 74

GFSSW_500_spd_147.txt.gz
Wind_Speed
21 23 24 24 23 22 22 20 19 19 20 20 22 25 26 28 32 35 40 42 45 47 49 52 52 55 61 65 70 73 75 70 64 60 53 47 46 46 45 43 43 41 41 49 50
26 25 26 26 26 27 27 27 26 26 27 28 28 29 30 33 36 39 43 46 50 52 54 56 57 58 61 61 65 70 79 75 72 68 62 55 53 53 52 50 48 46 43 41 52
31 31 30 29 30 30 32 34 35 36 37 38 40 41 42 41 42 44 44 46 51 56 59 62 64 64 65 66 67 69 74 69 75 73 69 64 61 64 58 54 52 51 51 45 46
33 34 32 32 32 34 35 37 38 40 42 43 45 47 49 50 52 53 53 51 53 56 60 63 65 70 71 72 72 73 69 69 71 69 69 69 66 68 65 60 58 56 54 50 49
32 34 34 34 35 36 39 40 41 44 47 49 52 54 56 56 57 58 60 62 61 59 61 64 68 69 70 75 78 77 75 75 74 72 68 69 66 71 68 66 66 64 62 54 51
33 34 36 36 38 40 43 44 47 51 53 56 58 61 63 64 61 62 61 59 59 59 56 58 61 68 73 71 76 79 82 81 80 74 72 72 65 68 65 68 68 68 67 62 57
35 34 36 37 40 43 45 49 53 56 59 64 67 68 69 63 61 61 57 53 49 48 49 51 54 56 64 71 76 77 82 85 83 78 76 74 71 67 59 65 67 67 68 64 61
40 38 40 40 43 46 49 52 56 60 62 64 67 68 63 60 56 52 50 49 51 50 48 47 44 45 50 59 70 76 81 82 82 81 78 74 74 59 64 64 65 66 65 65 62
42 42 43 44 44 48 52 56 58 61 64 65 65 62 52 50 45 46 49 50 48 46 44 43 40 38 33 39 55 70 78 83 81 79 81 79 77 68 66 64 64 61 60 60 61
43 46 47 48 49 50 52 57 61 63 65 63 58 49 44 42 48 50 48 47 47 40 39 39 38 37 35 41 39 52 71 79 82 79 79 82 81 79 71 68 66 64 61 59 61
45 46 49 51 54 54 56 60 62 63 60 56 45 37 42 41 41 44 45 43 41 40 41 40 42 40 35 41 39 40 46 77 83 79 79 81 84 81 73 71 66 66 62 59 57
47 47 50 53 56 59 60 62 63 64 54 44 39 42 35 30 34 41 42 38 37 37 39 41 40 36 34 35 34 34 38 42 76 82 79 77 81 84 74 73 69 66 62 60 57
50 49 52 55 57 59 60 62 64 63 51 38 40 34 28 32 34 38 41 42 40 40 42 43 38 33 29 30 29 30 31 27 44 74 82 81 83 79 75 73 70 66 61 60 58
53 53 53 55 56 57 60 62 62 55 42 37 35 26 29 31 36 37 39 40 40 40 40 35 25 22 23 24 27 27 28 27 36 49 77 78 85 79 75 73 73 68 61 60 60
53 54 55 55 54 57 60 63 59 48 41 41 33 29 32 34 33 35 36 33 34 30 28 19 17 17 16 20 28 23 25 28 33 43 58 75 83 80 79 75 71 68 64 61 64
54 54 55 53 55 59 62 63 56 42 39 42 35 28 31 35 35 36 31 31 29 25 22 15 18 16 15 20 21 21 27 27 25 35 42 64 76 85 81 75 72 72 66 62 66
54 56 54 53 57 62 62 61 50 39 38 41 37 29 29 34 31 33 29 25 24 21 14 12 18 18 17 16 19 21 24 29 22 36 42 50 66 83 77 76 74 73 68 63 65
55 56 52 55 60 63 62 58 46 38 39 43 41 28 28 34 25 28 31 28 25 20 10 9 18 19 16 19 20 19 21 24 28 18 27 36 56 80 72 72 75 74 70 66 63
54 55 52 56 61 64 62 52 46 38 37 39 39 27 24 30 28 27 29 26 23 19 14 8 10 19 22 17 21 16 18 18 22 17 15 23 41 63 71 71 74 74 74 70 66
54 56 54 57 60 63 61 51 43 40 37 39 38 26 27 28 25 25 25 26 22 19 18 14 9 18 20 17 20 21 17 18 25 27 23 18 12 41 67 68 68 70 70 69 68
54 55 55 58 60 63 60 50 44 42 36 38 38 27 28 27 23 23 22 22 23 20 17 14 8 13 19 23 22 22 19 17 22 24 26 18 3 15 52 69 68 67 69 69 69
53 53 54 55 61 63 60 52 45 41 39 39 36 27 26 30 24 22 20 17 18 18 17 13 6 8 19 25 25 22 19 18 21 23 20 19 4 9 27 58 70 68 68 68 68
57 54 53 55 62 64 59 53 47 44 44 38 35 27 24 24 31 25 22 19 16 16 15 14 10 12 14 20 22 22 21 24 25 25 22 21 11 5 6 17 56 68 68 67 69
58 52 53 58 63 64 60 57 52 52 48 39 31 26 23 18 25 25 22 19 17 15 17 18 14 18 18 21 27 27 28 30 29 27 22 12 17 11 11 13 21 59 67 69 68
57 50 54 60 63 62 61 60 58 57 44 34 26 23 21 18 16 18 18 20 16 16 18 21 22 24 24 24 27 31 29 34 37 25 28 11 11 6 12 21 22 43 68 70 69
53 51 55 59 62 60 62 61 61 53 37 22 15 16 18 22 22 18 19 22 18 17 20 20 20 20 15 18 19 14 16 16 23 29 27 21 14 16 22 26 25 28 60 70 69
46 48 53 57 59 60 60 61 61 39 26 18 10 6 15 18 16 21 25 23 21 17 17 19 21 12 11 19 14 11 14 7 10 15 18 12 11 22 22 28 26 25 42 68 71